Darstellungsparameter: Aktuell verwendete Einstellungen:
Skalierung der Graphiken ... ?
xyx+y,   Skalierungsfaktor:      Skalierung: Modus: x, Faktor: 1
Darstellungszeitraum ... ?
Vom - - bis: - -   Zeitraum: 30.03.2013 - 29.09.2013
Min/Max/Avg-Anzeige ... ?
Zeige MMA aktuell
Zeige MMA Monat
Zeige MMA alles
Zeige --A aktuell
Zeige --A Monat
Zeige --A alles
Keine MMA-Anzeige
MMA:
Average (ber die Originaldaten)
MMA-Basis: 30.03.2013 - 29.09.2013
Quicknavigation für Darstellung... ?
Tage:      1T, 2T, 3T, 5T -1T -2T -3T -5T +1T +2T +3T +5T
Wochen: 1W, 2W, 3W -1W -2W -3W +1W +2W +3W
Monate: 1M, 3M, 6M -1M -3M -6M +1M +3M +6M
Jahre:    1J, 3J, 5J, 10J -1J -3J -5J -10J +1J +3J +5J +10J
Nutze für die Darstellung ... ?
Originaldaten oder ...
Mittelwerte Minima Maxima auf...
Stundenbasis Tagesbasis Wochenbasis
Monatsbasis Jahresbasis      Datenbasis: Mittelwerte auf Stundenbasis
Darstellen als:
Statistik (Auto) Statistik J:M      Darstellung:
Zur Graphik,    zurück zur Übersicht aller Sensoren.
 
Tabellarische Datenbersicht: ?
 
Sensor: Nr:Datum:Temp:Abs-Feuchte:Windchill:Wind:
Aussen-T/F 1 30-03-2013 00:00:00 0.04167 C 4.13 g/m*3 0.04 C 2.66667 km/h
2 30-03-2013 01:00:00 -0.13333 C 4.13 g/m*3 -0.13 C 0.53333 km/h
3 30-03-2013 02:00:00 -0.4 C 4.12 g/m*3 -0.4 C 1.06667 km/h
4 30-03-2013 03:00:00 -0.4 C 4.13 g/m*3 -0.4 C 1.6 km/h
5 30-03-2013 04:00:00 -0.725 C 4.09 g/m*3 -0.73 C 0.53333 km/h
6 30-03-2013 05:00:00 -1.00833 C 4.06 g/m*3 -1.01 C 1.06667 km/h
7 30-03-2013 06:00:00 -1.075 C 4.05 g/m*3 -1.08 C 1.6 km/h
8 30-03-2013 07:00:00 -0.88333 C 4.07 g/m*3 -0.88 C 2.13333 km/h
9 30-03-2013 08:00:00 -0.24167 C 4.21 g/m*3 -0.24 C 4.66667 km/h
10 30-03-2013 09:00:00 0.95833 C 4.39 g/m*3 -0.72 C 5.49167 km/h
11 30-03-2013 10:00:00 2.34167 C 4.5 g/m*3 0.66 C 6.025 km/h
12 30-03-2013 11:00:00 4 C 4.46 g/m*3 2.17 C 7.25 km/h
13 30-03-2013 12:00:00 4.025 C 4.03 g/m*3 1.6 C 9.55833 km/h
14 30-03-2013 13:00:00 4.05833 C 3.84 g/m*3 1.73 C 9.15 km/h
15 30-03-2013 14:00:00 4.35833 C 3.75 g/m*3 2.23 C 8.59167 km/h
16 30-03-2013 15:00:00 4.39167 C 3.73 g/m*3 1.91 C 10.09167 km/h
17 30-03-2013 16:00:00 4.36667 C 3.6 g/m*3 2.3 C 8.325 km/h
18 30-03-2013 17:00:00 3.975 C 3.51 g/m*3 1.27 C 10.76667 km/h
19 30-03-2013 18:00:00 3.45 C 3.56 g/m*3 1.12 C 8.73333 km/h
20 30-03-2013 19:00:00 2.875 C 3.79 g/m*3 0.58 C 8.19167 km/h
21 30-03-2013 20:00:00 2.38333 C 3.84 g/m*3 2.38 C 4.81667 km/h
22 30-03-2013 21:00:00 0.775 C 3.91 g/m*3 0.78 C 1.86667 km/h
23 30-03-2013 22:00:00 -0.24167 C 3.87 g/m*3 -0.24 C 3.73333 km/h
24 30-03-2013 23:00:00 -0.675 C 3.83 g/m*3 -0.68 C 3.33333 km/h
25 31-03-2013 00:00:00 -1.375 C 3.81 g/m*3 -1.38 C 2.93333 km/h
Sensor: Nr:Datum:Temp:Abs-Feuchte:Windchill:Wind:
Aussen-T/F 26 31-03-2013 01:00:00 -1.6 C 3.8 g/m*3 -1.6 C 2.26667 km/h
27 31-03-2013 02:00:00 -1.49167 C 3.81 g/m*3 -1.49 C 2.66667 km/h
28 31-03-2013 04:00:00 -0.89167 C 3.89 g/m*3 -0.89 C 2.93333 km/h
29 31-03-2013 05:00:00 -0.61667 C 3.98 g/m*3 -0.62 C 1.33333 km/h
30 31-03-2013 06:00:00 -0.825 C 4.03 g/m*3 -0.83 C 2 km/h
31 31-03-2013 07:00:00 -0.93333 C 4.05 g/m*3 -0.93 C 2.26667 km/h
32 31-03-2013 08:00:00 -0.50833 C 4.17 g/m*3 -0.51 C 1.33333 km/h
33 31-03-2013 09:00:00 0.70833 C 4.37 g/m*3 0.71 C 3.6 km/h
34 31-03-2013 10:00:00 1.69167 C 4.29 g/m*3 1.69 C 3.73333 km/h
35 31-03-2013 11:00:00 2.38333 C 4.17 g/m*3 2.38 C 3.6 km/h
36 31-03-2013 12:00:00 2.26667 C 4.23 g/m*3 2.27 C 4.95 km/h
37 31-03-2013 13:00:00 1.75833 C 4.34 g/m*3 0.31 C 5.225 km/h
38 31-03-2013 14:00:00 2.59167 C 4.23 g/m*3 0.66 C 6.83333 km/h
39 31-03-2013 15:00:00 2.7 C 4.22 g/m*3 0.3 C 8.45833 km/h
40 31-03-2013 16:00:00 3.31667 C 4.01 g/m*3 3.32 C 4.26667 km/h
41 31-03-2013 17:00:00 3.51667 C 4.04 g/m*3 3.52 C 3.46667 km/h
42 31-03-2013 18:00:00 3.44167 C 4.05 g/m*3 3.44 C 4.54167 km/h
43 31-03-2013 19:00:00 2.975 C 4.16 g/m*3 2.98 C 1.46667 km/h
44 31-03-2013 20:00:00 2.625 C 3.87 g/m*3 0.88 C 6.30833 km/h
45 31-03-2013 21:00:00 2.29167 C 4.03 g/m*3 0.14 C 7.38333 km/h
46 31-03-2013 22:00:00 1.71667 C 4.01 g/m*3 1.72 C 0.93333 km/h
47 31-03-2013 23:00:00 1.225 C 4 g/m*3 1.23 C 1.06667 km/h
48 01-04-2013 00:00:00 0.49167 C 3.88 g/m*3 0.49 C 3.2 km/h
49 01-04-2013 01:00:00 -0.7 C 3.64 g/m*3 -0.7 C 3.73333 km/h
50 01-04-2013 02:00:00 -1.5 C 3.56 g/m*3 -1.5 C 1.2 km/h
Sensor: Nr:Datum:Temp:Abs-Feuchte:Windchill:Wind:
Aussen-T/F 51 01-04-2013 03:00:00 -2.025 C 3.56 g/m*3 -2.03 C 0.93333 km/h
52 01-04-2013 04:00:00 -2.25833 C 3.54 g/m*3 -2.26 C 1.46667 km/h
53 01-04-2013 05:00:00 -2.9 C 3.46 g/m*3 -2.9 C 0 km/h
54 01-04-2013 06:00:00 -3.46667 C 3.37 g/m*3 -3.47 C 0 km/h
55 01-04-2013 07:00:00 -3.70833 C 3.36 g/m*3 -3.71 C 0 km/h
56 01-04-2013 08:00:00 -2.86667 C 3.6 g/m*3 -2.87 C 0.66667 km/h
57 01-04-2013 09:00:00 -1.29167 C 3.8 g/m*3 -1.29 C 2.68333 km/h
58 01-04-2013 10:00:00 0.68333 C 3.91 g/m*3 -2.38 C 9.54167 km/h
59 01-04-2013 11:00:00 2.78333 C 3.88 g/m*3 -0.66 C 13.16667 km/h
60 01-04-2013 12:00:00 3.75 C 3.77 g/m*3 0.43 C 13.7 km/h
61 01-04-2013 13:00:00 4.925 C 3.75 g/m*3 1.53 C 15.83333 km/h
62 01-04-2013 14:00:00 5.40833 C 3.73 g/m*3 2.02 C 16.63333 km/h
63 01-04-2013 15:00:00 6.13333 C 3.65 g/m*3 3.34 C 13.7 km/h
64 01-04-2013 16:00:00 6.75833 C 3.57 g/m*3 4.33 C 12.35833 km/h
65 01-04-2013 17:00:00 6.96667 C 3.43 g/m*3 4.84 C 10.9 km/h
66 01-04-2013 18:00:00 6.95 C 3.33 g/m*3 4.63 C 11.96667 km/h
67 01-04-2013 19:00:00 6.34167 C 3.3 g/m*3 5.02 C 6.84167 km/h
68 01-04-2013 20:00:00 2.84167 C 3.47 g/m*3 2.84 C 4.93333 km/h
69 01-04-2013 21:00:00 0.98333 C 3.49 g/m*3 -0.79 C 5.73333 km/h
70 01-04-2013 22:00:00 0.475 C 3.42 g/m*3 0.48 C 4.8 km/h
71 01-04-2013 23:00:00 -0.16667 C 3.41 g/m*3 -0.17 C 4.8 km/h
72 02-04-2013 00:00:00 -0.46667 C 3.33 g/m*3 -0.47 C 4.93333 km/h
73 02-04-2013 01:00:00 -0.75 C 3.31 g/m*3 -0.75 C 3.46667 km/h
74 02-04-2013 02:00:00 -1.275 C 3.26 g/m*3 -1.27 C 3.86667 km/h
75 02-04-2013 03:00:00 -1.69167 C 3.21 g/m*3 -1.69 C 2.53333 km/h
Sensor: Nr:Datum:Temp:Abs-Feuchte:Windchill:Wind:
Aussen-T/F 76 02-04-2013 04:00:00 -1.76667 C 3.21 g/m*3 -1.77 C 3.2 km/h
77 02-04-2013 05:00:00 -1.76667 C 3.22 g/m*3 -1.77 C 3.2 km/h
78 02-04-2013 06:00:00 -2.21667 C 3.22 g/m*3 -2.22 C 2.66667 km/h
79 02-04-2013 07:00:00 -2.16667 C 3.24 g/m*3 -2.17 C 2.66667 km/h
80 02-04-2013 08:00:00 -1.58333 C 3.31 g/m*3 -1.58 C 2.13333 km/h
81 02-04-2013 09:00:00 -0.34167 C 3.38 g/m*3 -0.34 C 4.00833 km/h
82 02-04-2013 10:00:00 1.91667 C 3.44 g/m*3 -0.95 C 9.69167 km/h
83 02-04-2013 11:00:00 3.69167 C 3.47 g/m*3 0.79 C 11.41667 km/h
84 02-04-2013 12:00:00 5.5 C 3.49 g/m*3 2.28 C 15.55833 km/h
85 02-04-2013 13:00:00 6.41667 C 3.48 g/m*3 3.4 C 15.7 km/h
86 02-04-2013 14:00:00 7.45833 C 3.49 g/m*3 4.42 C 17.83333 km/h
87 02-04-2013 15:00:00 7.78333 C 3.57 g/m*3 4.89 C 17.3 km/h
88 02-04-2013 16:00:00 7.91667 C 3.55 g/m*3 4.87 C 18.9 km/h
89 02-04-2013 17:00:00 7.3 C 3.56 g/m*3 4.38 C 16.5 km/h
90 02-04-2013 18:00:00 6.275 C 3.55 g/m*3 3.26 C 15.43333 km/h
91 02-04-2013 19:00:00 4.83333 C 3.54 g/m*3 2.57 C 9.525 km/h
92 02-04-2013 20:00:00 2.79167 C 3.46 g/m*3 0.38 C 8.59167 km/h
93 02-04-2013 21:00:00 1.70833 C 3.42 g/m*3 -0.18 C 6.31667 km/h
94 02-04-2013 22:00:00 0.84167 C 3.48 g/m*3 0.84 C 4.81667 km/h
95 02-04-2013 23:00:00 0.64167 C 3.52 g/m*3 -1.08 C 5.49167 km/h
96 03-04-2013 00:00:00 0.1 C 3.56 g/m*3 0.1 C 4.15 km/h
97 03-04-2013 01:00:00 -0.36667 C 3.61 g/m*3 -0.37 C 3.46667 km/h
98 03-04-2013 02:00:00 -1.00833 C 3.63 g/m*3 -1.01 C 2.93333 km/h
99 03-04-2013 03:00:00 -1.19167 C 3.68 g/m*3 -1.19 C 3.33333 km/h
100 03-04-2013 04:00:00 -1.26667 C 3.73 g/m*3 -1.27 C 3.33333 km/h
Sensor: Nr:Datum:Temp:Abs-Feuchte:Windchill:Wind:
Aussen-T/F 101 03-04-2013 05:00:00 -0.90833 C 3.88 g/m*3 -0.91 C 2.13333 km/h
102 03-04-2013 06:00:00 0.175 C 4.01 g/m*3 0.18 C 3.075 km/h
103 03-04-2013 07:00:00 0.50833 C 4.03 g/m*3 0.51 C 1.86667 km/h
104 03-04-2013 08:00:00 1.28333 C 4.04 g/m*3 1.28 C 3.60833 km/h
105 03-04-2013 09:00:00 2.05833 C 4.01 g/m*3 -0.45 C 8.46667 km/h
106 03-04-2013 10:00:00 2.65 C 4 g/m*3 -0.63 C 12.21667 km/h
107 03-04-2013 11:00:00 2.86667 C 4.01 g/m*3 0.12 C 9.95 km/h
108 03-04-2013 12:00:00 2.95 C 4.02 g/m*3 -0.05 C 11.16667 km/h
109 03-04-2013 13:00:00 3.08333 C 3.93 g/m*3 0.72 C 8.60833 km/h
110 03-04-2013 14:00:00 3.46667 C 3.87 g/m*3 1.81 C 6.44167 km/h
111 03-04-2013 15:00:00 4.1 C 3.87 g/m*3 2.45 C 6.70833 km/h
112 03-04-2013 16:00:00 5.01667 C 3.89 g/m*3 2.91 C 8.98333 km/h
113 03-04-2013 17:00:00 5.21667 C 3.79 g/m*3 2.38 C 12.75833 km/h
114 03-04-2013 18:00:00 4.675 C 3.69 g/m*3 1.68 C 13.01667 km/h
115 03-04-2013 19:00:00 3.68333 C 3.66 g/m*3 0.78 C 11.425 km/h
116 03-04-2013 20:00:00 2.825 C 3.7 g/m*3 0.11 C 9.80833 km/h
117 03-04-2013 21:00:00 2.15 C 3.7 g/m*3 2.15 C 4.675 km/h
118 03-04-2013 22:00:00 1.66667 C 3.77 g/m*3 -0.5 C 7.10833 km/h
119 03-04-2013 23:00:00 1.43333 C 3.78 g/m*3 -0.68 C 6.84167 km/h
120 04-04-2013 00:00:00 1.30833 C 3.75 g/m*3 -0.63 C 6.29167 km/h
121 04-04-2013 01:00:00 1.23333 C 3.7 g/m*3 -1.62 C 9.15 km/h
122 04-04-2013 02:00:00 1.125 C 3.72 g/m*3 -1.85 C 9.55 km/h
123 04-04-2013 03:00:00 1.1 C 3.67 g/m*3 -1.85 C 9.41667 km/h
124 04-04-2013 04:00:00 1.1 C 3.66 g/m*3 -1.59 C 8.475 km/h
125 04-04-2013 05:00:00 1.1 C 3.66 g/m*3 -1.78 C 9.14167 km/h
Sensor: Nr:Datum:Temp:Abs-Feuchte:Windchill:Wind:
Aussen-T/F 126 04-04-2013 06:00:00 1.075 C 3.72 g/m*3 -1.37 C 7.66667 km/h
127 04-04-2013 07:00:00 1.05 C 3.84 g/m*3 -1.13 C 6.85 km/h
128 04-04-2013 08:00:00 1.39167 C 3.99 g/m*3 -2.05 C 11.69167 km/h
129 04-04-2013 09:00:00 1.81667 C 4.11 g/m*3 -1.56 C 11.83333 km/h
130 04-04-2013 10:00:00 3.325 C 4.3 g/m*3 -0.02 C 13.3 km/h
131 04-04-2013 11:00:00 4.91667 C 4.39 g/m*3 1.86 C 13.7 km/h
132 04-04-2013 12:00:00 6.325 C 4.48 g/m*3 3.69 C 13.03333 km/h
133 04-04-2013 13:00:00 6.29167 C 4.45 g/m*3 4.05 C 10.75 km/h
134 04-04-2013 14:00:00 7.58333 C 4.59 g/m*3 5.06 C 14.1 km/h
135 04-04-2013 15:00:00 9.38333 C 4.6 g/m*3 7.1 C 15.43333 km/h
136 04-04-2013 16:00:00 9.875 C 4.59 g/m*3 7.64 C 15.96667 km/h
137 04-04-2013 17:00:00 9.31667 C 4.6 g/m*3 6.64 C 18.76667 km/h
138 04-04-2013 18:00:00 8.38333 C 4.47 g/m*3 5.59 C 17.7 km/h
139 04-04-2013 19:00:00 6.51667 C 4.34 g/m*3 4.27 C 11.00833 km/h
140 04-04-2013 20:00:00 4.65 C 4.25 g/m*3 2.57 C 8.6 km/h
141 04-04-2013 21:00:00 3.13333 C 4.18 g/m*3 1.93 C 5.075 km/h
142 04-04-2013 22:00:00 2.04167 C 4.1 g/m*3 0.52 C 5.5 km/h
143 04-04-2013 23:00:00 1.35 C 4.08 g/m*3 1.35 C 3.6 km/h
144 05-04-2013 00:00:00 0.83333 C 4.06 g/m*3 0.83 C 2.94167 km/h
145 05-04-2013 01:00:00 0.08333 C 4.01 g/m*3 0.08 C 3.33333 km/h
146 05-04-2013 02:00:00 -0.19167 C 4.02 g/m*3 -0.19 C 3.2 km/h
147 05-04-2013 03:00:00 -0.39167 C 4 g/m*3 -0.39 C 2.93333 km/h
148 05-04-2013 04:00:00 -0.50833 C 4.02 g/m*3 -0.51 C 3.2 km/h
149 05-04-2013 05:00:00 0.375 C 4.23 g/m*3 0.38 C 1.6 km/h
150 05-04-2013 06:00:00 1.19167 C 4.32 g/m*3 1.19 C 3.89167 km/h
Sensor: Nr:Datum:Temp:Abs-Feuchte:Windchill:Wind:
Aussen-T/F 151 05-04-2013 07:00:00 1.89167 C 4.3 g/m*3 0.09 C 6.15833 km/h
152 05-04-2013 08:00:00 2.11667 C 4.31 g/m*3 0.55 C 5.63333 km/h
153 05-04-2013 09:00:00 2.425 C 4.32 g/m*3 -0.47 C 10.21667 km/h
154 05-04-2013 10:00:00 2.75833 C 4.31 g/m*3 -0.43 C 11.83333 km/h
155 05-04-2013 11:00:00 3.14167 C 4.32 g/m*3 -0.04 C 12.225 km/h
156 05-04-2013 12:00:00 3.475 C 4.35 g/m*3 0.73 C 10.49167 km/h
157 05-04-2013 13:00:00 3.76667 C 4.37 g/m*3 0.4 C 13.96667 km/h
158 05-04-2013 14:00:00 4.04167 C 4.4 g/m*3 0.98 C 12.63333 km/h
159 05-04-2013 15:00:00 4.06667 C 4.41 g/m*3 1.46 C 10.35833 km/h
160 05-04-2013 16:00:00 4.1 C 4.42 g/m*3 1.59 C 9.95 km/h
161 05-04-2013 17:00:00 4.11667 C 4.42 g/m*3 2.04 C 8.20833 km/h
162 05-04-2013 18:00:00 3.99167 C 4.4 g/m*3 1.9 C 8.19167 km/h
163 05-04-2013 19:00:00 3.84167 C 4.39 g/m*3 2.29 C 6.29167 km/h
164 05-04-2013 20:00:00 3.63333 C 4.42 g/m*3 3.63 C 3.475 km/h
165 05-04-2013 21:00:00 3.53333 C 4.43 g/m*3 3.53 C 3.73333 km/h
166 05-04-2013 22:00:00 3.3 C 4.5 g/m*3 3.3 C 3.88333 km/h
167 05-04-2013 23:00:00 3.3 C 4.56 g/m*3 1.95 C 5.5 km/h
168 06-04-2013 00:00:00 3.18333 C 4.57 g/m*3 1.53 C 6.29167 km/h
169 06-04-2013 01:00:00 2.99167 C 4.59 g/m*3 2.99 C 3.74167 km/h
170 06-04-2013 02:00:00 2.65 C 4.65 g/m*3 2.65 C 0.93333 km/h
171 06-04-2013 03:00:00 2.59167 C 4.69 g/m*3 2.59 C 2 km/h
172 06-04-2013 04:00:00 2.45 C 4.69 g/m*3 2.45 C 1.2 km/h
173 06-04-2013 05:00:00 2.25833 C 4.71 g/m*3 2.26 C 0 km/h
174 06-04-2013 06:00:00 2.05 C 4.77 g/m*3 2.05 C 0.13333 km/h
175 06-04-2013 07:00:00 2.04167 C 4.84 g/m*3 2.04 C 0.13333 km/h
Sensor: Nr:Datum:Temp:Abs-Feuchte:Windchill:Wind:
Aussen-T/F 176 06-04-2013 08:00:00 2.41667 C 4.95 g/m*3 2.42 C 0.8 km/h
177 06-04-2013 09:00:00 3.04167 C 5.07 g/m*3 3.04 C 3.34167 km/h
178 06-04-2013 10:00:00 3.575 C 5.23 g/m*3 2.39 C 5.2 km/h
179 06-04-2013 11:00:00 4.325 C 5.36 g/m*3 2.9 C 6.13333 km/h
180 06-04-2013 12:00:00 4.625 C 5.46 g/m*3 3.33 C 5.88333 km/h
181 06-04-2013 13:00:00 5.8 C 5.55 g/m*3 4.39 C 6.84167 km/h
182 06-04-2013 14:00:00 5.3 C 5.69 g/m*3 3.21 C 9.13333 km/h
183 06-04-2013 15:00:00 5.78333 C 5.77 g/m*3 4.14 C 7.65833 km/h
184 06-04-2013 16:00:00 5.20833 C 5.8 g/m*3 5.21 C 2.93333 km/h
185 06-04-2013 17:00:00 4.3 C 5.87 g/m*3 4.3 C 3.48333 km/h
186 06-04-2013 18:00:00 4.35833 C 5.68 g/m*3 4.36 C 2.54167 km/h
187 06-04-2013 19:00:00 4.18333 C 5.56 g/m*3 2.86 C 5.775 km/h
188 06-04-2013 20:00:00 4.19167 C 5.18 g/m*3 2.1 C 8.33333 km/h
189 06-04-2013 21:00:00 3.73333 C 5.19 g/m*3 3.73 C 2.13333 km/h
190 06-04-2013 22:00:00 2.85 C 5.15 g/m*3 2.85 C 2 km/h
191 06-04-2013 23:00:00 1.31667 C 4.73 g/m*3 1.32 C 3.46667 km/h
192 07-04-2013 00:00:00 0.4 C 4.52 g/m*3 0.4 C 1.86667 km/h
193 07-04-2013 01:00:00 -0.5 C 4.31 g/m*3 -0.5 C 0.4 km/h
194 07-04-2013 02:00:00 -1.18333 C 4.15 g/m*3 -1.18 C 0 km/h
195 07-04-2013 03:00:00 -1.70833 C 4.03 g/m*3 -1.71 C 0 km/h
196 07-04-2013 04:00:00 -2.10833 C 3.93 g/m*3 -2.11 C 0 km/h
197 07-04-2013 05:00:00 -2.525 C 3.83 g/m*3 -2.53 C 0 km/h
198 07-04-2013 06:00:00 -2.73333 C 3.79 g/m*3 -2.73 C 1.46667 km/h
199 07-04-2013 07:00:00 -2.68333 C 3.84 g/m*3 -2.68 C 2.93333 km/h
200 07-04-2013 08:00:00 -2.4 C 3.93 g/m*3 -2.4 C 2.4 km/h
Sensor: Nr:Datum:Temp:Abs-Feuchte:Windchill:Wind:
Aussen-T/F 201 07-04-2013 09:00:00 -1.425 C 4.22 g/m*3 -1.43 C 1.06667 km/h
202 07-04-2013 10:00:00 1.34167 C 4.92 g/m*3 1.34 C 2.8 km/h
203 07-04-2013 11:00:00 4.16667 C 5.09 g/m*3 4.17 C 2.8 km/h
204 07-04-2013 12:00:00 7.33333 C 4.92 g/m*3 5.86 C 8.06667 km/h
205 07-04-2013 13:00:00 8.31667 C 4.18 g/m*3 7.31 C 6.84167 km/h
206 07-04-2013 14:00:00 9.475 C 3.91 g/m*3 8.16 C 9.14167 km/h
207 07-04-2013 15:00:00 10.525 C 3.9 g/m*3 9.24 C 10.08333 km/h
208 07-04-2013 16:00:00 11.43333 C 3.9 g/m*3 11.43 C 8.33333 km/h
209 07-04-2013 17:00:00 11.43333 C 3.69 g/m*3 11.43 C 9.26667 km/h
210 07-04-2013 18:00:00 11.4 C 3.52 g/m*3 11.4 C 9.00833 km/h
211 07-04-2013 19:00:00 10.06667 C 3.55 g/m*3 9.8 C 5.09167 km/h
212 07-04-2013 20:00:00 5.29167 C 4.11 g/m*3 4.39 C 5.06667 km/h
213 07-04-2013 21:00:00 3.68333 C 4.05 g/m*3 3.68 C 4 km/h
214 07-04-2013 22:00:00 2.66667 C 4.01 g/m*3 2.67 C 3.86667 km/h
215 07-04-2013 23:00:00 1.425 C 3.92 g/m*3 1.43 C 1.46667 km/h
216 08-04-2013 00:00:00 0.4 C 3.87 g/m*3 0.4 C 0.53333 km/h
217 08-04-2013 01:00:00 0.03333 C 3.78 g/m*3 0.03 C 0.66667 km/h
218 08-04-2013 02:00:00 -0.525 C 3.76 g/m*3 -0.53 C 0.13333 km/h
219 08-04-2013 03:00:00 -0.81667 C 3.76 g/m*3 -0.82 C 0.4 km/h
220 08-04-2013 04:00:00 -0.90833 C 3.78 g/m*3 -0.91 C 1.46667 km/h
221 08-04-2013 05:00:00 -0.81667 C 3.8 g/m*3 -0.82 C 1.06667 km/h
222 08-04-2013 06:00:00 -1.275 C 3.76 g/m*3 -1.27 C 0.13333 km/h
223 08-04-2013 07:00:00 -1.33333 C 3.78 g/m*3 -1.33 C 0.13333 km/h
224 08-04-2013 08:00:00 -0.1 C 4.01 g/m*3 -0.1 C 0 km/h
225 08-04-2013 09:00:00 2.05 C 4.34 g/m*3 2.05 C 1.6 km/h
Sensor: Nr:Datum:Temp:Abs-Feuchte:Windchill:Wind:
Aussen-T/F 226 08-04-2013 10:00:00 5.125 C 4.54 g/m*3 3.2 C 8.325 km/h
227 08-04-2013 11:00:00 7.88333 C 4.4 g/m*3 5.61 C 12.9 km/h
228 08-04-2013 12:00:00 9.05833 C 4.23 g/m*3 6.87 C 14.1 km/h
229 08-04-2013 13:00:00 10.05 C 4.25 g/m*3 8.44 C 11.55833 km/h
230 08-04-2013 14:00:00 10.61667 C 4.43 g/m*3 9.01 C 12.36667 km/h
231 08-04-2013 15:00:00 10.4 C 4.39 g/m*3 9.21 C 9.40833 km/h
232 08-04-2013 16:00:00 10.275 C 4.5 g/m*3 9.37 C 7.8 km/h
233 08-04-2013 17:00:00 9.46667 C 4.84 g/m*3 8.78 C 6.30833 km/h
234 08-04-2013 18:00:00 8.31667 C 5.65 g/m*3 8.32 C 3.6 km/h
235 08-04-2013 19:00:00 7.14167 C 6.17 g/m*3 7.14 C 0.4 km/h
236 08-04-2013 20:00:00 6.10833 C 6.21 g/m*3 6.11 C 1.33333 km/h
237 08-04-2013 21:00:00 5.68333 C 6.27 g/m*3 5.68 C 0.8 km/h
238 08-04-2013 22:00:00 5.33333 C 6.26 g/m*3 5.33 C 0.8 km/h
239 08-04-2013 23:00:00 5.10833 C 6.16 g/m*3 5.11 C 0.53333 km/h
240 09-04-2013 00:00:00 4.45 C 5.88 g/m*3 4.45 C 3.06667 km/h
241 09-04-2013 01:00:00 3.3 C 5.58 g/m*3 3.3 C 0.13333 km/h
242 09-04-2013 02:00:00 2.56667 C 5.35 g/m*3 2.57 C 0.4 km/h
243 09-04-2013 03:00:00 1.90833 C 5.17 g/m*3 1.91 C 0 km/h
244 09-04-2013 04:00:00 1.15833 C 4.94 g/m*3 1.16 C 0.53333 km/h
245 09-04-2013 05:00:00 1.39167 C 5.06 g/m*3 1.39 C 0.26667 km/h
246 09-04-2013 06:00:00 1.85833 C 5.24 g/m*3 1.86 C 0.26667 km/h
247 09-04-2013 07:00:00 2.23333 C 5.39 g/m*3 2.23 C 0 km/h
248 09-04-2013 08:00:00 2.98333 C 5.68 g/m*3 2.98 C 0.4 km/h
249 09-04-2013 09:00:00 4.69167 C 6.29 g/m*3 4.69 C 2 km/h
250 09-04-2013 10:00:00 7.59167 C 6.8 g/m*3 6.91 C 5.33333 km/h
Sensor: Nr:Datum:Temp:Abs-Feuchte:Windchill:Wind:
Aussen-T/F 251 09-04-2013 11:00:00 8.5 C 6.89 g/m*3 7.52 C 6.84167 km/h
252 09-04-2013 12:00:00 8.675 C 7.07 g/m*3 8.14 C 5.35 km/h
253 09-04-2013 13:00:00 8.71667 C 7.59 g/m*3 8.72 C 2.26667 km/h
254 09-04-2013 14:00:00 8.55 C 7.68 g/m*3 8.55 C 2.4 km/h
255 09-04-2013 15:00:00 9.04167 C 7.75 g/m*3 9.04 C 4.80833 km/h
256 09-04-2013 16:00:00 9.16667 C 7.43 g/m*3 8.74 C 5.225 km/h
257 09-04-2013 17:00:00 9.68333 C 7.26 g/m*3 8.26 C 9.95 km/h
258 09-04-2013 18:00:00 9.45833 C 6.9 g/m*3 8.04 C 9.68333 km/h
259 09-04-2013 19:00:00 9.21667 C 6.89 g/m*3 9.22 C 3.61667 km/h
260 09-04-2013 20:00:00 7.06667 C 6.83 g/m*3 7.07 C 2 km/h
261 09-04-2013 21:00:00 6.90833 C 7 g/m*3 6.91 C 1.6 km/h
262 09-04-2013 22:00:00 6.425 C 7.03 g/m*3 6.43 C 1.73333 km/h
263 09-04-2013 23:00:00 5.93333 C 6.86 g/m*3 5.93 C 1.33333 km/h
264 10-04-2013 00:00:00 5.98333 C 6.96 g/m*3 5.98 C 1.33333 km/h
265 10-04-2013 01:00:00 5.9 C 6.92 g/m*3 5.9 C 1.2 km/h
266 10-04-2013 02:00:00 6.00833 C 6.97 g/m*3 6.01 C 1.33333 km/h
267 10-04-2013 03:00:00 5.98333 C 6.96 g/m*3 5.98 C 0.53333 km/h
268 10-04-2013 04:00:00 5.86667 C 6.91 g/m*3 5.87 C 0 km/h
269 10-04-2013 05:00:00 6.18333 C 7.11 g/m*3 6.18 C 1.73333 km/h
270 10-04-2013 06:00:00 6.925 C 7.3 g/m*3 6.23 C 5.09167 km/h
271 10-04-2013 07:00:00 7.425 C 7.31 g/m*3 6.46 C 6.16667 km/h
272 10-04-2013 08:00:00 8.325 C 7.44 g/m*3 7.12 C 7.65 km/h
273 10-04-2013 09:00:00 9.25 C 7.55 g/m*3 7.25 C 13.03333 km/h
274 10-04-2013 10:00:00 9.69167 C 7.56 g/m*3 7.53 C 15.03333 km/h
275 10-04-2013 11:00:00 9.78333 C 7.65 g/m*3 7.81 C 13.7 km/h
Sensor: Nr:Datum:Temp:Abs-Feuchte:Windchill:Wind:
Aussen-T/F 276 10-04-2013 12:00:00 10.675 C 7.67 g/m*3 8.42 C 17.96667 km/h
277 10-04-2013 13:00:00 11.15833 C 7.68 g/m*3 11.16 C 16.1 km/h
278 10-04-2013 14:00:00 11.95 C 7.45 g/m*3 11.95 C 18.23333 km/h
279 10-04-2013 15:00:00 9.41667 C 7.66 g/m*3 7.88 C 10.325 km/h
280 10-04-2013 16:00:00 10.23333 C 7.3 g/m*3 8.09 C 15.96667 km/h
281 10-04-2013 17:00:00 10.11667 C 7.22 g/m*3 8.48 C 11.83333 km/h
282 10-04-2013 18:00:00 9.89167 C 7.21 g/m*3 8.46 C 10.23333 km/h
283 10-04-2013 19:00:00 9.51667 C 7.37 g/m*3 9.52 C 3.2 km/h
284 10-04-2013 20:00:00 8.21667 C 7.31 g/m*3 8.22 C 3.33333 km/h
285 10-04-2013 21:00:00 7.44167 C 7.1 g/m*3 7.44 C 1.86667 km/h
286 10-04-2013 22:00:00 7.21667 C 7.07 g/m*3 7.22 C 1.2 km/h
287 10-04-2013 23:00:00 7.15833 C 7.07 g/m*3 7.16 C 0.4 km/h
288 11-04-2013 00:00:00 7.25 C 7.12 g/m*3 7.25 C 1.2 km/h
289 11-04-2013 01:00:00 7.53333 C 7.27 g/m*3 7.53 C 0.66667 km/h
290 11-04-2013 02:00:00 7.3 C 7.33 g/m*3 7.3 C 1.73333 km/h
291 11-04-2013 03:00:00 7.18333 C 7.36 g/m*3 7.18 C 2.26667 km/h
292 11-04-2013 04:00:00 7.31667 C 7.55 g/m*3 7.32 C 1.06667 km/h
293 11-04-2013 05:00:00 7.58333 C 7.73 g/m*3 7.58 C 2.4 km/h
294 11-04-2013 06:00:00 8.18333 C 8.04 g/m*3 8.18 C 3.2 km/h
295 11-04-2013 07:00:00 8.70833 C 8.34 g/m*3 8.71 C 2.4 km/h
296 11-04-2013 08:00:00 10.11667 C 9.06 g/m*3 10.12 C 4.55 km/h
297 11-04-2013 09:00:00 12.73333 C 9.53 g/m*3 12.73 C 11.825 km/h
298 11-04-2013 10:00:00 14 C 9.47 g/m*3 14 C 15.43333 km/h
299 11-04-2013 11:00:00 14.96667 C 9.16 g/m*3 14.97 C 15.56667 km/h
300 11-04-2013 12:00:00 15.825 C 8.86 g/m*3 15.83 C 20.50833 km/h
Sensor: Nr:Datum:Temp:Abs-Feuchte:Windchill:Wind:
Aussen-T/F 301 11-04-2013 13:00:00 16.95 C 8.48 g/m*3 16.95 C 20.25 km/h
302 11-04-2013 14:00:00 17.8 C 7.93 g/m*3 17.8 C 22.925 km/h
303 11-04-2013 15:00:00 17.94167 C 7.44 g/m*3 17.94 C 22.36667 km/h
304 11-04-2013 16:00:00 17.24167 C 7.07 g/m*3 17.24 C 18.76667 km/h
305 11-04-2013 17:00:00 16.61667 C 7.19 g/m*3 16.62 C 9.96667 km/h
306 11-04-2013 18:00:00 15.78333 C 7.17 g/m*3 15.78 C 7.78333 km/h
307 11-04-2013 19:00:00 14.31667 C 7.88 g/m*3 14.32 C 4.80833 km/h
308 11-04-2013 20:00:00 13.26667 C 7.8 g/m*3 13.27 C 6.01667 km/h
309 11-04-2013 21:00:00 12.03333 C 8.06 g/m*3 12.03 C 4.40833 km/h
310 11-04-2013 22:00:00 12.03333 C 8.33 g/m*3 12.03 C 4.80833 km/h
311 11-04-2013 23:00:00 11.55 C 8.76 g/m*3 11.55 C 3.73333 km/h
312 12-04-2013 00:00:00 10.46667 C 8.77 g/m*3 10.47 C 1.46667 km/h
313 12-04-2013 01:00:00 10.04167 C 8.9 g/m*3 10.04 C 1.2 km/h
314 12-04-2013 02:00:00 9.725 C 8.83 g/m*3 9.73 C 1.6 km/h
315 12-04-2013 03:00:00 9.58333 C 8.78 g/m*3 9.58 C 1.2 km/h
316 12-04-2013 04:00:00 9.50833 C 8.78 g/m*3 9.51 C 2.13333 km/h
317 12-04-2013 05:00:00 9.01667 C 8.3 g/m*3 7.78 C 8.31667 km/h
318 12-04-2013 06:00:00 7.7 C 7.47 g/m*3 7.7 C 4.54167 km/h
319 12-04-2013 07:00:00 7.04167 C 7.3 g/m*3 7.04 C 3.875 km/h
320 12-04-2013 08:00:00 7.475 C 7.42 g/m*3 7.48 C 4.675 km/h
321 12-04-2013 09:00:00 8.61667 C 7.71 g/m*3 7.25 C 8.6 km/h
322 12-04-2013 10:00:00 10.35 C 8.01 g/m*3 8.16 C 16.63333 km/h
323 12-04-2013 11:00:00 12.16667 C 7.85 g/m*3 12.17 C 18.38333 km/h
324 12-04-2013 12:00:00 12.59167 C 7.74 g/m*3 12.59 C 19.44167 km/h
325 12-04-2013 13:00:00 13.45 C 7.63 g/m*3 13.45 C 15.03333 km/h
Sensor: Nr:Datum:Temp:Abs-Feuchte:Windchill:Wind:
Aussen-T/F 326 12-04-2013 14:00:00 12.625 C 8.5 g/m*3 12.63 C 10.075 km/h
327 12-04-2013 15:00:00 13.86667 C 8.25 g/m*3 13.87 C 13.425 km/h
328 12-04-2013 16:00:00 12.28333 C 8.77 g/m*3 12.28 C 5.34167 km/h
329 12-04-2013 17:00:00 11.4 C 8.74 g/m*3 11.4 C 6.56667 km/h
330 12-04-2013 18:00:00 12.28333 C 8.42 g/m*3 12.28 C 11.00833 km/h
331 12-04-2013 19:00:00 11.625 C 7.89 g/m*3 11.63 C 10.35833 km/h
332 12-04-2013 20:00:00 10.66667 C 7.73 g/m*3 9.89 C 7.5 km/h
333 12-04-2013 21:00:00 9.625 C 7.5 g/m*3 8.89 C 6.56667 km/h
334 12-04-2013 22:00:00 9.54167 C 7.25 g/m*3 8.51 C 7.78333 km/h
335 12-04-2013 23:00:00 8.6 C 7.13 g/m*3 7.5 C 7.39167 km/h
336 13-04-2013 00:00:00 7.96667 C 7.2 g/m*3 7.97 C 4.95833 km/h
337 13-04-2013 01:00:00 9.16667 C 7.24 g/m*3 7.82 C 8.99167 km/h
338 13-04-2013 02:00:00 8.95 C 7.12 g/m*3 7.05 C 11.96667 km/h
339 13-04-2013 03:00:00 9.03333 C 7.1 g/m*3 6.54 C 16.5 km/h
340 13-04-2013 04:00:00 9.16667 C 7.14 g/m*3 6.52 C 18.1 km/h
341 13-04-2013 05:00:00 9.21667 C 7.22 g/m*3 6.56 C 18.36667 km/h
342 13-04-2013 06:00:00 8.83333 C 7.28 g/m*3 6.45 C 15.16667 km/h
343 13-04-2013 07:00:00 8.86667 C 6.98 g/m*3 6.33 C 16.5 km/h
344 13-04-2013 08:00:00 8.93333 C 6.85 g/m*3 6.14 C 18.9 km/h
345 13-04-2013 09:00:00 9.65833 C 6.99 g/m*3 7.31 C 16.5 km/h
346 13-04-2013 10:00:00 10.73333 C 7.15 g/m*3 8.83 C 14.9 km/h
347 13-04-2013 11:00:00 11.13333 C 7.21 g/m*3 11.13 C 12.63333 km/h
348 13-04-2013 12:00:00 12.35 C 7.42 g/m*3 12.35 C 15.16667 km/h
349 13-04-2013 13:00:00 13.61667 C 7.53 g/m*3 13.62 C 17.56667 km/h
350 13-04-2013 14:00:00 14.275 C 7.5 g/m*3 14.28 C 16.76667 km/h
Sensor: Nr:Datum:Temp:Abs-Feuchte:Windchill:Wind:
Aussen-T/F 351 13-04-2013 15:00:00 14.36667 C 7.16 g/m*3 14.37 C 17.7 km/h
352 13-04-2013 16:00:00 14.875 C 6.84 g/m*3 14.88 C 16.9 km/h
353 13-04-2013 17:00:00 15.74167 C 6.36 g/m*3 15.74 C 17.7 km/h
354 13-04-2013 18:00:00 15.79167 C 6.09 g/m*3 15.79 C 16.5 km/h
355 13-04-2013 19:00:00 14.46667 C 6.45 g/m*3 14.47 C 8.05 km/h
356 13-04-2013 20:00:00 11.43333 C 7.23 g/m*3 11.43 C 3.73333 km/h
357 13-04-2013 21:00:00 10.86667 C 7.33 g/m*3 10.87 C 3.33333 km/h
358 13-04-2013 22:00:00 10.50833 C 7.26 g/m*3 10.51 C 3.46667 km/h
359 13-04-2013 23:00:00 11.30833 C 7.21 g/m*3 11.31 C 5.225 km/h
360 14-04-2013 00:00:00 10.46667 C 7.68 g/m*3 10.47 C 3.2 km/h
361 14-04-2013 01:00:00 9.91667 C 8.07 g/m*3 9.92 C 3.6 km/h
362 14-04-2013 02:00:00 9.71667 C 8.2 g/m*3 9.72 C 3.2 km/h
363 14-04-2013 03:00:00 9.65 C 8.33 g/m*3 9.65 C 1.33333 km/h
364 14-04-2013 04:00:00 9.71667 C 8.38 g/m*3 9.72 C 0 km/h
365 14-04-2013 05:00:00 9.925 C 8.39 g/m*3 9.93 C 0.93333 km/h
366 14-04-2013 06:00:00 10.33333 C 8.41 g/m*3 10.33 C 2.66667 km/h
367 14-04-2013 07:00:00 10.6 C 8.52 g/m*3 10.6 C 0.53333 km/h
368 14-04-2013 08:00:00 11.55833 C 8.56 g/m*3 11.56 C 2.26667 km/h
369 14-04-2013 09:00:00 13.13333 C 8.37 g/m*3 13.13 C 2.13333 km/h
370 14-04-2013 10:00:00 14.48333 C 8.66 g/m*3 14.48 C 4.13333 km/h
371 14-04-2013 11:00:00 15.86667 C 8.99 g/m*3 15.87 C 3.33333 km/h
372 14-04-2013 12:00:00 17.8 C 9.17 g/m*3 17.8 C 7.64167 km/h
373 14-04-2013 13:00:00 19.94167 C 9.09 g/m*3 19.94 C 11.96667 km/h
374 14-04-2013 14:00:00 21.44167 C 9.11 g/m*3 21.44 C 13.3 km/h
375 14-04-2013 15:00:00 22.63333 C 9.44 g/m*3 22.63 C 9.95 km/h
Sensor: Nr:Datum:Temp:Abs-Feuchte:Windchill:Wind:
Aussen-T/F 376 14-04-2013 16:00:00 23.29167 C 9.6 g/m*3 23.29 C 10.75833 km/h
377 14-04-2013 17:00:00 23.78333 C 9.51 g/m*3 23.78 C 9.15 km/h
378 14-04-2013 18:00:00 23.8 C 9.41 g/m*3 23.8 C 8.88333 km/h
379 14-04-2013 19:00:00 22.20833 C 9.25 g/m*3 22.21 C 5.9 km/h
380 14-04-2013 20:00:00 17.45833 C 9.78 g/m*3 17.46 C 3.33333 km/h
381 14-04-2013 21:00:00 15.525 C 9.48 g/m*3 15.53 C 4.26667 km/h
382 14-04-2013 22:00:00 14.575 C 9.29 g/m*3 14.58 C 4.13333 km/h
383 14-04-2013 23:00:00 14 C 9.22 g/m*3 14 C 3.6 km/h
384 15-04-2013 00:00:00 13.16667 C 9.13 g/m*3 13.17 C 2.4 km/h
385 15-04-2013 01:00:00 12.54167 C 9.03 g/m*3 12.54 C 1.73333 km/h
386 15-04-2013 02:00:00 11.575 C 8.81 g/m*3 11.58 C 0.4 km/h
387 15-04-2013 03:00:00 10.725 C 8.58 g/m*3 10.73 C 0.26667 km/h
388 15-04-2013 04:00:00 10 C 8.32 g/m*3 10 C 0.26667 km/h
389 15-04-2013 05:00:00 9.04167 C 8.01 g/m*3 9.04 C 0 km/h
390 15-04-2013 06:00:00 8.3 C 7.8 g/m*3 8.3 C 0 km/h
391 15-04-2013 07:00:00 8.09167 C 7.8 g/m*3 8.09 C 0 km/h
392 15-04-2013 08:00:00 8.63333 C 8.1 g/m*3 8.63 C 0 km/h
393 15-04-2013 09:00:00 11.16667 C 9.08 g/m*3 11.17 C 0.13333 km/h
394 15-04-2013 10:00:00 14.88333 C 9.94 g/m*3 14.88 C 0.53333 km/h
395 15-04-2013 11:00:00 19.50833 C 9.74 g/m*3 19.51 C 2.8 km/h
396 15-04-2013 12:00:00 22.2 C 9.62 g/m*3 22.2 C 7.925 km/h
397 15-04-2013 13:00:00 23.25 C 9.28 g/m*3 23.25 C 8.33333 km/h
398 15-04-2013 14:00:00 24.19167 C 9.15 g/m*3 24.19 C 12.63333 km/h
399 15-04-2013 15:00:00 23.24167 C 9.71 g/m*3 23.24 C 14.1 km/h
400 15-04-2013 16:00:00 20.95833 C 10.13 g/m*3 20.96 C 15.03333 km/h
Sensor: Nr:Datum:Temp:Abs-Feuchte:Windchill:Wind:
Aussen-T/F 401 15-04-2013 17:00:00 19.575 C 10.51 g/m*3 19.58 C 7.13333 km/h
402 15-04-2013 18:00:00 19.8 C 10.78 g/m*3 19.8 C 2.66667 km/h
403 15-04-2013 19:00:00 19.025 C 10.76 g/m*3 19.02 C 6.04167 km/h
404 15-04-2013 20:00:00 17.35833 C 10.62 g/m*3 17.36 C 7.51667 km/h
405 15-04-2013 21:00:00 15.76667 C 10.49 g/m*3 15.77 C 2.53333 km/h
406 15-04-2013 22:00:00 14.90833 C 10.53 g/m*3 14.91 C 1.2 km/h
407 15-04-2013 23:00:00 14.6 C 10.5 g/m*3 14.6 C 1.46667 km/h
408 16-04-2013 00:00:00 13.71667 C 10.28 g/m*3 13.72 C 1.86667 km/h
409 16-04-2013 01:00:00 13.15 C 10.18 g/m*3 13.15 C 0.93333 km/h
410 16-04-2013 02:00:00 13.00833 C 10.21 g/m*3 13.01 C 1.06667 km/h
411 16-04-2013 03:00:00 13.10833 C 10.67 g/m*3 13.11 C 2.8 km/h
412 16-04-2013 04:00:00 12.26667 C 10.3 g/m*3 12.27 C 2.53333 km/h
413 16-04-2013 05:00:00 12.00833 C 10.24 g/m*3 12.01 C 0.66667 km/h
414 16-04-2013 06:00:00 11.86667 C 10.17 g/m*3 11.87 C 0.13333 km/h
415 16-04-2013 07:00:00 11.94167 C 10.3 g/m*3 11.94 C 0 km/h
416 16-04-2013 08:00:00 12.38333 C 10.58 g/m*3 12.38 C 0.4 km/h
417 16-04-2013 09:00:00 13.54167 C 11.19 g/m*3 13.54 C 5.08333 km/h
418 16-04-2013 10:00:00 15.225 C 11.48 g/m*3 15.23 C 9.275 km/h
419 16-04-2013 11:00:00 17.29167 C 11.14 g/m*3 17.29 C 11.7 km/h
420 16-04-2013 12:00:00 19.04167 C 9.6 g/m*3 19.04 C 12.5 km/h
421 16-04-2013 13:00:00 19.95833 C 9.28 g/m*3 19.96 C 14.63333 km/h
422 16-04-2013 14:00:00 20.45833 C 9.1 g/m*3 20.46 C 14.23333 km/h
423 16-04-2013 15:00:00 20.98333 C 8.81 g/m*3 20.98 C 15.43333 km/h
424 16-04-2013 16:00:00 20.825 C 7.99 g/m*3 20.83 C 16.76667 km/h
425 16-04-2013 17:00:00 20.23333 C 8.26 g/m*3 20.23 C 12.36667 km/h
Sensor: Nr:Datum:Temp:Abs-Feuchte:Windchill:Wind:
Aussen-T/F 426 16-04-2013 18:00:00 19.73333 C 8.68 g/m*3 19.73 C 9.7 km/h
427 16-04-2013 19:00:00 18.81667 C 8.28 g/m*3 18.82 C 7.91667 km/h
428 16-04-2013 20:00:00 17.6 C 8.51 g/m*3 17.6 C 7.1 km/h
429 16-04-2013 21:00:00 16.30833 C 9.05 g/m*3 16.31 C 4.675 km/h
430 16-04-2013 22:00:00 15.50833 C 8.99 g/m*3 15.51 C 3.86667 km/h
431 16-04-2013 23:00:00 15.31667 C 8.62 g/m*3 15.32 C 3.88333 km/h
432 17-04-2013 00:00:00 14.69167 C 8.61 g/m*3 14.69 C 2.66667 km/h
433 17-04-2013 01:00:00 14.53333 C 8.37 g/m*3 14.53 C 3.2 km/h
434 17-04-2013 02:00:00 13.99167 C 8.78 g/m*3 13.99 C 2.26667 km/h
435 17-04-2013 03:00:00 13.25833 C 8.83 g/m*3 13.26 C 0.13333 km/h
436 17-04-2013 04:00:00 12.775 C 8.58 g/m*3 12.78 C 2.53333 km/h
437 17-04-2013 05:00:00 11.875 C 8.53 g/m*3 11.88 C 0.93333 km/h
438 17-04-2013 06:00:00 12.00833 C 8.43 g/m*3 12.01 C 2.53333 km/h
439 17-04-2013 07:00:00 12.60833 C 8.46 g/m*3 12.61 C 1.6 km/h
440 17-04-2013 08:00:00 13.04167 C 8.68 g/m*3 13.04 C 3.06667 km/h
441 17-04-2013 09:00:00 13.88333 C 8.98 g/m*3 13.88 C 1.46667 km/h
442 17-04-2013 10:00:00 15.16667 C 9.42 g/m*3 15.17 C 1.86667 km/h
443 17-04-2013 11:00:00 17.30833 C 9.57 g/m*3 17.31 C 6.16667 km/h
444 17-04-2013 12:00:00 17.85 C 9.64 g/m*3 17.85 C 5.60833 km/h
445 17-04-2013 13:00:00 20.11667 C 9.58 g/m*3 20.12 C 10.49167 km/h
446 17-04-2013 14:00:00 21.61667 C 9.9 g/m*3 21.62 C 10.36667 km/h
447 17-04-2013 15:00:00 23.3 C 9.36 g/m*3 23.3 C 10.89167 km/h
448 17-04-2013 16:00:00 24.13333 C 9.15 g/m*3 24.13 C 8.75 km/h
449 17-04-2013 17:00:00 24.10833 C 9.1 g/m*3 24.11 C 7.91667 km/h
450 17-04-2013 18:00:00 24.39167 C 9.18 g/m*3 24.39 C 5.075 km/h
Sensor: Nr:Datum:Temp:Abs-Feuchte:Windchill:Wind:
Aussen-T/F 451 17-04-2013 19:00:00 22.35 C 10.35 g/m*3 22.35 C 2.53333 km/h
452 17-04-2013 20:00:00 18.53333 C 10.26 g/m*3 18.53 C 2.93333 km/h
453 17-04-2013 21:00:00 17.28333 C 10.17 g/m*3 17.28 C 3.6 km/h
454 17-04-2013 22:00:00 16.56667 C 10.07 g/m*3 16.57 C 4.53333 km/h
455 17-04-2013 23:00:00 16.00833 C 9.99 g/m*3 16.01 C 3.73333 km/h
456 18-04-2013 00:00:00 15.06667 C 9.82 g/m*3 15.07 C 3.06667 km/h
457 18-04-2013 01:00:00 14.7 C 9.73 g/m*3 14.7 C 3.2 km/h
458 18-04-2013 02:00:00 13.71667 C 9.57 g/m*3 13.72 C 0.93333 km/h
459 18-04-2013 03:00:00 12.925 C 9.37 g/m*3 12.93 C 0.8 km/h
460 18-04-2013 04:00:00 12.575 C 9.33 g/m*3 12.58 C 0.93333 km/h
461 18-04-2013 05:00:00 12.075 C 9.14 g/m*3 12.08 C 0.66667 km/h
462 18-04-2013 06:00:00 12.08333 C 9.24 g/m*3 12.08 C 1.73333 km/h
463 18-04-2013 07:00:00 12.20833 C 9.41 g/m*3 12.21 C 0.4 km/h
464 18-04-2013 08:00:00 13.7 C 9.88 g/m*3 13.7 C 1.6 km/h
465 18-04-2013 09:00:00 15.89167 C 9.9 g/m*3 15.89 C 13.03333 km/h
466 18-04-2013 10:00:00 16.58333 C 10.14 g/m*3 16.58 C 7.25 km/h
467 18-04-2013 11:00:00 17.34167 C 9.01 g/m*3 17.34 C 14.75 km/h
468 18-04-2013 12:00:00 18.31667 C 8.13 g/m*3 18.32 C 15.7 km/h
469 18-04-2013 13:00:00 19.275 C 7.56 g/m*3 19.27 C 18.9 km/h
470 18-04-2013 14:00:00 19.16667 C 7.12 g/m*3 19.17 C 19.16667 km/h
471 18-04-2013 15:00:00 19.46667 C 7.37 g/m*3 19.47 C 16.36667 km/h
472 18-04-2013 16:00:00 20.25 C 5.99 g/m*3 20.25 C 21.56667 km/h
473 18-04-2013 17:00:00 19.83333 C 5.8 g/m*3 19.83 C 18.63333 km/h
474 18-04-2013 18:00:00 18.875 C 5.8 g/m*3 18.88 C 15.7 km/h
475 18-04-2013 19:00:00 17.60833 C 5.64 g/m*3 17.61 C 11.7 km/h
Sensor: Nr:Datum:Temp:Abs-Feuchte:Windchill:Wind:
Aussen-T/F 476 18-04-2013 20:00:00 15.775 C 5.35 g/m*3 15.78 C 9.00833 km/h
477 18-04-2013 21:00:00 13.41667 C 6.01 g/m*3 13.42 C 4 km/h
478 18-04-2013 22:00:00 11.725 C 6.42 g/m*3 11.73 C 3.6 km/h
479 18-04-2013 23:00:00 11.14167 C 6.33 g/m*3 11.14 C 3.46667 km/h
480 19-04-2013 00:00:00 11.41667 C 6.17 g/m*3 11.42 C 2.8 km/h
481 19-04-2013 01:00:00 10.80833 C 6.37 g/m*3 10.81 C 1.46667 km/h
482 19-04-2013 02:00:00 10.28333 C 6.39 g/m*3 10.28 C 1.2 km/h
483 19-04-2013 03:00:00 10.18333 C 6.42 g/m*3 10.18 C 2.4 km/h
484 19-04-2013 04:00:00 10.225 C 6.4 g/m*3 10.23 C 2.93333 km/h
485 19-04-2013 05:00:00 10.10833 C 6.12 g/m*3 9.52 C 6.30833 km/h
486 19-04-2013 06:00:00 9.95 C 5.92 g/m*3 9.45 C 5.875 km/h
487 19-04-2013 07:00:00 9.525 C 5.93 g/m*3 8.78 C 6.575 km/h
488 19-04-2013 08:00:00 9.475 C 5.79 g/m*3 8.13 C 9.28333 km/h
489 19-04-2013 09:00:00 9.88333 C 5.87 g/m*3 8.32 C 11.03333 km/h
490 19-04-2013 10:00:00 10.525 C 5.72 g/m*3 9.05 C 11.29167 km/h
491 19-04-2013 11:00:00 11.29167 C 5.52 g/m*3 11.29 C 9.55 km/h
492 19-04-2013 12:00:00 12.29167 C 5.33 g/m*3 12.29 C 11.29167 km/h
493 19-04-2013 13:00:00 13.26667 C 4.87 g/m*3 13.27 C 10.48333 km/h
494 19-04-2013 14:00:00 14.00833 C 5.16 g/m*3 14.01 C 10.49167 km/h
495 19-04-2013 15:00:00 14.44167 C 5.09 g/m*3 14.44 C 10.36667 km/h
496 19-04-2013 16:00:00 14.29167 C 5.66 g/m*3 14.29 C 12.49167 km/h
497 19-04-2013 17:00:00 14.7 C 5.8 g/m*3 14.7 C 13.3 km/h
498 19-04-2013 18:00:00 14.575 C 5.51 g/m*3 14.58 C 10.09167 km/h
499 19-04-2013 19:00:00 13.53333 C 5.29 g/m*3 13.53 C 9.28333 km/h
500 19-04-2013 20:00:00 12.13333 C 5.39 g/m*3 12.13 C 5.61667 km/h
Sensor: Nr:Datum:Temp:Abs-Feuchte:Windchill:Wind:
Aussen-T/F 501 19-04-2013 21:00:00 10.80833 C 5.7 g/m*3 10.33 C 6.28333 km/h
502 19-04-2013 22:00:00 9.11667 C 6.03 g/m*3 9.12 C 3.2 km/h
503 19-04-2013 23:00:00 8.29167 C 6.16 g/m*3 8.29 C 3.475 km/h
504 20-04-2013 00:00:00 7.6 C 6.25 g/m*3 7.6 C 2.93333 km/h
505 20-04-2013 01:00:00 6.83333 C 6.2 g/m*3 6.83 C 3.73333 km/h
506 20-04-2013 02:00:00 6.54167 C 6.3 g/m*3 6.54 C 2.13333 km/h
507 20-04-2013 03:00:00 6.80833 C 6.42 g/m*3 6.81 C 1.86667 km/h
508 20-04-2013 04:00:00 7.25 C 6.56 g/m*3 7.25 C 1.73333 km/h
509 20-04-2013 05:00:00 7.4 C 6.57 g/m*3 7.4 C 3.46667 km/h
510 20-04-2013 06:00:00 7.3 C 6.55 g/m*3 6.4 C 5.89167 km/h
511 20-04-2013 07:00:00 7.2 C 6.45 g/m*3 5.61 C 8.475 km/h
512 20-04-2013 08:00:00 7.38333 C 6.34 g/m*3 6.19 C 6.98333 km/h
513 20-04-2013 09:00:00 7.975 C 6.27 g/m*3 5.87 C 11.96667 km/h
514 20-04-2013 10:00:00 9.45833 C 6.31 g/m*3 7.58 C 12.5 km/h
515 20-04-2013 11:00:00 11.15 C 5.82 g/m*3 11.15 C 15.43333 km/h
516 20-04-2013 12:00:00 12.64167 C 5.29 g/m*3 12.64 C 16.23333 km/h
517 20-04-2013 13:00:00 13.94167 C 5.12 g/m*3 13.94 C 15.3 km/h
518 20-04-2013 14:00:00 14.03333 C 4.98 g/m*3 14.03 C 14.36667 km/h
519 20-04-2013 15:00:00 14.16667 C 4.96 g/m*3 14.17 C 11.3 km/h
520 20-04-2013 16:00:00 14.09167 C 4.86 g/m*3 14.09 C 13.83333 km/h
521 20-04-2013 17:00:00 13.45833 C 4.93 g/m*3 13.46 C 8.33333 km/h
522 20-04-2013 18:00:00 13.1 C 4.86 g/m*3 13.1 C 12.63333 km/h
523 20-04-2013 19:00:00 12.39167 C 4.78 g/m*3 12.39 C 9.81667 km/h
524 20-04-2013 20:00:00 11.69167 C 4.6 g/m*3 11.69 C 10.63333 km/h
525 20-04-2013 21:00:00 10.81667 C 4.93 g/m*3 10.82 C 3.86667 km/h
Sensor: Nr:Datum:Temp:Abs-Feuchte:Windchill:Wind:
Aussen-T/F 526 20-04-2013 22:00:00 10.425 C 5.13 g/m*3 10.43 C 3.46667 km/h
527 20-04-2013 23:00:00 10.40833 C 5.05 g/m*3 10.41 C 4.95 km/h
528 21-04-2013 00:00:00 10.375 C 4.97 g/m*3 10.38 C 4.69167 km/h
529 21-04-2013 01:00:00 10.1 C 4.9 g/m*3 10.1 C 3.33333 km/h
530 21-04-2013 02:00:00 9.75 C 4.88 g/m*3 9.75 C 4.95 km/h
531 21-04-2013 03:00:00 9.41667 C 4.95 g/m*3 9.42 C 4.95 km/h
532 21-04-2013 04:00:00 9.23333 C 4.99 g/m*3 9.23 C 4.675 km/h
533 21-04-2013 05:00:00 8.90833 C 5.13 g/m*3 8.91 C 0.93333 km/h
534 21-04-2013 06:00:00 8.725 C 5.26 g/m*3 8.73 C 0.8 km/h
535 21-04-2013 07:00:00 8.775 C 5.34 g/m*3 8.78 C 0.8 km/h
536 21-04-2013 08:00:00 9.10833 C 5.7 g/m*3 9.11 C 1.2 km/h
537 21-04-2013 09:00:00 9.43333 C 5.77 g/m*3 9.43 C 3.2 km/h
538 21-04-2013 10:00:00 9.775 C 5.77 g/m*3 9.78 C 2.66667 km/h
539 21-04-2013 11:00:00 10.25833 C 5.72 g/m*3 10.26 C 3.6 km/h
540 21-04-2013 12:00:00 11.41667 C 6.04 g/m*3 11.42 C 3.73333 km/h
541 21-04-2013 13:00:00 12.44167 C 6.16 g/m*3 12.44 C 4.66667 km/h
542 21-04-2013 14:00:00 13.475 C 6.48 g/m*3 13.48 C 5.34167 km/h
543 21-04-2013 15:00:00 13.61667 C 6.65 g/m*3 13.62 C 7.65833 km/h
544 21-04-2013 16:00:00 13.5 C 6.56 g/m*3 13.5 C 5.20833 km/h
545 21-04-2013 17:00:00 13.13333 C 6.56 g/m*3 13.13 C 5.20833 km/h
546 21-04-2013 18:00:00 12.38333 C 6.51 g/m*3 12.38 C 6.15833 km/h
547 21-04-2013 19:00:00 11.71667 C 6.33 g/m*3 11.72 C 5.9 km/h
548 21-04-2013 20:00:00 11.16667 C 6.31 g/m*3 11.17 C 4.15 km/h
549 21-04-2013 21:00:00 10.40833 C 6.64 g/m*3 10.41 C 1.73333 km/h
550 21-04-2013 22:00:00 10.15833 C 6.73 g/m*3 10.16 C 1.46667 km/h
Sensor: Nr:Datum:Temp:Abs-Feuchte:Windchill:Wind:
Aussen-T/F 551 21-04-2013 23:00:00 9.85833 C 6.77 g/m*3 9.86 C 0.4 km/h
552 22-04-2013 00:00:00 9.7 C 6.85 g/m*3 9.7 C 0.26667 km/h
553 22-04-2013 01:00:00 9.68333 C 6.91 g/m*3 9.68 C 0.26667 km/h
554 22-04-2013 02:00:00 9.45 C 6.91 g/m*3 9.45 C 0.4 km/h
555 22-04-2013 03:00:00 9.31667 C 6.88 g/m*3 9.32 C 0.26667 km/h
556 22-04-2013 04:00:00 9.225 C 6.8 g/m*3 9.23 C 1.6 km/h
557 22-04-2013 05:00:00 9.46667 C 6.62 g/m*3 9.47 C 2 km/h
558 22-04-2013 06:00:00 8.94167 C 6.68 g/m*3 8.94 C 1.33333 km/h
559 22-04-2013 07:00:00 9.025 C 6.66 g/m*3 9.03 C 1.46667 km/h
560 22-04-2013 08:00:00 9.34167 C 6.41 g/m*3 9.34 C 3.475 km/h
561 22-04-2013 09:00:00 9.59167 C 6.07 g/m*3 9.07 C 5.74167 km/h
562 22-04-2013 10:00:00 9.9 C 5.87 g/m*3 9.9 C 4.4 km/h
563 22-04-2013 11:00:00 10.76667 C 5.87 g/m*3 10.77 C 3.33333 km/h
564 22-04-2013 12:00:00 13.21667 C 6 g/m*3 13.22 C 5.475 km/h
565 22-04-2013 13:00:00 14.96667 C 6.1 g/m*3 14.97 C 7.65 km/h
566 22-04-2013 14:00:00 16.05 C 6.05 g/m*3 16.05 C 9.28333 km/h
567 22-04-2013 15:00:00 17.15833 C 6.39 g/m*3 17.16 C 6.70833 km/h
568 22-04-2013 16:00:00 18.15 C 6.13 g/m*3 18.15 C 11.69167 km/h
569 22-04-2013 17:00:00 18.43333 C 6.19 g/m*3 18.43 C 11.16667 km/h
570 22-04-2013 18:00:00 18.38333 C 5.68 g/m*3 18.38 C 9.95833 km/h
571 22-04-2013 19:00:00 17.55833 C 5.34 g/m*3 17.56 C 8.475 km/h
572 22-04-2013 20:00:00 13.55 C 5.92 g/m*3 13.55 C 4.4 km/h
573 22-04-2013 21:00:00 11.55833 C 5.98 g/m*3 11.56 C 4.26667 km/h
574 22-04-2013 22:00:00 11.04167 C 6.35 g/m*3 11.04 C 4.00833 km/h
575 22-04-2013 23:00:00 9.9 C 6.36 g/m*3 9.9 C 2.26667 km/h
Sensor: Nr:Datum:Temp:Abs-Feuchte:Windchill:Wind:
Aussen-T/F 576 23-04-2013 00:00:00 9.04167 C 6.25 g/m*3 9.04 C 2.66667 km/h
577 23-04-2013 01:00:00 7.98333 C 5.97 g/m*3 7.98 C 0.8 km/h
578 23-04-2013 02:00:00 7.7 C 5.87 g/m*3 7.7 C 2 km/h
579 23-04-2013 03:00:00 7.94167 C 5.66 g/m*3 7.94 C 3.86667 km/h
580 23-04-2013 04:00:00 7.51667 C 5.68 g/m*3 7.52 C 2.8 km/h
581 23-04-2013 05:00:00 7.35 C 5.53 g/m*3 7.35 C 1.86667 km/h
582 23-04-2013 06:00:00 7.3 C 5.62 g/m*3 7.3 C 4.425 km/h
583 23-04-2013 07:00:00 8.05833 C 5.54 g/m*3 7.01 C 6.84167 km/h
584 23-04-2013 08:00:00 9.16667 C 5.57 g/m*3 7.84 C 8.89167 km/h
585 23-04-2013 09:00:00 10.41667 C 5.72 g/m*3 9.12 C 10.075 km/h
586 23-04-2013 10:00:00 11.98333 C 6.08 g/m*3 11.98 C 11.83333 km/h
587 23-04-2013 11:00:00 13.60833 C 6.35 g/m*3 13.61 C 16.36667 km/h
588 23-04-2013 12:00:00 15.30833 C 6.75 g/m*3 15.31 C 16.63333 km/h
589 23-04-2013 13:00:00 16.75 C 6.97 g/m*3 16.75 C 14.9 km/h
590 23-04-2013 14:00:00 18.05833 C 7.17 g/m*3 18.06 C 16.1 km/h
591 23-04-2013 15:00:00 18.25 C 7.43 g/m*3 18.25 C 14.63333 km/h
592 23-04-2013 16:00:00 17.925 C 7.39 g/m*3 17.93 C 11.96667 km/h
593 23-04-2013 17:00:00 17.44167 C 7.7 g/m*3 17.44 C 9.825 km/h
594 23-04-2013 18:00:00 16.76667 C 8.3 g/m*3 16.77 C 9.66667 km/h
595 23-04-2013 19:00:00 15.8 C 8.68 g/m*3 15.8 C 5.89167 km/h
596 23-04-2013 20:00:00 14.8 C 8.88 g/m*3 14.8 C 1.86667 km/h
597 23-04-2013 21:00:00 14.25 C 8.9 g/m*3 14.25 C 2.26667 km/h
598 23-04-2013 22:00:00 13.81667 C 8.86 g/m*3 13.82 C 1.33333 km/h
599 23-04-2013 23:00:00 12.50833 C 8.67 g/m*3 12.51 C 1.06667 km/h
600 24-04-2013 00:00:00 10.73333 C 8.14 g/m*3 10.73 C 1.46667 km/h
Sensor: Nr:Datum:Temp:Abs-Feuchte:Windchill:Wind:
Aussen-T/F 601 24-04-2013 01:00:00 9.55 C 7.86 g/m*3 9.55 C 0.53333 km/h
602 24-04-2013 02:00:00 8.83333 C 7.65 g/m*3 8.83 C 0.26667 km/h
603 24-04-2013 03:00:00 8.2 C 7.5 g/m*3 8.2 C 0.13333 km/h
604 24-04-2013 04:00:00 7.55833 C 7.33 g/m*3 7.56 C 0.66667 km/h
605 24-04-2013 05:00:00 6.89167 C 7.1 g/m*3 6.89 C 0 km/h
606 24-04-2013 06:00:00 6.39167 C 6.98 g/m*3 6.39 C 0.4 km/h
607 24-04-2013 07:00:00 6.48333 C 7.06 g/m*3 6.48 C 0 km/h
608 24-04-2013 08:00:00 7.38333 C 7.53 g/m*3 7.38 C 0 km/h
609 24-04-2013 09:00:00 9.875 C 8.27 g/m*3 9.88 C 0.13333 km/h
610 24-04-2013 10:00:00 13 C 8.96 g/m*3 13 C 2.94167 km/h
611 24-04-2013 11:00:00 16.6 C 8.7 g/m*3 16.6 C 12.76667 km/h
612 24-04-2013 12:00:00 18.19167 C 8.65 g/m*3 18.19 C 12.5 km/h
613 24-04-2013 13:00:00 19.76667 C 8.69 g/m*3 19.77 C 12.1 km/h
614 24-04-2013 14:00:00 20.88333 C 8.66 g/m*3 20.88 C 11.3 km/h
615 24-04-2013 15:00:00 22.08333 C 8.82 g/m*3 22.08 C 10.09167 km/h
616 24-04-2013 16:00:00 23.04167 C 8.58 g/m*3 23.04 C 12.76667 km/h
617 24-04-2013 17:00:00 23.65833 C 8.54 g/m*3 23.66 C 11.03333 km/h
618 24-04-2013 18:00:00 23.725 C 8.34 g/m*3 23.73 C 11.3 km/h
619 24-04-2013 19:00:00 22.85 C 8.46 g/m*3 22.85 C 8.61667 km/h
620 24-04-2013 20:00:00 18.49167 C 8.97 g/m*3 18.49 C 4.4 km/h
621 24-04-2013 21:00:00 16.59167 C 8.98 g/m*3 16.59 C 4.8 km/h
622 24-04-2013 22:00:00 15.59167 C 9.01 g/m*3 15.59 C 3.06667 km/h
623 24-04-2013 23:00:00 14.09167 C 8.86 g/m*3 14.09 C 0.66667 km/h
624 25-04-2013 00:00:00 12.99167 C 8.7 g/m*3 12.99 C 2 km/h
625 25-04-2013 01:00:00 11.93333 C 8.56 g/m*3 11.93 C 0.93333 km/h
Sensor: Nr:Datum:Temp:Abs-Feuchte:Windchill:Wind:
Aussen-T/F 626 25-04-2013 02:00:00 10.93333 C 8.36 g/m*3 10.93 C 0.66667 km/h
627 25-04-2013 03:00:00 10.375 C 8.27 g/m*3 10.38 C 1.46667 km/h
628 25-04-2013 04:00:00 9.58333 C 8.08 g/m*3 9.58 C 0.53333 km/h
629 25-04-2013 05:00:00 9.30833 C 8.06 g/m*3 9.31 C 1.33333 km/h
630 25-04-2013 06:00:00 8.9 C 7.96 g/m*3 8.9 C 1.06667 km/h
631 25-04-2013 07:00:00 9.41667 C 8.18 g/m*3 9.42 C 2.13333 km/h
632 25-04-2013 08:00:00 10.825 C 8.6 g/m*3 10.83 C 1.46667 km/h
633 25-04-2013 09:00:00 12.79167 C 8.97 g/m*3 12.79 C 1.6 km/h
634 25-04-2013 10:00:00 16.01667 C 9.72 g/m*3 16.02 C 2.8 km/h
635 25-04-2013 11:00:00 19.44167 C 10.48 g/m*3 19.44 C 3.2 km/h
636 25-04-2013 12:00:00 22.325 C 10.78 g/m*3 22.33 C 6.3 km/h
637 25-04-2013 13:00:00 23.76667 C 10.27 g/m*3 23.77 C 6.44167 km/h
638 25-04-2013 14:00:00 25.06667 C 8.97 g/m*3 25.07 C 7.525 km/h
639 25-04-2013 15:00:00 26.2 C 8.51 g/m*3 26.2 C 7.525 km/h
640 25-04-2013 16:00:00 26.325 C 8.66 g/m*3 26.33 C 6.71667 km/h
641 25-04-2013 17:00:00 24.35 C 9.41 g/m*3 24.35 C 3.34167 km/h
642 25-04-2013 18:00:00 26.8 C 8.74 g/m*3 26.8 C 8.05833 km/h
643 25-04-2013 19:00:00 25.96667 C 8.77 g/m*3 25.97 C 7.24167 km/h
644 25-04-2013 20:00:00 21.775 C 9.34 g/m*3 21.78 C 3.2 km/h
645 25-04-2013 21:00:00 18.05 C 9.04 g/m*3 18.05 C 3.46667 km/h
646 25-04-2013 22:00:00 16.55833 C 8.81 g/m*3 16.56 C 1.46667 km/h
647 25-04-2013 23:00:00 15.25 C 8.76 g/m*3 15.25 C 0.26667 km/h
648 26-04-2013 00:00:00 13.78333 C 8.59 g/m*3 13.78 C 0.53333 km/h
649 26-04-2013 01:00:00 12.66667 C 8.64 g/m*3 12.67 C 0.53333 km/h
650 26-04-2013 02:00:00 11.78333 C 8.54 g/m*3 11.78 C 0.13333 km/h
Sensor: Nr:Datum:Temp:Abs-Feuchte:Windchill:Wind:
Aussen-T/F 651 26-04-2013 03:00:00 11.25833 C 8.45 g/m*3 11.26 C 0.66667 km/h
652 26-04-2013 04:00:00 10.50833 C 8.33 g/m*3 10.51 C 0.26667 km/h
653 26-04-2013 05:00:00 9.98333 C 8.23 g/m*3 9.98 C 1.73333 km/h
654 26-04-2013 06:00:00 9.54167 C 8.15 g/m*3 9.54 C 0.8 km/h
655 26-04-2013 07:00:00 9.78333 C 8.31 g/m*3 9.78 C 0.26667 km/h
656 26-04-2013 08:00:00 10.85833 C 8.81 g/m*3 10.86 C 0.8 km/h
657 26-04-2013 09:00:00 14.225 C 9.66 g/m*3 14.23 C 2.4 km/h
658 26-04-2013 10:00:00 16.10833 C 9.92 g/m*3 16.11 C 6.3 km/h
659 26-04-2013 11:00:00 16.825 C 9.95 g/m*3 16.83 C 3.34167 km/h
660 26-04-2013 12:00:00 17.93333 C 10.34 g/m*3 17.93 C 3.86667 km/h
661 26-04-2013 13:00:00 17.75 C 11.16 g/m*3 17.75 C 6.84167 km/h
662 26-04-2013 14:00:00 15.4 C 12.07 g/m*3 15.4 C 0.8 km/h
663 26-04-2013 15:00:00 15.23333 C 11.94 g/m*3 15.23 C 5.09167 km/h
664 26-04-2013 16:00:00 15.10833 C 11.62 g/m*3 15.11 C 9.25833 km/h
665 26-04-2013 17:00:00 14.7 C 11.34 g/m*3 14.7 C 8.45833 km/h
666 26-04-2013 18:00:00 14.10833 C 10.92 g/m*3 14.11 C 11.55 km/h
667 26-04-2013 19:00:00 11.34167 C 9.32 g/m*3 11.34 C 8.875 km/h
668 26-04-2013 20:00:00 9.56667 C 8.41 g/m*3 8.4 C 8.45833 km/h
669 26-04-2013 21:00:00 8.40833 C 7.81 g/m*3 6.98 C 8.74167 km/h
670 26-04-2013 22:00:00 7.9 C 7.58 g/m*3 7.21 C 5.49167 km/h
671 26-04-2013 23:00:00 7.6 C 7.48 g/m*3 6.83 C 5.625 km/h
672 27-04-2013 00:00:00 7.3 C 7.34 g/m*3 6.2 C 6.575 km/h
673 27-04-2013 01:00:00 6.91667 C 7.15 g/m*3 6.92 C 4.94167 km/h
674 27-04-2013 02:00:00 6.675 C 7.1 g/m*3 6.68 C 4.81667 km/h
675 27-04-2013 03:00:00 6.34167 C 6.9 g/m*3 5.3 C 5.89167 km/h
Sensor: Nr:Datum:Temp:Abs-Feuchte:Windchill:Wind:
Aussen-T/F 676 27-04-2013 04:00:00 5.99167 C 6.69 g/m*3 4.73 C 6.43333 km/h
677 27-04-2013 05:00:00 5.49167 C 6.44 g/m*3 4.23 C 6.16667 km/h
678 27-04-2013 06:00:00 5.175 C 6.35 g/m*3 5.18 C 4 km/h
679 27-04-2013 07:00:00 5.19167 C 6.4 g/m*3 5.19 C 1.06667 km/h
680 27-04-2013 08:00:00 5.48333 C 6.53 g/m*3 5.48 C 2.93333 km/h
681 27-04-2013 09:00:00 6.11667 C 6.77 g/m*3 6.12 C 4.80833 km/h
682 27-04-2013 10:00:00 6.75833 C 6.86 g/m*3 5.35 C 7.38333 km/h
683 27-04-2013 11:00:00 7.11667 C 6.78 g/m*3 5.39 C 9.00833 km/h
684 27-04-2013 12:00:00 7.325 C 6.79 g/m*3 5.42 C 10.1 km/h
685 27-04-2013 13:00:00 7.775 C 6.85 g/m*3 5.67 C 11.68333 km/h
686 27-04-2013 14:00:00 7.46667 C 6.77 g/m*3 5.3 C 11.69167 km/h
687 27-04-2013 15:00:00 7.30833 C 6.77 g/m*3 5.04 C 12.1 km/h
688 27-04-2013 16:00:00 7.675 C 6.67 g/m*3 5.57 C 11.56667 km/h
689 27-04-2013 17:00:00 7.68333 C 6.59 g/m*3 5.82 C 10.23333 km/h
690 27-04-2013 18:00:00 7.59167 C 6.66 g/m*3 5.81 C 9.69167 km/h
691 27-04-2013 19:00:00 7.325 C 6.65 g/m*3 5.53 C 9.53333 km/h
692 27-04-2013 20:00:00 7.1 C 6.64 g/m*3 6.01 C 6.43333 km/h
693 27-04-2013 21:00:00 6.91667 C 6.56 g/m*3 5.72 C 6.71667 km/h
694 27-04-2013 22:00:00 6.43333 C 6.65 g/m*3 6.43 C 3.875 km/h
695 27-04-2013 23:00:00 5.875 C 6.66 g/m*3 5.88 C 3.34167 km/h
696 28-04-2013 00:00:00 5.975 C 6.63 g/m*3 5.98 C 3.875 km/h
697 28-04-2013 01:00:00 5.95833 C 6.64 g/m*3 5.96 C 2.26667 km/h
698 28-04-2013 02:00:00 5.9 C 6.62 g/m*3 5.9 C 2.93333 km/h
699 28-04-2013 03:00:00 6.1 C 6.49 g/m*3 6.1 C 4.81667 km/h
700 28-04-2013 04:00:00 6.09167 C 6.28 g/m*3 5.19 C 5.35833 km/h
Sensor: Nr:Datum:Temp:Abs-Feuchte:Windchill:Wind:
Aussen-T/F 701 28-04-2013 05:00:00 5.76667 C 6.18 g/m*3 5.77 C 4.00833 km/h
702 28-04-2013 06:00:00 5.40833 C 5.93 g/m*3 5.41 C 4.54167 km/h
703 28-04-2013 07:00:00 5.20833 C 5.78 g/m*3 3.91 C 6.16667 km/h
704 28-04-2013 08:00:00 5.39167 C 5.83 g/m*3 4.31 C 5.60833 km/h
705 28-04-2013 09:00:00 5.775 C 5.94 g/m*3 4.88 C 5.21667 km/h
706 28-04-2013 10:00:00 6.625 C 6.12 g/m*3 6.63 C 3.33333 km/h
707 28-04-2013 11:00:00 7.79167 C 6.52 g/m*3 7.79 C 4 km/h
708 28-04-2013 12:00:00 8.69167 C 6.76 g/m*3 8.16 C 5.35 km/h
709 28-04-2013 13:00:00 9.24167 C 6.89 g/m*3 8.38 C 6.84167 km/h
710 28-04-2013 14:00:00 10.2 C 6.95 g/m*3 9.07 C 8.875 km/h
711 28-04-2013 15:00:00 10.125 C 6.93 g/m*3 9.72 C 5.60833 km/h
712 28-04-2013 16:00:00 10.05 C 7.05 g/m*3 10.05 C 3.73333 km/h
713 28-04-2013 17:00:00 10.08333 C 7.12 g/m*3 10.08 C 4.13333 km/h
714 28-04-2013 18:00:00 9.6 C 7.18 g/m*3 9.6 C 3.73333 km/h
715 28-04-2013 19:00:00 9.11667 C 7.29 g/m*3 9.12 C 0.53333 km/h
716 28-04-2013 20:00:00 8.55 C 7.42 g/m*3 8.55 C 0.66667 km/h
717 28-04-2013 21:00:00 8.29167 C 7.4 g/m*3 8.29 C 1.33333 km/h
718 28-04-2013 22:00:00 8.025 C 7.46 g/m*3 8.03 C 0.26667 km/h
719 28-04-2013 23:00:00 7.74167 C 7.41 g/m*3 7.74 C 0.26667 km/h
720 29-04-2013 00:00:00 7.55833 C 7.32 g/m*3 7.56 C 1.73333 km/h
721 29-04-2013 01:00:00 7.775 C 7.25 g/m*3 7.78 C 1.2 km/h
722 29-04-2013 02:00:00 7.60833 C 7.25 g/m*3 7.61 C 1.46667 km/h
723 29-04-2013 03:00:00 7.56667 C 7.22 g/m*3 7.57 C 1.2 km/h
724 29-04-2013 04:00:00 7.7 C 7.17 g/m*3 7.7 C 2.4 km/h
725 29-04-2013 05:00:00 7.58333 C 7.12 g/m*3 7.58 C 1.6 km/h
Sensor: Nr:Datum:Temp:Abs-Feuchte:Windchill:Wind:
Aussen-T/F 726 29-04-2013 06:00:00 7.7 C 6.99 g/m*3 7.7 C 3.46667 km/h
727 29-04-2013 07:00:00 7.89167 C 7 g/m*3 6.75 C 7.10833 km/h
728 29-04-2013 08:00:00 8.20833 C 7.05 g/m*3 6.33 C 10.88333 km/h
729 29-04-2013 09:00:00 9.00833 C 7.01 g/m*3 7.58 C 9.26667 km/h
730 29-04-2013 10:00:00 10.3 C 6.58 g/m*3 8.76 C 11.43333 km/h
731 29-04-2013 11:00:00 11.89167 C 6.25 g/m*3 11.89 C 11.83333 km/h
732 29-04-2013 12:00:00 13.08333 C 5.88 g/m*3 13.08 C 15.3 km/h
733 29-04-2013 13:00:00 14.35 C 5.65 g/m*3 14.35 C 16.775 km/h
734 29-04-2013 14:00:00 15.325 C 5.43 g/m*3 15.33 C 15.16667 km/h
735 29-04-2013 15:00:00 16.175 C 5.4 g/m*3 16.18 C 15.7 km/h
736 29-04-2013 16:00:00 16.75 C 5.56 g/m*3 16.75 C 13.56667 km/h
737 29-04-2013 17:00:00 15.825 C 5.49 g/m*3 15.83 C 10.35833 km/h
738 29-04-2013 18:00:00 15.725 C 5.59 g/m*3 15.73 C 10.23333 km/h
739 29-04-2013 19:00:00 14.90833 C 6.24 g/m*3 14.91 C 4.95833 km/h
740 29-04-2013 20:00:00 13.63333 C 5.99 g/m*3 13.63 C 6.15833 km/h
741 29-04-2013 21:00:00 11.725 C 6.91 g/m*3 11.73 C 4.14167 km/h
742 29-04-2013 22:00:00 11.29167 C 6.81 g/m*3 11.29 C 5.10833 km/h
743 29-04-2013 23:00:00 9.25 C 6.98 g/m*3 9.25 C 2.26667 km/h
744 30-04-2013 00:00:00 8.5 C 7.06 g/m*3 8.5 C 2.93333 km/h
745 30-04-2013 01:00:00 7.925 C 6.91 g/m*3 7.93 C 2.4 km/h
746 30-04-2013 02:00:00 7.38333 C 6.86 g/m*3 7.38 C 0.8 km/h
747 30-04-2013 03:00:00 6.89167 C 6.75 g/m*3 6.89 C 0 km/h
748 30-04-2013 04:00:00 6.56667 C 6.74 g/m*3 6.57 C 0 km/h
749 30-04-2013 05:00:00 6.26667 C 6.7 g/m*3 6.27 C 0 km/h
750 30-04-2013 06:00:00 5.98333 C 6.66 g/m*3 5.98 C 0 km/h
Sensor: Nr:Datum:Temp:Abs-Feuchte:Windchill:Wind:
Aussen-T/F 751 30-04-2013 07:00:00 6.69167 C 7 g/m*3 6.69 C 0 km/h
752 30-04-2013 08:00:00 7.68333 C 7.05 g/m*3 7.68 C 0.53333 km/h
753 30-04-2013 09:00:00 8.91667 C 7.18 g/m*3 8.92 C 2.93333 km/h
754 30-04-2013 10:00:00 10.275 C 6.98 g/m*3 10.28 C 3.33333 km/h
755 30-04-2013 11:00:00 11.69167 C 6.29 g/m*3 11.69 C 6.7 km/h
756 30-04-2013 12:00:00 12.44167 C 6.13 g/m*3 12.44 C 8.74167 km/h
757 30-04-2013 13:00:00 13.28333 C 6.19 g/m*3 13.28 C 9.68333 km/h
758 30-04-2013 14:00:00 13.95833 C 6.12 g/m*3 13.96 C 9.275 km/h
759 30-04-2013 15:00:00 13.84167 C 6.12 g/m*3 13.84 C 6.83333 km/h
760 30-04-2013 16:00:00 14.06667 C 6.17 g/m*3 14.07 C 7.13333 km/h
761 30-04-2013 17:00:00 12.66667 C 7.26 g/m*3 12.67 C 2.13333 km/h
762 30-04-2013 18:00:00 10.74167 C 8.05 g/m*3 10.74 C 2.8 km/h
763 30-04-2013 19:00:00 8.9 C 7.93 g/m*3 8.9 C 4 km/h
764 30-04-2013 20:00:00 8.08333 C 7.72 g/m*3 8.08 C 2.26667 km/h
765 30-04-2013 21:00:00 7.74167 C 7.64 g/m*3 7.74 C 1.74167 km/h
766 30-04-2013 22:00:00 7.56667 C 7.6 g/m*3 7.57 C 1.86667 km/h
767 30-04-2013 23:00:00 7.55833 C 7.68 g/m*3 7.56 C 2 km/h
768 01-05-2013 00:00:00 7.7 C 7.78 g/m*3 7.7 C 1.2 km/h
769 01-05-2013 01:00:00 7.65833 C 7.76 g/m*3 7.66 C 1.6 km/h
770 01-05-2013 02:00:00 7.64167 C 7.75 g/m*3 7.64 C 0 km/h
771 01-05-2013 03:00:00 7.69167 C 7.84 g/m*3 7.69 C 1.33333 km/h
772 01-05-2013 04:00:00 7.725 C 7.81 g/m*3 7.73 C 0.53333 km/h
773 01-05-2013 05:00:00 7.73333 C 7.8 g/m*3 7.73 C 1.6 km/h
774 01-05-2013 06:00:00 7.69167 C 7.78 g/m*3 7.69 C 0.66667 km/h
775 01-05-2013 07:00:00 8.025 C 7.95 g/m*3 8.03 C 0.13333 km/h
Sensor: Nr:Datum:Temp:Abs-Feuchte:Windchill:Wind:
Aussen-T/F 776 01-05-2013 08:00:00 8.68333 C 8.09 g/m*3 8.68 C 2.13333 km/h
777 01-05-2013 09:00:00 10.09167 C 8.01 g/m*3 9.71 C 5.5 km/h
778 01-05-2013 10:00:00 10.95 C 8.17 g/m*3 10.59 C 5.88333 km/h
779 01-05-2013 11:00:00 11.91667 C 8.25 g/m*3 11.92 C 7.25833 km/h
780 01-05-2013 12:00:00 13.05 C 8.47 g/m*3 13.05 C 8.19167 km/h
781 01-05-2013 13:00:00 14.89167 C 8.99 g/m*3 14.89 C 9.125 km/h
782 01-05-2013 14:00:00 16.475 C 9.38 g/m*3 16.48 C 10.625 km/h
783 01-05-2013 15:00:00 17.68333 C 9.48 g/m*3 17.68 C 9.8 km/h
784 01-05-2013 16:00:00 17.81667 C 9.32 g/m*3 17.82 C 10.09167 km/h
785 01-05-2013 17:00:00 18.53333 C 9.35 g/m*3 18.53 C 12.23333 km/h
786 01-05-2013 18:00:00 18.05 C 9.14 g/m*3 18.05 C 8.05833 km/h
787 01-05-2013 19:00:00 16.73333 C 9.22 g/m*3 16.73 C 5.76667 km/h
788 01-05-2013 20:00:00 15.19167 C 9.69 g/m*3 15.19 C 1.2 km/h
789 01-05-2013 21:00:00 14.09167 C 9.46 g/m*3 14.09 C 2.675 km/h
790 01-05-2013 22:00:00 14.20833 C 8.58 g/m*3 14.21 C 3.06667 km/h
791 01-05-2013 23:00:00 13.76667 C 8.7 g/m*3 13.77 C 2.93333 km/h
792 02-05-2013 00:00:00 12.76667 C 8.98 g/m*3 12.77 C 0.8 km/h
793 02-05-2013 01:00:00 12.48333 C 8.86 g/m*3 12.48 C 1.33333 km/h
794 02-05-2013 02:00:00 12.01667 C 8.89 g/m*3 12.02 C 0.4 km/h
795 02-05-2013 03:00:00 11.45 C 8.81 g/m*3 11.45 C 0.26667 km/h
796 02-05-2013 04:00:00 11.35 C 8.86 g/m*3 11.35 C 0.26667 km/h
797 02-05-2013 05:00:00 11.225 C 8.89 g/m*3 11.23 C 0.93333 km/h
798 02-05-2013 06:00:00 11.1 C 8.92 g/m*3 11.1 C 0 km/h
799 02-05-2013 07:00:00 11.33333 C 9.13 g/m*3 11.33 C 0 km/h
800 02-05-2013 08:00:00 12.58333 C 9.05 g/m*3 12.58 C 2.66667 km/h
Sensor: Nr:Datum:Temp:Abs-Feuchte:Windchill:Wind:
Aussen-T/F 801 02-05-2013 09:00:00 13.51667 C 9.12 g/m*3 13.52 C 2.13333 km/h
802 02-05-2013 10:00:00 15.00833 C 9.49 g/m*3 15.01 C 6.725 km/h
803 02-05-2013 11:00:00 17.36667 C 9.89 g/m*3 17.37 C 7.53333 km/h
804 02-05-2013 12:00:00 18.63333 C 9.85 g/m*3 18.63 C 6.15 km/h
805 02-05-2013 13:00:00 19.36667 C 9.57 g/m*3 19.37 C 7.8 km/h
806 02-05-2013 14:00:00 19.85833 C 9.28 g/m*3 19.86 C 7.11667 km/h
807 02-05-2013 15:00:00 21.13333 C 9.63 g/m*3 21.13 C 9.28333 km/h
808 02-05-2013 16:00:00 21.31667 C 9.62 g/m*3 21.32 C 11.29167 km/h
809 02-05-2013 17:00:00 20.125 C 9.47 g/m*3 20.13 C 11.15 km/h
810 02-05-2013 18:00:00 20.09167 C 9.54 g/m*3 20.09 C 8.725 km/h
811 02-05-2013 19:00:00 18.5 C 9.27 g/m*3 18.5 C 8.60833 km/h
812 02-05-2013 20:00:00 16.08333 C 8.95 g/m*3 16.08 C 7.10833 km/h
813 02-05-2013 21:00:00 14.125 C 8.67 g/m*3 14.13 C 4.55 km/h
814 02-05-2013 22:00:00 13.025 C 8.62 g/m*3 13.03 C 2.275 km/h
815 02-05-2013 23:00:00 11.89167 C 8.65 g/m*3 11.89 C 0.4 km/h
816 03-05-2013 00:00:00 11.5 C 8.56 g/m*3 11.5 C 0.53333 km/h
817 03-05-2013 01:00:00 11.21667 C 8.59 g/m*3 11.22 C 0.26667 km/h
818 03-05-2013 02:00:00 11.09167 C 8.62 g/m*3 11.09 C 0 km/h
819 03-05-2013 03:00:00 10.90833 C 8.65 g/m*3 10.91 C 0 km/h
820 03-05-2013 04:00:00 10.825 C 8.7 g/m*3 10.83 C 0.13333 km/h
821 03-05-2013 05:00:00 10.8 C 8.76 g/m*3 10.8 C 0.4 km/h
822 03-05-2013 06:00:00 10.65833 C 8.9 g/m*3 10.66 C 0 km/h
823 03-05-2013 07:00:00 10.74167 C 9.05 g/m*3 10.74 C 0 km/h
824 03-05-2013 08:00:00 11.43333 C 9.11 g/m*3 11.43 C 1.33333 km/h
825 03-05-2013 09:00:00 12.775 C 9.2 g/m*3 12.78 C 2.13333 km/h
Sensor: Nr:Datum:Temp:Abs-Feuchte:Windchill:Wind:
Aussen-T/F 826 03-05-2013 10:00:00 14.175 C 9.47 g/m*3 14.18 C 5.21667 km/h
827 03-05-2013 11:00:00 15.475 C 9.55 g/m*3 15.48 C 6.975 km/h
828 03-05-2013 12:00:00 16.63333 C 9.55 g/m*3 16.63 C 6.70833 km/h
829 03-05-2013 13:00:00 17.575 C 9.58 g/m*3 17.58 C 7.10833 km/h
830 03-05-2013 14:00:00 17.99167 C 9.52 g/m*3 17.99 C 4.94167 km/h
831 03-05-2013 15:00:00 18.29167 C 9.29 g/m*3 18.29 C 3.34167 km/h
832 03-05-2013 16:00:00 18.7 C 9.23 g/m*3 18.7 C 5.63333 km/h
833 03-05-2013 17:00:00 18.7 C 9.18 g/m*3 18.7 C 3.46667 km/h
834 03-05-2013 18:00:00 18.65 C 9.44 g/m*3 18.65 C 2 km/h
835 03-05-2013 19:00:00 16.95833 C 10.48 g/m*3 16.96 C 1.73333 km/h
836 03-05-2013 20:00:00 15.13333 C 10.32 g/m*3 15.13 C 1.46667 km/h
837 03-05-2013 21:00:00 14.56667 C 10.02 g/m*3 14.57 C 2 km/h
838 03-05-2013 22:00:00 14.21667 C 10.04 g/m*3 14.22 C 1.06667 km/h
839 03-05-2013 23:00:00 13.71667 C 9.75 g/m*3 13.72 C 2.53333 km/h
840 04-05-2013 00:00:00 12.75 C 9.37 g/m*3 12.75 C 1.46667 km/h
841 04-05-2013 01:00:00 12.025 C 9.06 g/m*3 12.03 C 0.53333 km/h
842 04-05-2013 02:00:00 11.375 C 8.93 g/m*3 11.38 C 0.13333 km/h
843 04-05-2013 03:00:00 11.65 C 9.2 g/m*3 11.65 C 0 km/h
844 04-05-2013 04:00:00 11.7 C 9.28 g/m*3 11.7 C 0.13333 km/h
845 04-05-2013 05:00:00 11.575 C 9.33 g/m*3 11.58 C 0 km/h
846 04-05-2013 06:00:00 11.6 C 8.99 g/m*3 11.6 C 0.93333 km/h
847 04-05-2013 07:00:00 11.75833 C 8.5 g/m*3 11.76 C 1.73333 km/h
848 04-05-2013 08:00:00 11.45 C 8.12 g/m*3 11.45 C 4.14167 km/h
849 04-05-2013 09:00:00 11.98333 C 8.01 g/m*3 11.98 C 6.15833 km/h
850 04-05-2013 10:00:00 13.21667 C 8.24 g/m*3 13.22 C 5.075 km/h
Sensor: Nr:Datum:Temp:Abs-Feuchte:Windchill:Wind:
Aussen-T/F 851 04-05-2013 11:00:00 15.625 C 8.82 g/m*3 15.63 C 4.53333 km/h
852 04-05-2013 12:00:00 17.09167 C 8.95 g/m*3 17.09 C 5.20833 km/h
853 04-05-2013 13:00:00 19.025 C 8.74 g/m*3 19.02 C 7.93333 km/h
854 04-05-2013 14:00:00 19.3 C 8.57 g/m*3 19.3 C 5.21667 km/h
855 04-05-2013 15:00:00 20.90833 C 8.58 g/m*3 20.91 C 7.39167 km/h
856 04-05-2013 16:00:00 20.59167 C 8.3 g/m*3 20.59 C 4.13333 km/h
857 04-05-2013 17:00:00 21.76667 C 8.49 g/m*3 21.77 C 6.025 km/h
858 04-05-2013 18:00:00 21.89167 C 8.1 g/m*3 21.89 C 6.00833 km/h
859 04-05-2013 19:00:00 20.70833 C 8.07 g/m*3 20.71 C 4.81667 km/h
860 04-05-2013 20:00:00 17.59167 C 8.82 g/m*3 17.59 C 2.8 km/h
861 04-05-2013 21:00:00 14.925 C 8.55 g/m*3 14.93 C 2.93333 km/h
862 04-05-2013 22:00:00 13.20833 C 8.33 g/m*3 13.21 C 2.8 km/h
863 04-05-2013 23:00:00 13.60833 C 8.21 g/m*3 13.61 C 6.30833 km/h
864 05-05-2013 00:00:00 11.86667 C 7.99 g/m*3 11.87 C 1.6 km/h
865 05-05-2013 01:00:00 10.60833 C 7.84 g/m*3 10.61 C 1.2 km/h
866 05-05-2013 02:00:00 9.99167 C 7.78 g/m*3 9.99 C 1.6 km/h
867 05-05-2013 03:00:00 9 C 7.52 g/m*3 9 C 0.93333 km/h
868 05-05-2013 04:00:00 7.8 C 7.27 g/m*3 7.8 C 0.13333 km/h
869 05-05-2013 05:00:00 7.125 C 7.13 g/m*3 7.13 C 0 km/h
870 05-05-2013 06:00:00 6.8 C 7.07 g/m*3 6.8 C 0.66667 km/h
871 05-05-2013 07:00:00 6.95833 C 7.19 g/m*3 6.96 C 0.4 km/h
872 05-05-2013 08:00:00 8.03333 C 7.62 g/m*3 8.03 C 0 km/h
873 05-05-2013 09:00:00 10.15 C 8.24 g/m*3 10.15 C 0.13333 km/h
874 05-05-2013 10:00:00 12.9 C 8.42 g/m*3 12.9 C 2.26667 km/h
875 05-05-2013 11:00:00 16.76667 C 8.74 g/m*3 16.77 C 5.5 km/h
Sensor: Nr:Datum:Temp:Abs-Feuchte:Windchill:Wind:
Aussen-T/F 876 05-05-2013 12:00:00 18.8 C 8.95 g/m*3 18.8 C 5.89167 km/h
877 05-05-2013 13:00:00 20.58333 C 9.07 g/m*3 20.58 C 6.98333 km/h
878 05-05-2013 14:00:00 21.50833 C 8.41 g/m*3 21.51 C 6.98333 km/h
879 05-05-2013 15:00:00 22.625 C 8.03 g/m*3 22.63 C 8.325 km/h
880 05-05-2013 16:00:00 23.34167 C 8.02 g/m*3 23.34 C 7.925 km/h
881 05-05-2013 17:00:00 23.70833 C 7.74 g/m*3 23.71 C 6.28333 km/h
882 05-05-2013 18:00:00 23.53333 C 7.27 g/m*3 23.53 C 5.2 km/h
883 05-05-2013 19:00:00 22.74167 C 7.24 g/m*3 22.74 C 4.28333 km/h
884 05-05-2013 20:00:00 18.19167 C 8.64 g/m*3 18.19 C 2.4 km/h
885 05-05-2013 21:00:00 14.775 C 8.47 g/m*3 14.78 C 3.06667 km/h
886 05-05-2013 22:00:00 13.31667 C 8.35 g/m*3 13.32 C 0.53333 km/h
887 05-05-2013 23:00:00 12.025 C 7.97 g/m*3 12.03 C 0.53333 km/h
888 06-05-2013 00:00:00 10.84167 C 7.85 g/m*3 10.84 C 0.26667 km/h
889 06-05-2013 01:00:00 9.975 C 7.79 g/m*3 9.98 C 0 km/h
890 06-05-2013 02:00:00 9.23333 C 7.75 g/m*3 9.23 C 0 km/h
891 06-05-2013 03:00:00 8.98333 C 7.79 g/m*3 8.98 C 0.13333 km/h
892 06-05-2013 04:00:00 8.35833 C 7.63 g/m*3 8.36 C 0 km/h
893 06-05-2013 05:00:00 7.65833 C 7.44 g/m*3 7.66 C 0 km/h
894 06-05-2013 06:00:00 7.31667 C 7.41 g/m*3 7.32 C 0 km/h
895 06-05-2013 07:00:00 7.68333 C 7.61 g/m*3 7.68 C 0 km/h
896 06-05-2013 08:00:00 8.925 C 8.22 g/m*3 8.93 C 0 km/h
897 06-05-2013 09:00:00 11.075 C 8.93 g/m*3 11.08 C 0.13333 km/h
898 06-05-2013 10:00:00 14.31667 C 9.89 g/m*3 14.32 C 1.2 km/h
899 06-05-2013 11:00:00 19.41667 C 10.24 g/m*3 19.42 C 3.73333 km/h
900 06-05-2013 12:00:00 21.95 C 9 g/m*3 21.95 C 8.6 km/h
Sensor: Nr:Datum:Temp:Abs-Feuchte:Windchill:Wind:
Aussen-T/F 901 06-05-2013 13:00:00 23.10833 C 8.96 g/m*3 23.11 C 8.33333 km/h
902 06-05-2013 14:00:00 24.20833 C 8.99 g/m*3 24.21 C 9.825 km/h
903 06-05-2013 15:00:00 24.14167 C 8.88 g/m*3 24.14 C 9.40833 km/h
904 06-05-2013 16:00:00 24.90833 C 8.63 g/m*3 24.91 C 9.41667 km/h
905 06-05-2013 17:00:00 24.425 C 8.52 g/m*3 24.43 C 6.45 km/h
906 06-05-2013 18:00:00 23.83333 C 9.5 g/m*3 23.83 C 3.33333 km/h
907 06-05-2013 19:00:00 19.16667 C 10.55 g/m*3 19.17 C 2.66667 km/h
908 06-05-2013 20:00:00 17.06667 C 10.19 g/m*3 17.07 C 2.93333 km/h
909 06-05-2013 21:00:00 15.86667 C 9.87 g/m*3 15.87 C 0.93333 km/h
910 06-05-2013 22:00:00 14.875 C 9.59 g/m*3 14.88 C 0.4 km/h
911 06-05-2013 23:00:00 13.925 C 9.43 g/m*3 13.93 C 0 km/h
912 07-05-2013 00:00:00 13 C 9.36 g/m*3 13 C 0 km/h
913 07-05-2013 01:00:00 12.24167 C 9.27 g/m*3 12.24 C 0.13333 km/h
914 07-05-2013 02:00:00 11.75833 C 9.21 g/m*3 11.76 C 0 km/h
915 07-05-2013 03:00:00 11.35 C 9.21 g/m*3 11.35 C 0 km/h
916 07-05-2013 04:00:00 11.375 C 9.27 g/m*3 11.38 C 0.13333 km/h
917 07-05-2013 05:00:00 11.075 C 9.21 g/m*3 11.08 C 0.4 km/h
918 07-05-2013 06:00:00 11.05 C 9.28 g/m*3 11.05 C 0 km/h
919 07-05-2013 07:00:00 11.875 C 9.69 g/m*3 11.88 C 0 km/h
920 07-05-2013 08:00:00 13.375 C 10.08 g/m*3 13.38 C 0.4 km/h
921 07-05-2013 09:00:00 15.01667 C 10.61 g/m*3 15.02 C 2.26667 km/h
922 07-05-2013 10:00:00 17.34167 C 11.26 g/m*3 17.34 C 3.06667 km/h
923 07-05-2013 11:00:00 16.86667 C 11.26 g/m*3 16.87 C 3.2 km/h
924 07-05-2013 12:00:00 15.2 C 11.7 g/m*3 15.2 C 0.4 km/h
925 07-05-2013 13:00:00 13.88333 C 11.2 g/m*3 13.88 C 2.00833 km/h
Sensor: Nr:Datum:Temp:Abs-Feuchte:Windchill:Wind:
Aussen-T/F 926 07-05-2013 14:00:00 14.3 C 11.51 g/m*3 14.3 C 4.40833 km/h
927 07-05-2013 15:00:00 15.6 C 12.05 g/m*3 15.6 C 3.875 km/h
928 07-05-2013 16:00:00 17.98333 C 12.62 g/m*3 17.98 C 7.36667 km/h
929 07-05-2013 17:00:00 19.15833 C 12.35 g/m*3 19.16 C 8.60833 km/h
930 07-05-2013 18:00:00 20.3 C 11.81 g/m*3 20.3 C 8.06667 km/h
931 07-05-2013 19:00:00 19.125 C 12.01 g/m*3 19.13 C 4.55833 km/h
932 07-05-2013 20:00:00 15.94167 C 11.94 g/m*3 15.94 C 2 km/h
933 07-05-2013 21:00:00 13.875 C 11.05 g/m*3 13.88 C 2.4 km/h
934 07-05-2013 22:00:00 13.075 C 10.64 g/m*3 13.08 C 0 km/h
935 07-05-2013 23:00:00 12.68333 C 10.5 g/m*3 12.68 C 0 km/h
936 08-05-2013 00:00:00 11.79167 C 9.93 g/m*3 11.79 C 0 km/h
937 08-05-2013 01:00:00 10.93333 C 9.49 g/m*3 10.93 C 0 km/h
938 08-05-2013 02:00:00 10.7 C 9.43 g/m*3 10.7 C 0.26667 km/h
939 08-05-2013 03:00:00 10.76667 C 9.47 g/m*3 10.77 C 0.26667 km/h
940 08-05-2013 04:00:00 10.71667 C 9.5 g/m*3 10.72 C 0 km/h
941 08-05-2013 05:00:00 10.88333 C 9.64 g/m*3 10.88 C 0 km/h
942 08-05-2013 06:00:00 10.71667 C 9.52 g/m*3 10.72 C 0 km/h
943 08-05-2013 07:00:00 10.74167 C 9.55 g/m*3 10.74 C 0 km/h
944 08-05-2013 08:00:00 11.825 C 10.23 g/m*3 11.83 C 0 km/h
945 08-05-2013 09:00:00 15.075 C 11.36 g/m*3 15.08 C 2.53333 km/h
946 08-05-2013 10:00:00 16.66667 C 10.86 g/m*3 16.67 C 8.06667 km/h
947 08-05-2013 11:00:00 17.43333 C 10.95 g/m*3 17.43 C 8.73333 km/h
948 08-05-2013 12:00:00 20 C 10.93 g/m*3 20 C 12.76667 km/h
949 08-05-2013 13:00:00 21.15833 C 10.77 g/m*3 21.16 C 14.36667 km/h
950 08-05-2013 14:00:00 21.625 C 10.32 g/m*3 21.63 C 9.95833 km/h
Sensor: Nr:Datum:Temp:Abs-Feuchte:Windchill:Wind:
Aussen-T/F 951 08-05-2013 15:00:00 22.54167 C 9.81 g/m*3 22.54 C 8.45 km/h
952 08-05-2013 16:00:00 21.81667 C 10.47 g/m*3 21.82 C 5.48333 km/h
953 08-05-2013 17:00:00 19.125 C 11.96 g/m*3 19.13 C 2 km/h
954 08-05-2013 18:00:00 19.725 C 11.76 g/m*3 19.73 C 2.26667 km/h
955 08-05-2013 19:00:00 17.99167 C 11.87 g/m*3 17.99 C 1.73333 km/h
956 08-05-2013 20:00:00 17.5 C 11.32 g/m*3 17.5 C 6.84167 km/h
957 08-05-2013 21:00:00 16.73333 C 11.58 g/m*3 16.73 C 3.06667 km/h
958 08-05-2013 22:00:00 15.41667 C 11.49 g/m*3 15.42 C 0.13333 km/h
959 08-05-2013 23:00:00 14.69167 C 11.25 g/m*3 14.69 C 0.26667 km/h
960 09-05-2013 00:00:00 14.25 C 11.06 g/m*3 14.25 C 0.13333 km/h
961 09-05-2013 01:00:00 14.275 C 11.22 g/m*3 14.28 C 0.8 km/h
962 09-05-2013 02:00:00 14.625 C 11.18 g/m*3 14.63 C 2.53333 km/h
963 09-05-2013 03:00:00 14.125 C 11.05 g/m*3 14.13 C 1.46667 km/h
964 09-05-2013 04:00:00 13.80833 C 10.85 g/m*3 13.81 C 2.93333 km/h
965 09-05-2013 05:00:00 13.95 C 10.92 g/m*3 13.95 C 1.06667 km/h
966 09-05-2013 06:00:00 12.975 C 10.42 g/m*3 12.98 C 0.13333 km/h
967 09-05-2013 07:00:00 13.34167 C 10.49 g/m*3 13.34 C 1.33333 km/h
968 09-05-2013 08:00:00 15.025 C 10.79 g/m*3 15.03 C 4.95 km/h
969 09-05-2013 09:00:00 16.01667 C 10.99 g/m*3 16.02 C 6.70833 km/h
970 09-05-2013 10:00:00 17.74167 C 11.24 g/m*3 17.74 C 10.475 km/h
971 09-05-2013 11:00:00 17.93333 C 11.19 g/m*3 17.93 C 10.21667 km/h
972 09-05-2013 12:00:00 17.43333 C 11.87 g/m*3 17.43 C 9.675 km/h
973 09-05-2013 13:00:00 18.65833 C 11.75 g/m*3 18.66 C 10.475 km/h
974 09-05-2013 14:00:00 17.69167 C 11.67 g/m*3 17.69 C 4.80833 km/h
975 09-05-2013 15:00:00 18.525 C 10.87 g/m*3 18.52 C 9.81667 km/h
Sensor: Nr:Datum:Temp:Abs-Feuchte:Windchill:Wind:
Aussen-T/F 976 09-05-2013 16:00:00 19.54167 C 10.54 g/m*3 19.54 C 12.36667 km/h
977 09-05-2013 17:00:00 20.025 C 10.31 g/m*3 20.02 C 10.89167 km/h
978 09-05-2013 18:00:00 19.03333 C 10.18 g/m*3 19.03 C 8.2 km/h
979 09-05-2013 19:00:00 18.31667 C 10.73 g/m*3 18.32 C 3.88333 km/h
980 09-05-2013 20:00:00 17.14167 C 10.73 g/m*3 17.14 C 2.4 km/h
981 09-05-2013 21:00:00 14.81667 C 10.4 g/m*3 14.82 C 1.33333 km/h
982 09-05-2013 22:00:00 14.09167 C 10.2 g/m*3 14.09 C 1.73333 km/h
983 09-05-2013 23:00:00 14.41667 C 8.88 g/m*3 14.42 C 6.84167 km/h
984 10-05-2013 00:00:00 13.725 C 8.2 g/m*3 13.73 C 5.49167 km/h
985 10-05-2013 01:00:00 12.83333 C 8.31 g/m*3 12.83 C 0.8 km/h
986 10-05-2013 02:00:00 12.075 C 8.28 g/m*3 12.08 C 0.93333 km/h
987 10-05-2013 03:00:00 11.24167 C 8.17 g/m*3 11.24 C 1.73333 km/h
988 10-05-2013 04:00:00 10.63333 C 7.96 g/m*3 10.63 C 1.86667 km/h
989 10-05-2013 05:00:00 10.025 C 7.74 g/m*3 10.03 C 2.4 km/h
990 10-05-2013 06:00:00 9.19167 C 7.62 g/m*3 9.19 C 1.73333 km/h
991 10-05-2013 07:00:00 9.325 C 7.84 g/m*3 9.32 C 2.675 km/h
992 10-05-2013 08:00:00 10.90833 C 8.03 g/m*3 10.69 C 5.34167 km/h
993 10-05-2013 09:00:00 12.14167 C 7.85 g/m*3 12.14 C 10.075 km/h
994 10-05-2013 10:00:00 13.975 C 7.59 g/m*3 13.98 C 14.23333 km/h
995 10-05-2013 11:00:00 16.06667 C 7.44 g/m*3 16.07 C 17.96667 km/h
996 10-05-2013 12:00:00 17.03333 C 7.7 g/m*3 17.03 C 16.23333 km/h
997 10-05-2013 13:00:00 16.55833 C 7.77 g/m*3 16.56 C 13.83333 km/h
998 10-05-2013 14:00:00 16.39167 C 7.79 g/m*3 16.39 C 12.89167 km/h
999 10-05-2013 15:00:00 15.85 C 8.09 g/m*3 15.85 C 10.08333 km/h
1000 10-05-2013 16:00:00 15.46667 C 8.16 g/m*3 15.47 C 9.675 km/h
Sensor: Nr:Datum:Temp:Abs-Feuchte:Windchill:Wind:
Aussen-T/F 1001 10-05-2013 17:00:00 15.15833 C 8.03 g/m*3 15.16 C 9.55 km/h
1002 10-05-2013 18:00:00 14.3 C 8.15 g/m*3 14.3 C 5.89167 km/h
1003 10-05-2013 19:00:00 14.51667 C 8.26 g/m*3 14.52 C 6.85 km/h
1004 10-05-2013 20:00:00 13.69167 C 8.3 g/m*3 13.69 C 4.95 km/h
1005 10-05-2013 21:00:00 12.95833 C 8.4 g/m*3 12.96 C 2.13333 km/h
1006 10-05-2013 22:00:00 12.25 C 8.66 g/m*3 12.25 C 0.53333 km/h
1007 10-05-2013 23:00:00 12.59167 C 8.45 g/m*3 12.59 C 5.49167 km/h
1008 11-05-2013 00:00:00 12.45833 C 8.51 g/m*3 12.46 C 0.8 km/h
1009 11-05-2013 01:00:00 11.625 C 8.72 g/m*3 11.63 C 0.26667 km/h
1010 11-05-2013 02:00:00 11.54167 C 8.8 g/m*3 11.54 C 0.13333 km/h
1011 11-05-2013 03:00:00 11.40833 C 8.75 g/m*3 11.41 C 0.53333 km/h
1012 11-05-2013 04:00:00 11.29167 C 8.81 g/m*3 11.29 C 0.4 km/h
1013 11-05-2013 05:00:00 11.01667 C 8.82 g/m*3 11.02 C 0.13333 km/h
1014 11-05-2013 06:00:00 10.71667 C 8.83 g/m*3 10.72 C 0 km/h
1015 11-05-2013 07:00:00 11.175 C 8.95 g/m*3 11.18 C 0.93333 km/h
1016 11-05-2013 08:00:00 11.98333 C 9.14 g/m*3 11.98 C 3.2 km/h
1017 11-05-2013 09:00:00 12.775 C 9.16 g/m*3 12.78 C 5.76667 km/h
1018 11-05-2013 10:00:00 12.075 C 9.4 g/m*3 12.08 C 1.86667 km/h
1019 11-05-2013 11:00:00 13.15 C 9.84 g/m*3 13.15 C 5.75833 km/h
1020 11-05-2013 12:00:00 14.09167 C 9.45 g/m*3 14.09 C 10.75 km/h
1021 11-05-2013 13:00:00 14.96667 C 9.03 g/m*3 14.97 C 13.83333 km/h
1022 11-05-2013 14:00:00 16.24167 C 8.71 g/m*3 16.24 C 16.50833 km/h
1023 11-05-2013 15:00:00 16.26667 C 8.33 g/m*3 16.27 C 17.56667 km/h
1024 11-05-2013 16:00:00 15.175 C 8.96 g/m*3 15.18 C 14.63333 km/h
1025 11-05-2013 17:00:00 15.01667 C 8.77 g/m*3 15.02 C 14.9 km/h
Sensor: Nr:Datum:Temp:Abs-Feuchte:Windchill:Wind:
Aussen-T/F 1026 11-05-2013 18:00:00 13.84167 C 8.74 g/m*3 13.84 C 6.575 km/h
1027 11-05-2013 19:00:00 14.125 C 8.9 g/m*3 14.13 C 3.75 km/h
1028 11-05-2013 20:00:00 12.45 C 9.06 g/m*3 12.45 C 1.6 km/h
1029 11-05-2013 21:00:00 11.44167 C 8.35 g/m*3 11.44 C 3.46667 km/h
1030 11-05-2013 22:00:00 10.85833 C 8.39 g/m*3 10.86 C 0.53333 km/h
1031 11-05-2013 23:00:00 9.69167 C 8.21 g/m*3 9.69 C 0.4 km/h
1032 12-05-2013 00:00:00 9.60833 C 8.3 g/m*3 9.61 C 0.13333 km/h
1033 12-05-2013 01:00:00 9.775 C 8.36 g/m*3 9.78 C 0 km/h
1034 12-05-2013 02:00:00 9.91667 C 8.4 g/m*3 9.92 C 0.80833 km/h
1035 12-05-2013 03:00:00 9.575 C 8.6 g/m*3 9.57 C 0.66667 km/h
1036 12-05-2013 04:00:00 9 C 8.18 g/m*3 8.47 C 5.5 km/h
1037 12-05-2013 05:00:00 8.05 C 7.78 g/m*3 8.05 C 2 km/h
1038 12-05-2013 06:00:00 7.53333 C 7.5 g/m*3 7.53 C 3.60833 km/h
1039 12-05-2013 07:00:00 7.1 C 7.17 g/m*3 7.1 C 2.13333 km/h
1040 12-05-2013 08:00:00 7.51667 C 7.32 g/m*3 6.91 C 5.08333 km/h
1041 12-05-2013 09:00:00 8.875 C 7.59 g/m*3 7.59 C 8.46667 km/h
1042 12-05-2013 10:00:00 9.95833 C 6.99 g/m*3 7.87 C 14.9 km/h
1043 12-05-2013 11:00:00 11.125 C 6.77 g/m*3 11.13 C 13.56667 km/h
1044 12-05-2013 12:00:00 11.98333 C 6.34 g/m*3 11.98 C 12.61667 km/h
1045 12-05-2013 13:00:00 10.70833 C 7.14 g/m*3 9.32 C 11 km/h
1046 12-05-2013 14:00:00 10.80833 C 7.47 g/m*3 9.67 C 9.54167 km/h
1047 12-05-2013 15:00:00 8.61667 C 7.32 g/m*3 7.59 C 7.09167 km/h
1048 12-05-2013 16:00:00 9.275 C 8.3 g/m*3 9.28 C 2.4 km/h
1049 12-05-2013 17:00:00 10.80833 C 8.97 g/m*3 10.81 C 1.2 km/h
1050 12-05-2013 18:00:00 12.46667 C 9.49 g/m*3 12.47 C 2.13333 km/h
Sensor: Nr:Datum:Temp:Abs-Feuchte:Windchill:Wind:
Aussen-T/F 1051 12-05-2013 19:00:00 10.31667 C 8.92 g/m*3 10.32 C 2 km/h
1052 12-05-2013 20:00:00 9.24167 C 8.4 g/m*3 9.24 C 1.33333 km/h
1053 12-05-2013 21:00:00 8.6 C 8.16 g/m*3 8.6 C 0.93333 km/h
1054 12-05-2013 22:00:00 8.16667 C 8.02 g/m*3 8.17 C 0 km/h
1055 12-05-2013 23:00:00 7.675 C 7.77 g/m*3 7.68 C 0.13333 km/h
1056 13-05-2013 00:00:00 7.26667 C 7.57 g/m*3 7.27 C 0.13333 km/h
1057 13-05-2013 01:00:00 7.28333 C 7.58 g/m*3 7.28 C 0.26667 km/h
1058 13-05-2013 02:00:00 7.41667 C 7.64 g/m*3 7.42 C 0.26667 km/h
1059 13-05-2013 03:00:00 7.625 C 7.75 g/m*3 7.63 C 0.8 km/h
1060 13-05-2013 04:00:00 7.725 C 7.8 g/m*3 7.73 C 2.13333 km/h
1061 13-05-2013 05:00:00 7.95833 C 7.89 g/m*3 7.96 C 3.475 km/h
1062 13-05-2013 06:00:00 8.45 C 7.99 g/m*3 7.12 C 8.30833 km/h
1063 13-05-2013 07:00:00 8.95833 C 8.1 g/m*3 7.21 C 11.03333 km/h
1064 13-05-2013 08:00:00 9.44167 C 8.32 g/m*3 8.02 C 9.675 km/h
1065 13-05-2013 09:00:00 10.025 C 8.6 g/m*3 9.05 C 7.925 km/h
1066 13-05-2013 10:00:00 10.78333 C 8.98 g/m*3 10.54 C 5.35 km/h
1067 13-05-2013 11:00:00 12.275 C 9.53 g/m*3 12.28 C 10.625 km/h
1068 13-05-2013 12:00:00 13.5 C 9.84 g/m*3 13.5 C 12.9 km/h
1069 13-05-2013 13:00:00 14.49167 C 10.1 g/m*3 14.49 C 14.76667 km/h
1070 13-05-2013 14:00:00 15.13333 C 9.51 g/m*3 15.13 C 13.025 km/h
1071 13-05-2013 15:00:00 13.83333 C 9.83 g/m*3 13.83 C 9.93333 km/h
1072 13-05-2013 16:00:00 13.33333 C 9.79 g/m*3 13.33 C 5.09167 km/h
1073 13-05-2013 17:00:00 14.11667 C 9.6 g/m*3 14.12 C 10.08333 km/h
1074 13-05-2013 18:00:00 14.675 C 9.55 g/m*3 14.68 C 14.63333 km/h
1075 13-05-2013 19:00:00 14.45 C 9.49 g/m*3 14.45 C 9.80833 km/h
Sensor: Nr:Datum:Temp:Abs-Feuchte:Windchill:Wind:
Aussen-T/F 1076 13-05-2013 20:00:00 13.41667 C 9.26 g/m*3 13.42 C 7.79167 km/h
1077 13-05-2013 21:00:00 12.525 C 9.25 g/m*3 12.53 C 4.14167 km/h
1078 13-05-2013 22:00:00 12.125 C 9.12 g/m*3 12.13 C 7.78333 km/h
1079 13-05-2013 23:00:00 11.91667 C 9.1 g/m*3 11.92 C 4.95833 km/h
1080 14-05-2013 00:00:00 12.00833 C 8.94 g/m*3 12.01 C 5.63333 km/h
1081 14-05-2013 01:00:00 11.85833 C 8.8 g/m*3 11.86 C 6.70833 km/h
1082 14-05-2013 02:00:00 11.95 C 8.79 g/m*3 11.95 C 10.075 km/h
1083 14-05-2013 03:00:00 11.7 C 8.81 g/m*3 11.7 C 7.24167 km/h
1084 14-05-2013 04:00:00 11.18333 C 8.7 g/m*3 11.18 C 2.94167 km/h
1085 14-05-2013 05:00:00 10.70833 C 8.63 g/m*3 10.71 C 1.6 km/h
1086 14-05-2013 06:00:00 10.95833 C 8.74 g/m*3 10.96 C 2.13333 km/h
1087 14-05-2013 07:00:00 10.78333 C 9.01 g/m*3 10.78 C 2.00833 km/h
1088 14-05-2013 08:00:00 10.36667 C 9.11 g/m*3 10.37 C 0.26667 km/h
1089 14-05-2013 09:00:00 10.38333 C 9.15 g/m*3 10.38 C 0.53333 km/h
1090 14-05-2013 10:00:00 11.43333 C 9.21 g/m*3 11.43 C 3.61667 km/h
1091 14-05-2013 11:00:00 12.61667 C 9.15 g/m*3 12.62 C 5.63333 km/h
1092 14-05-2013 12:00:00 13.625 C 8.98 g/m*3 13.63 C 6.44167 km/h
1093 14-05-2013 13:00:00 13.625 C 8.6 g/m*3 13.63 C 8.48333 km/h
1094 14-05-2013 14:00:00 14.96667 C 8.72 g/m*3 14.97 C 9.125 km/h
1095 14-05-2013 15:00:00 15.95833 C 8.44 g/m*3 15.96 C 11.95833 km/h
1096 14-05-2013 16:00:00 16.275 C 8.33 g/m*3 16.27 C 9.53333 km/h
1097 14-05-2013 17:00:00 16.54167 C 8.45 g/m*3 16.54 C 7.93333 km/h
1098 14-05-2013 18:00:00 16.75833 C 9.44 g/m*3 16.76 C 4.00833 km/h
1099 14-05-2013 19:00:00 14.95833 C 10.61 g/m*3 14.96 C 0.66667 km/h
1100 14-05-2013 20:00:00 12.85 C 9.78 g/m*3 12.85 C 2.66667 km/h
Sensor: Nr:Datum:Temp:Abs-Feuchte:Windchill:Wind:
Aussen-T/F 1101 14-05-2013 21:00:00 11.33333 C 9.06 g/m*3 11.33 C 1.73333 km/h
1102 14-05-2013 22:00:00 10.53333 C 8.68 g/m*3 10.53 C 2 km/h
1103 14-05-2013 23:00:00 9.775 C 8.38 g/m*3 9.78 C 1.73333 km/h
1104 15-05-2013 00:00:00 9.20833 C 8.13 g/m*3 9.21 C 0.53333 km/h
1105 15-05-2013 01:00:00 8.50833 C 7.87 g/m*3 8.51 C 0 km/h
1106 15-05-2013 02:00:00 7.79167 C 7.61 g/m*3 7.79 C 0 km/h
1107 15-05-2013 03:00:00 8.53333 C 8.14 g/m*3 8.06 C 5.09167 km/h
1108 15-05-2013 04:00:00 8.825 C 8.33 g/m*3 8.82 C 0.13333 km/h
1109 15-05-2013 05:00:00 8.95833 C 8.44 g/m*3 8.96 C 1.475 km/h
1110 15-05-2013 06:00:00 9.025 C 8.53 g/m*3 9.03 C 0.13333 km/h
1111 15-05-2013 07:00:00 9.41667 C 8.76 g/m*3 9.42 C 1.06667 km/h
1112 15-05-2013 08:00:00 11.1 C 9.68 g/m*3 11.1 C 0.26667 km/h
1113 15-05-2013 09:00:00 12.775 C 10.51 g/m*3 12.78 C 0.4 km/h
1114 15-05-2013 10:00:00 14.39167 C 11.54 g/m*3 14.39 C 0.93333 km/h
1115 15-05-2013 11:00:00 16.13333 C 11.57 g/m*3 16.13 C 6.71667 km/h
1116 15-05-2013 12:00:00 17.975 C 10.79 g/m*3 17.98 C 10.625 km/h
1117 15-05-2013 13:00:00 17.50833 C 10.24 g/m*3 17.51 C 11.69167 km/h
1118 15-05-2013 14:00:00 17.36667 C 10.54 g/m*3 17.37 C 9.00833 km/h
1119 15-05-2013 15:00:00 17.90833 C 10.2 g/m*3 17.91 C 12.1 km/h
1120 15-05-2013 16:00:00 17.49167 C 10.15 g/m*3 17.49 C 9.41667 km/h
1121 15-05-2013 17:00:00 16.75833 C 9.82 g/m*3 16.76 C 8.45833 km/h
1122 15-05-2013 18:00:00 16.11667 C 9.89 g/m*3 16.12 C 7.125 km/h
1123 15-05-2013 19:00:00 15.88333 C 9.9 g/m*3 15.88 C 7.93333 km/h
1124 15-05-2013 20:00:00 14.86667 C 10.02 g/m*3 14.87 C 2.66667 km/h
1125 15-05-2013 21:00:00 13.075 C 9.78 g/m*3 13.08 C 1.33333 km/h
Sensor: Nr:Datum:Temp:Abs-Feuchte:Windchill:Wind:
Aussen-T/F 1126 15-05-2013 22:00:00 12.05 C 9.51 g/m*3 12.05 C 0.26667 km/h
1127 15-05-2013 23:00:00 11.7 C 9.47 g/m*3 11.7 C 0.53333 km/h
1128 16-05-2013 00:00:00 11.49167 C 9.44 g/m*3 11.49 C 0 km/h
1129 16-05-2013 01:00:00 11.24167 C 9.49 g/m*3 11.24 C 0 km/h
1130 16-05-2013 02:00:00 10.93333 C 9.45 g/m*3 10.93 C 0 km/h
1131 16-05-2013 03:00:00 10.78333 C 9.38 g/m*3 10.78 C 0 km/h
1132 16-05-2013 04:00:00 9.96667 C 8.94 g/m*3 9.97 C 0 km/h
1133 16-05-2013 05:00:00 10.10833 C 9.08 g/m*3 10.11 C 0.13333 km/h
1134 16-05-2013 06:00:00 10.275 C 9.2 g/m*3 10.28 C 0.53333 km/h
1135 16-05-2013 07:00:00 11.05833 C 9.69 g/m*3 11.06 C 2.13333 km/h
1136 16-05-2013 08:00:00 12.1 C 10 g/m*3 12.1 C 1.33333 km/h
1137 16-05-2013 09:00:00 13.50833 C 10.5 g/m*3 13.51 C 2.93333 km/h
1138 16-05-2013 10:00:00 14.61667 C 10.78 g/m*3 14.62 C 1.73333 km/h
1139 16-05-2013 11:00:00 15.09167 C 10.92 g/m*3 15.09 C 1.33333 km/h
1140 16-05-2013 12:00:00 15.80833 C 11.16 g/m*3 15.81 C 1.73333 km/h
1141 16-05-2013 13:00:00 15.75 C 11.49 g/m*3 15.75 C 0.8 km/h
1142 16-05-2013 14:00:00 14.69167 C 11.83 g/m*3 14.69 C 0.13333 km/h
1143 16-05-2013 15:00:00 15.18333 C 12.3 g/m*3 15.18 C 1.06667 km/h
1144 16-05-2013 16:00:00 15.225 C 12.28 g/m*3 15.23 C 2.66667 km/h
1145 16-05-2013 17:00:00 15.23333 C 12.26 g/m*3 15.23 C 1.6 km/h
1146 16-05-2013 18:00:00 15.36667 C 12.33 g/m*3 15.37 C 0.93333 km/h
1147 16-05-2013 19:00:00 15.3 C 12.33 g/m*3 15.3 C 0 km/h
1148 16-05-2013 20:00:00 14.46667 C 11.88 g/m*3 14.47 C 0.13333 km/h
1149 16-05-2013 21:00:00 13.65 C 11.38 g/m*3 13.65 C 0 km/h
1150 16-05-2013 22:00:00 13.325 C 11.22 g/m*3 13.33 C 0.66667 km/h
Sensor: Nr:Datum:Temp:Abs-Feuchte:Windchill:Wind:
Aussen-T/F 1151 16-05-2013 23:00:00 12.95 C 10.91 g/m*3 12.95 C 1.6 km/h
1152 17-05-2013 00:00:00 12.68333 C 10.71 g/m*3 12.68 C 2.95833 km/h
1153 17-05-2013 01:00:00 12.075 C 10.26 g/m*3 12.08 C 7.24167 km/h
1154 17-05-2013 02:00:00 11.33333 C 9.77 g/m*3 11.33 C 5.60833 km/h
1155 17-05-2013 03:00:00 10.94167 C 9.37 g/m*3 10.94 C 4.4 km/h
1156 17-05-2013 04:00:00 10.75 C 9.2 g/m*3 10.4 C 5.75833 km/h
1157 17-05-2013 05:00:00 10.375 C 8.96 g/m*3 9.93 C 5.89167 km/h
1158 17-05-2013 06:00:00 10.05 C 8.67 g/m*3 10.05 C 4.95833 km/h
1159 17-05-2013 07:00:00 9.78333 C 8.59 g/m*3 9.01 C 6.83333 km/h
1160 17-05-2013 08:00:00 9.65 C 8.55 g/m*3 8.82 C 6.98333 km/h
1161 17-05-2013 09:00:00 9.64167 C 8.5 g/m*3 8.78 C 7.11667 km/h
1162 17-05-2013 10:00:00 9.64167 C 8.5 g/m*3 8.85 C 6.825 km/h
1163 17-05-2013 11:00:00 9.68333 C 8.53 g/m*3 8.93 C 6.7 km/h
1164 17-05-2013 12:00:00 9.90833 C 8.73 g/m*3 9.39 C 5.9 km/h
1165 17-05-2013 13:00:00 9.9 C 8.82 g/m*3 9.9 C 3.73333 km/h
1166 17-05-2013 14:00:00 10.03333 C 8.95 g/m*3 10.03 C 3.06667 km/h
1167 17-05-2013 15:00:00 10.29167 C 9.01 g/m*3 10.29 C 4.54167 km/h
1168 17-05-2013 16:00:00 10.56667 C 9.04 g/m*3 10.57 C 4.675 km/h
1169 17-05-2013 17:00:00 10.575 C 8.98 g/m*3 10.58 C 4.275 km/h
1170 17-05-2013 18:00:00 10.525 C 9.06 g/m*3 10.53 C 2.53333 km/h
1171 17-05-2013 19:00:00 10.28333 C 8.94 g/m*3 10.28 C 2.13333 km/h
1172 17-05-2013 20:00:00 10.08333 C 8.99 g/m*3 10.08 C 0.53333 km/h
1173 17-05-2013 21:00:00 9.85833 C 8.94 g/m*3 9.86 C 0 km/h
1174 17-05-2013 22:00:00 9.68333 C 8.88 g/m*3 9.68 C 0.13333 km/h
1175 17-05-2013 23:00:00 9.63333 C 8.87 g/m*3 9.63 C 0.53333 km/h
Sensor: Nr:Datum:Temp:Abs-Feuchte:Windchill:Wind:
Aussen-T/F 1176 18-05-2013 00:00:00 9.68333 C 8.84 g/m*3 9.68 C 0.8 km/h
1177 18-05-2013 01:00:00 9.53333 C 8.81 g/m*3 9.53 C 0 km/h
1178 18-05-2013 02:00:00 9.4 C 8.77 g/m*3 9.4 C 0 km/h
1179 18-05-2013 03:00:00 9.43333 C 8.79 g/m*3 9.43 C 0 km/h
1180 18-05-2013 04:00:00 9.475 C 8.82 g/m*3 9.48 C 0 km/h
1181 18-05-2013 05:00:00 9.31667 C 8.73 g/m*3 9.32 C 0 km/h
1182 18-05-2013 06:00:00 9.26667 C 8.7 g/m*3 9.27 C 0 km/h
1183 18-05-2013 07:00:00 9.64167 C 8.91 g/m*3 9.64 C 0.53333 km/h
1184 18-05-2013 08:00:00 10.41667 C 9.06 g/m*3 10.42 C 4.80833 km/h
1185 18-05-2013 09:00:00 11.26667 C 9.01 g/m*3 11.27 C 6.3 km/h
1186 18-05-2013 10:00:00 11.90833 C 9.02 g/m*3 11.91 C 5.33333 km/h
1187 18-05-2013 11:00:00 13.16667 C 9.19 g/m*3 13.17 C 5.35 km/h
1188 18-05-2013 12:00:00 13.93333 C 9.35 g/m*3 13.93 C 5.475 km/h
1189 18-05-2013 13:00:00 14.91667 C 9.82 g/m*3 14.92 C 6.69167 km/h
1190 18-05-2013 14:00:00 16.625 C 10.12 g/m*3 16.63 C 6.16667 km/h
1191 18-05-2013 15:00:00 17.30833 C 9.8 g/m*3 17.31 C 7.26667 km/h
1192 18-05-2013 16:00:00 18.20833 C 9.71 g/m*3 18.21 C 5.61667 km/h
1193 18-05-2013 17:00:00 19.76667 C 9.77 g/m*3 19.77 C 8.33333 km/h
1194 18-05-2013 18:00:00 20.3 C 10.01 g/m*3 20.3 C 8.075 km/h
1195 18-05-2013 19:00:00 19.5 C 10.15 g/m*3 19.5 C 6.85833 km/h
1196 18-05-2013 20:00:00 16.16667 C 10.95 g/m*3 16.17 C 1.86667 km/h
1197 18-05-2013 21:00:00 13.00833 C 9.81 g/m*3 13.01 C 2.93333 km/h
1198 18-05-2013 22:00:00 11.78333 C 9.37 g/m*3 11.78 C 0.13333 km/h
1199 18-05-2013 23:00:00 10.88333 C 9.07 g/m*3 10.88 C 0 km/h
1200 19-05-2013 00:00:00 10.15833 C 8.77 g/m*3 10.16 C 0 km/h
Sensor: Nr:Datum:Temp:Abs-Feuchte:Windchill:Wind:
Aussen-T/F 1201 19-05-2013 01:00:00 9.725 C 8.63 g/m*3 9.73 C 0 km/h
1202 19-05-2013 02:00:00 9.14167 C 8.39 g/m*3 9.14 C 0 km/h
1203 19-05-2013 03:00:00 8.725 C 8.23 g/m*3 8.73 C 0 km/h
1204 19-05-2013 04:00:00 8.34167 C 8.08 g/m*3 8.34 C 0 km/h
1205 19-05-2013 05:00:00 8.1 C 7.99 g/m*3 8.1 C 0 km/h
1206 19-05-2013 06:00:00 7.90833 C 7.89 g/m*3 7.91 C 0 km/h
1207 19-05-2013 07:00:00 8.30833 C 8.15 g/m*3 8.31 C 0 km/h
1208 19-05-2013 08:00:00 10.25 C 9.01 g/m*3 10.25 C 0 km/h
1209 19-05-2013 09:00:00 11.43333 C 9.56 g/m*3 11.43 C 0.4 km/h
1210 19-05-2013 10:00:00 15.375 C 10.48 g/m*3 15.38 C 3.33333 km/h
1211 19-05-2013 11:00:00 17.88333 C 11.02 g/m*3 17.88 C 4.8 km/h
1212 19-05-2013 12:00:00 18.29167 C 11.6 g/m*3 18.29 C 3.6 km/h
1213 19-05-2013 13:00:00 19.79167 C 11.58 g/m*3 19.79 C 6.04167 km/h
1214 19-05-2013 14:00:00 20.43333 C 11.17 g/m*3 20.43 C 7.51667 km/h
1215 19-05-2013 15:00:00 20.78333 C 10.93 g/m*3 20.78 C 7.11667 km/h
1216 19-05-2013 16:00:00 20.09167 C 11.11 g/m*3 20.09 C 13.94167 km/h
1217 19-05-2013 17:00:00 17.625 C 11.04 g/m*3 17.63 C 14.9 km/h
1218 19-05-2013 18:00:00 15.74167 C 10.41 g/m*3 15.74 C 17.96667 km/h
1219 19-05-2013 19:00:00 14.19167 C 9.93 g/m*3 14.19 C 14.89167 km/h
1220 19-05-2013 20:00:00 13.3 C 9.57 g/m*3 13.3 C 10.89167 km/h
1221 19-05-2013 21:00:00 11.85833 C 9.56 g/m*3 11.86 C 7.09167 km/h
1222 19-05-2013 22:00:00 10.975 C 9.3 g/m*3 9.81 C 9.94167 km/h
1223 19-05-2013 23:00:00 10.71667 C 9.19 g/m*3 9.45 C 10.21667 km/h
1224 20-05-2013 00:00:00 10.58333 C 9.12 g/m*3 9.07 C 11.69167 km/h
1225 20-05-2013 01:00:00 10.33333 C 9.02 g/m*3 9.33 C 8.325 km/h
Sensor: Nr:Datum:Temp:Abs-Feuchte:Windchill:Wind:
Aussen-T/F 1226 20-05-2013 02:00:00 10.20833 C 8.95 g/m*3 9.11 C 8.74167 km/h
1227 20-05-2013 03:00:00 10.04167 C 8.86 g/m*3 8.96 C 8.46667 km/h
1228 20-05-2013 04:00:00 9.63333 C 8.63 g/m*3 7.63 C 13.7 km/h
1229 20-05-2013 05:00:00 9.28333 C 8.41 g/m*3 7.08 C 14.63333 km/h
1230 20-05-2013 06:00:00 9.2 C 8.39 g/m*3 8.05 C 8.06667 km/h
1231 20-05-2013 07:00:00 9.30833 C 8.47 g/m*3 9.31 C 3.475 km/h
1232 20-05-2013 08:00:00 9.54167 C 8.65 g/m*3 9.54 C 2.80833 km/h
1233 20-05-2013 09:00:00 9.9 C 8.8 g/m*3 8.91 C 7.91667 km/h
1234 20-05-2013 10:00:00 10.68333 C 9.12 g/m*3 10.06 C 6.84167 km/h
1235 20-05-2013 11:00:00 11.375 C 9.3 g/m*3 11.38 C 8.61667 km/h
1236 20-05-2013 12:00:00 12.225 C 9.56 g/m*3 12.23 C 7.66667 km/h
1237 20-05-2013 13:00:00 13.09167 C 9.49 g/m*3 13.09 C 9.00833 km/h
1238 20-05-2013 14:00:00 13.20833 C 9.7 g/m*3 13.21 C 7.1 km/h
1239 20-05-2013 15:00:00 12.96667 C 9.85 g/m*3 12.97 C 4.66667 km/h
1240 20-05-2013 16:00:00 12.96667 C 10.03 g/m*3 12.97 C 0.4 km/h
1241 20-05-2013 17:00:00 12.99167 C 10.09 g/m*3 12.99 C 1.86667 km/h
1242 20-05-2013 18:00:00 13.10833 C 9.85 g/m*3 13.11 C 4.13333 km/h
1243 20-05-2013 19:00:00 12 C 9.59 g/m*3 12 C 2.00833 km/h
1244 20-05-2013 20:00:00 11 C 9.37 g/m*3 11 C 0.13333 km/h
1245 20-05-2013 21:00:00 10.275 C 9.08 g/m*3 10.28 C 0.8 km/h
1246 20-05-2013 22:00:00 9.5 C 8.65 g/m*3 9.5 C 0.13333 km/h
1247 20-05-2013 23:00:00 8.65833 C 8.25 g/m*3 8.66 C 0 km/h
1248 21-05-2013 00:00:00 8.64167 C 8.29 g/m*3 8.64 C 0 km/h
1249 21-05-2013 01:00:00 8.73333 C 8.41 g/m*3 8.73 C 0.4 km/h
1250 21-05-2013 02:00:00 8.84167 C 8.44 g/m*3 8.84 C 0.93333 km/h
Sensor: Nr:Datum:Temp:Abs-Feuchte:Windchill:Wind:
Aussen-T/F 1251 21-05-2013 03:00:00 9.00833 C 8.54 g/m*3 9.01 C 0.26667 km/h
1252 21-05-2013 04:00:00 9.18333 C 8.65 g/m*3 9.18 C 0 km/h
1253 21-05-2013 05:00:00 9.35 C 8.75 g/m*3 9.35 C 0 km/h
1254 21-05-2013 06:00:00 9.64167 C 8.91 g/m*3 9.64 C 0 km/h
1255 21-05-2013 07:00:00 10.13333 C 9.2 g/m*3 10.13 C 0.13333 km/h
1256 21-05-2013 08:00:00 10.83333 C 9.46 g/m*3 10.83 C 1.73333 km/h
1257 21-05-2013 09:00:00 11.98333 C 9.49 g/m*3 11.98 C 2.8 km/h
1258 21-05-2013 10:00:00 12.125 C 9.39 g/m*3 12.13 C 4.00833 km/h
1259 21-05-2013 11:00:00 12.63333 C 9.46 g/m*3 12.63 C 3.34167 km/h
1260 21-05-2013 12:00:00 13.95 C 9.48 g/m*3 13.95 C 8.88333 km/h
1261 21-05-2013 13:00:00 14.8 C 9.46 g/m*3 14.8 C 8.74167 km/h
1262 21-05-2013 14:00:00 16.4 C 9.46 g/m*3 16.4 C 9.69167 km/h
1263 21-05-2013 15:00:00 16.7 C 9.59 g/m*3 16.7 C 8.20833 km/h
1264 21-05-2013 16:00:00 17.45 C 9.72 g/m*3 17.45 C 9.13333 km/h
1265 21-05-2013 17:00:00 15.54167 C 9.54 g/m*3 15.54 C 8.05 km/h
1266 21-05-2013 18:00:00 14.91667 C 9.71 g/m*3 14.92 C 4.81667 km/h
1267 21-05-2013 19:00:00 14.99167 C 9.73 g/m*3 14.99 C 5.34167 km/h
1268 21-05-2013 20:00:00 13.48333 C 10.14 g/m*3 13.48 C 2.00833 km/h
1269 21-05-2013 21:00:00 12.98333 C 9.88 g/m*3 12.98 C 4.54167 km/h
1270 21-05-2013 22:00:00 12.6 C 9.63 g/m*3 12.6 C 4.275 km/h
1271 21-05-2013 23:00:00 11.5 C 9.53 g/m*3 11.5 C 2.54167 km/h
1272 22-05-2013 00:00:00 10.76667 C 9.21 g/m*3 10.77 C 4.28333 km/h
1273 22-05-2013 01:00:00 10.25833 C 9.05 g/m*3 10.26 C 0.4 km/h
1274 22-05-2013 02:00:00 9.825 C 8.83 g/m*3 9.82 C 3.34167 km/h
1275 22-05-2013 03:00:00 9.63333 C 8.68 g/m*3 9.63 C 3.35833 km/h
Sensor: Nr:Datum:Temp:Abs-Feuchte:Windchill:Wind:
Aussen-T/F 1276 22-05-2013 04:00:00 9.30833 C 8.38 g/m*3 8.24 C 7.79167 km/h
1277 22-05-2013 05:00:00 9.1 C 8.2 g/m*3 7.69 C 9.26667 km/h
1278 22-05-2013 06:00:00 8.79167 C 8.1 g/m*3 7.32 C 9.275 km/h
1279 22-05-2013 07:00:00 8.68333 C 8.06 g/m*3 6.79 C 11.55 km/h
1280 22-05-2013 08:00:00 8.5 C 7.98 g/m*3 6.88 C 9.8 km/h
1281 22-05-2013 09:00:00 8.91667 C 7.97 g/m*3 6.68 C 14.225 km/h
1282 22-05-2013 10:00:00 8.53333 C 7.62 g/m*3 5.97 C 16.1 km/h
1283 22-05-2013 11:00:00 8.4 C 7.44 g/m*3 6.08 C 13.96667 km/h
1284 22-05-2013 12:00:00 8.91667 C 7.48 g/m*3 7.12 C 11.29167 km/h
1285 22-05-2013 13:00:00 9.45 C 7.54 g/m*3 7.37 C 13.96667 km/h
1286 22-05-2013 14:00:00 9.44167 C 7.61 g/m*3 7.51 C 12.9 km/h
1287 22-05-2013 15:00:00 9.64167 C 7.56 g/m*3 8.01 C 11.15833 km/h
1288 22-05-2013 16:00:00 10.24167 C 7.54 g/m*3 8.71 C 11.29167 km/h
1289 22-05-2013 17:00:00 10.2 C 7.39 g/m*3 8.5 C 12.36667 km/h
1290 22-05-2013 18:00:00 10.05833 C 7.54 g/m*3 8.45 C 11.55833 km/h
1291 22-05-2013 19:00:00 10.16667 C 7.56 g/m*3 8.7 C 10.76667 km/h
1292 22-05-2013 20:00:00 9.85 C 7.48 g/m*3 8.44 C 10.075 km/h
1293 22-05-2013 21:00:00 9.35 C 7.31 g/m*3 9.35 C 4.95833 km/h
1294 22-05-2013 22:00:00 8.43333 C 7.31 g/m*3 8.43 C 1.73333 km/h
1295 22-05-2013 23:00:00 7.8 C 7.13 g/m*3 7.8 C 1.86667 km/h
1296 23-05-2013 00:00:00 7.24167 C 6.96 g/m*3 7.24 C 1.73333 km/h
1297 23-05-2013 01:00:00 6.66667 C 6.9 g/m*3 6.67 C 1.2 km/h
1298 23-05-2013 02:00:00 6.99167 C 7.03 g/m*3 6.99 C 1.33333 km/h
1299 23-05-2013 03:00:00 7.29167 C 7.15 g/m*3 7.29 C 2.8 km/h
1300 23-05-2013 04:00:00 7.51667 C 7.3 g/m*3 7.52 C 0.53333 km/h
Sensor: Nr:Datum:Temp:Abs-Feuchte:Windchill:Wind:
Aussen-T/F 1301 23-05-2013 05:00:00 7.15833 C 7.35 g/m*3 7.16 C 0 km/h
1302 23-05-2013 06:00:00 7.08333 C 7.41 g/m*3 7.08 C 0.26667 km/h
1303 23-05-2013 07:00:00 7.13333 C 7.44 g/m*3 7.13 C 3.35 km/h
1304 23-05-2013 08:00:00 7.65833 C 7.61 g/m*3 6.69 C 6.30833 km/h
1305 23-05-2013 09:00:00 8.45833 C 7.77 g/m*3 7.47 C 6.85 km/h
1306 23-05-2013 10:00:00 10.8 C 8.27 g/m*3 9.89 C 8.30833 km/h
1307 23-05-2013 11:00:00 9.24167 C 7.44 g/m*3 7.34 C 12.36667 km/h
1308 23-05-2013 12:00:00 7.375 C 7.08 g/m*3 6.75 C 5.08333 km/h
1309 23-05-2013 13:00:00 7.75833 C 7.01 g/m*3 6.49 C 7.51667 km/h
1310 23-05-2013 14:00:00 7.93333 C 7 g/m*3 6.53 C 8.2 km/h
1311 23-05-2013 15:00:00 8.49167 C 7.05 g/m*3 6.82 C 10.075 km/h
1312 23-05-2013 16:00:00 9.025 C 6.94 g/m*3 7.82 C 8.20833 km/h
1313 23-05-2013 17:00:00 9.80833 C 6.85 g/m*3 8.64 C 8.725 km/h
1314 23-05-2013 18:00:00 10.51667 C 6.69 g/m*3 9.42 C 9.00833 km/h
1315 23-05-2013 19:00:00 9.325 C 6.48 g/m*3 7.38 C 12.76667 km/h
1316 23-05-2013 20:00:00 7.425 C 6.31 g/m*3 6.2 C 7.11667 km/h
1317 23-05-2013 21:00:00 6.70833 C 6.44 g/m*3 6.71 C 4.01667 km/h
1318 23-05-2013 22:00:00 6.25833 C 6.18 g/m*3 6.26 C 2.80833 km/h
1319 23-05-2013 23:00:00 5.91667 C 6.2 g/m*3 5.92 C 1.2 km/h
1320 24-05-2013 00:00:00 5.025 C 6.04 g/m*3 5.03 C 0.66667 km/h
1321 24-05-2013 01:00:00 3.95833 C 5.88 g/m*3 3.96 C 0.4 km/h
1322 24-05-2013 02:00:00 4.2 C 6.01 g/m*3 4.2 C 0.26667 km/h
1323 24-05-2013 03:00:00 4.24167 C 6.02 g/m*3 4.24 C 1.6 km/h
1324 24-05-2013 04:00:00 4.225 C 5.97 g/m*3 4.22 C 2.26667 km/h
1325 24-05-2013 05:00:00 3.93333 C 5.9 g/m*3 3.93 C 1.6 km/h
Sensor: Nr:Datum:Temp:Abs-Feuchte:Windchill:Wind:
Aussen-T/F 1326 24-05-2013 06:00:00 4.25 C 5.97 g/m*3 4.25 C 4.13333 km/h
1327 24-05-2013 07:00:00 4.61667 C 6.01 g/m*3 4.62 C 3.48333 km/h
1328 24-05-2013 08:00:00 6.23333 C 6.2 g/m*3 5.18 C 5.88333 km/h
1329 24-05-2013 09:00:00 7.35 C 6.29 g/m*3 7.35 C 3.2 km/h
1330 24-05-2013 10:00:00 8.675 C 6.08 g/m*3 8.68 C 4.13333 km/h
1331 24-05-2013 11:00:00 9.44167 C 5.99 g/m*3 9.44 C 3.73333 km/h
1332 24-05-2013 12:00:00 9.74167 C 5.85 g/m*3 9.74 C 3.86667 km/h
1333 24-05-2013 13:00:00 11.49167 C 6.25 g/m*3 11.49 C 8.2 km/h
1334 24-05-2013 14:00:00 11.01667 C 6.74 g/m*3 11.02 C 4.29167 km/h
1335 24-05-2013 15:00:00 10.18333 C 6.96 g/m*3 10.18 C 4.69167 km/h
1336 24-05-2013 16:00:00 11.70833 C 6.42 g/m*3 11.71 C 8.33333 km/h
1337 24-05-2013 17:00:00 13.00833 C 6.34 g/m*3 13.01 C 8.06667 km/h
1338 24-05-2013 18:00:00 10.975 C 6.26 g/m*3 10.49 C 6.43333 km/h
1339 24-05-2013 19:00:00 10.325 C 6.7 g/m*3 10.09 C 5.1 km/h
1340 24-05-2013 20:00:00 9.975 C 7.15 g/m*3 9.98 C 0.66667 km/h
1341 24-05-2013 21:00:00 7.3 C 6.71 g/m*3 7.3 C 2 km/h
1342 24-05-2013 22:00:00 5.75 C 6.37 g/m*3 5.75 C 0.26667 km/h
1343 24-05-2013 23:00:00 4.9 C 6.18 g/m*3 4.9 C 0 km/h
1344 25-05-2013 00:00:00 4.21667 C 6.03 g/m*3 4.22 C 0.26667 km/h
1345 25-05-2013 01:00:00 3.64167 C 5.83 g/m*3 3.64 C 0.66667 km/h
1346 25-05-2013 02:00:00 3.025 C 5.65 g/m*3 3.03 C 0.53333 km/h
1347 25-05-2013 03:00:00 2.65 C 5.54 g/m*3 2.65 C 0.13333 km/h
1348 25-05-2013 04:00:00 2.83333 C 5.64 g/m*3 2.83 C 3.33333 km/h
1349 25-05-2013 05:00:00 3.03333 C 5.72 g/m*3 3.03 C 4.4 km/h
1350 25-05-2013 06:00:00 3.15 C 5.79 g/m*3 3.15 C 3.06667 km/h
Sensor: Nr:Datum:Temp:Abs-Feuchte:Windchill:Wind:
Aussen-T/F 1351 25-05-2013 07:00:00 3.34167 C 5.88 g/m*3 3.34 C 2.8 km/h
1352 25-05-2013 08:00:00 4.15833 C 6.16 g/m*3 4.16 C 2.13333 km/h
1353 25-05-2013 09:00:00 6.23333 C 6.67 g/m*3 6.23 C 4.13333 km/h
1354 25-05-2013 10:00:00 9.475 C 7.35 g/m*3 9.48 C 3.33333 km/h
1355 25-05-2013 11:00:00 12.53333 C 7.33 g/m*3 12.53 C 5.9 km/h
1356 25-05-2013 12:00:00 13.15833 C 6.62 g/m*3 13.16 C 9.025 km/h
1357 25-05-2013 13:00:00 12.83333 C 6.16 g/m*3 12.83 C 10.225 km/h
1358 25-05-2013 14:00:00 13.375 C 6.27 g/m*3 13.38 C 11.56667 km/h
1359 25-05-2013 15:00:00 12.89167 C 6.63 g/m*3 12.89 C 10.89167 km/h
1360 25-05-2013 16:00:00 13.425 C 6.64 g/m*3 13.43 C 11.425 km/h
1361 25-05-2013 17:00:00 13.675 C 6.89 g/m*3 13.68 C 8.19167 km/h
1362 25-05-2013 18:00:00 14.21667 C 6.54 g/m*3 14.22 C 11.825 km/h
1363 25-05-2013 19:00:00 13.08333 C 7.01 g/m*3 13.08 C 12.75833 km/h
1364 25-05-2013 20:00:00 10.43333 C 7.76 g/m*3 10.18 C 5.23333 km/h
1365 25-05-2013 21:00:00 8.99167 C 8.1 g/m*3 8.99 C 1.06667 km/h
1366 25-05-2013 22:00:00 8.55833 C 8.11 g/m*3 8.56 C 0.53333 km/h
1367 25-05-2013 23:00:00 8.59167 C 7.94 g/m*3 7.53 C 7.24167 km/h
1368 26-05-2013 00:00:00 8.375 C 7.35 g/m*3 7.25 C 7.36667 km/h
1369 26-05-2013 01:00:00 7.725 C 7.15 g/m*3 6.84 C 6.05 km/h
1370 26-05-2013 02:00:00 6.95 C 7.17 g/m*3 6.95 C 1.06667 km/h
1371 26-05-2013 03:00:00 6.75 C 7.1 g/m*3 6.75 C 1.73333 km/h
1372 26-05-2013 04:00:00 6.63333 C 7.04 g/m*3 6.63 C 2.4 km/h
1373 26-05-2013 05:00:00 6.45833 C 6.99 g/m*3 6.46 C 2.66667 km/h
1374 26-05-2013 06:00:00 6.56667 C 7.06 g/m*3 6.57 C 3.06667 km/h
1375 26-05-2013 07:00:00 6.83333 C 7.13 g/m*3 5.95 C 5.625 km/h
Sensor: Nr:Datum:Temp:Abs-Feuchte:Windchill:Wind:
Aussen-T/F 1376 26-05-2013 08:00:00 7.03333 C 7.23 g/m*3 5.57 C 7.79167 km/h
1377 26-05-2013 09:00:00 7.225 C 7.38 g/m*3 6.53 C 5.21667 km/h
1378 26-05-2013 10:00:00 7.575 C 7.61 g/m*3 7.58 C 4.80833 km/h
1379 26-05-2013 11:00:00 7.86667 C 7.78 g/m*3 7.87 C 2.40833 km/h
1380 26-05-2013 12:00:00 8.23333 C 7.97 g/m*3 8.23 C 4.15 km/h
1381 26-05-2013 13:00:00 8.88333 C 8.3 g/m*3 7.74 C 7.78333 km/h
1382 26-05-2013 14:00:00 9.58333 C 8.56 g/m*3 9.05 C 5.78333 km/h
1383 26-05-2013 15:00:00 9.69167 C 8.58 g/m*3 9.07 C 6.175 km/h
1384 26-05-2013 16:00:00 9.575 C 8.64 g/m*3 9.57 C 1.73333 km/h
1385 26-05-2013 17:00:00 9.53333 C 8.72 g/m*3 9.53 C 1.6 km/h
1386 26-05-2013 18:00:00 9.4 C 8.6 g/m*3 9.4 C 2.13333 km/h
1387 26-05-2013 19:00:00 9.35833 C 8.55 g/m*3 9.36 C 2.275 km/h
1388 26-05-2013 20:00:00 9.11667 C 8.35 g/m*3 9.12 C 2.26667 km/h
1389 26-05-2013 21:00:00 8.3 C 7.98 g/m*3 8.3 C 1.73333 km/h
1390 26-05-2013 22:00:00 7.70833 C 7.77 g/m*3 7.71 C 1.33333 km/h
1391 26-05-2013 23:00:00 7.49167 C 7.71 g/m*3 7.49 C 0.4 km/h
1392 27-05-2013 00:00:00 7.4 C 7.71 g/m*3 7.4 C 0.53333 km/h
1393 27-05-2013 01:00:00 7.4 C 7.71 g/m*3 7.4 C 1.73333 km/h
1394 27-05-2013 02:00:00 7.4 C 7.71 g/m*3 7.4 C 0 km/h
1395 27-05-2013 03:00:00 7.34167 C 7.68 g/m*3 7.34 C 0 km/h
1396 27-05-2013 04:00:00 7.23333 C 7.63 g/m*3 7.23 C 0 km/h
1397 27-05-2013 05:00:00 7.19167 C 7.63 g/m*3 7.19 C 0 km/h
1398 27-05-2013 06:00:00 7.46667 C 7.77 g/m*3 7.47 C 0 km/h
1399 27-05-2013 07:00:00 7.85 C 8.02 g/m*3 7.85 C 0 km/h
1400 27-05-2013 08:00:00 8.525 C 8.22 g/m*3 8.53 C 2 km/h
Sensor: Nr:Datum:Temp:Abs-Feuchte:Windchill:Wind:
Aussen-T/F 1401 27-05-2013 09:00:00 10.48333 C 8.36 g/m*3 10.02 C 6.03333 km/h
1402 27-05-2013 10:00:00 12.11667 C 8.79 g/m*3 12.12 C 4.40833 km/h
1403 27-05-2013 11:00:00 13.89167 C 7.87 g/m*3 13.89 C 8.45833 km/h
1404 27-05-2013 12:00:00 15.06667 C 7.82 g/m*3 15.07 C 8.73333 km/h
1405 27-05-2013 13:00:00 16.70833 C 8.14 g/m*3 16.71 C 9.95 km/h
1406 27-05-2013 14:00:00 18.18333 C 8.42 g/m*3 18.18 C 8.88333 km/h
1407 27-05-2013 15:00:00 19.20833 C 7.93 g/m*3 19.21 C 7.38333 km/h
1408 27-05-2013 16:00:00 20.15 C 7.9 g/m*3 20.15 C 9.00833 km/h
1409 27-05-2013 17:00:00 20.425 C 7.28 g/m*3 20.43 C 6.85 km/h
1410 27-05-2013 18:00:00 20.6 C 6.19 g/m*3 20.6 C 6.84167 km/h
1411 27-05-2013 19:00:00 16.54167 C 9.51 g/m*3 16.54 C 1.46667 km/h
1412 27-05-2013 20:00:00 14.23333 C 9.42 g/m*3 14.23 C 1.33333 km/h
1413 27-05-2013 21:00:00 11.74167 C 8.51 g/m*3 11.74 C 1.6 km/h
1414 27-05-2013 22:00:00 10.66667 C 8.16 g/m*3 10.67 C 0 km/h
1415 27-05-2013 23:00:00 9.58333 C 7.88 g/m*3 9.58 C 0 km/h
1416 28-05-2013 00:00:00 8.9 C 7.71 g/m*3 8.9 C 0.13333 km/h
1417 28-05-2013 01:00:00 8.28333 C 7.58 g/m*3 8.28 C 0 km/h
1418 28-05-2013 02:00:00 7.50833 C 7.35 g/m*3 7.51 C 0.13333 km/h
1419 28-05-2013 03:00:00 7.075 C 7.22 g/m*3 7.08 C 0.13333 km/h
1420 28-05-2013 04:00:00 6.475 C 7.03 g/m*3 6.48 C 0 km/h
1421 28-05-2013 05:00:00 5.98333 C 6.88 g/m*3 5.98 C 0 km/h
1422 28-05-2013 06:00:00 5.78333 C 6.81 g/m*3 5.78 C 0.13333 km/h
1423 28-05-2013 07:00:00 6.05 C 6.99 g/m*3 6.05 C 2.66667 km/h
1424 28-05-2013 08:00:00 8.15 C 7.76 g/m*3 8.15 C 1.73333 km/h
1425 28-05-2013 09:00:00 9.90833 C 8.5 g/m*3 9.91 C 0.26667 km/h
Sensor: Nr:Datum:Temp:Abs-Feuchte:Windchill:Wind:
Aussen-T/F 1426 28-05-2013 10:00:00 14.25833 C 9.91 g/m*3 14.26 C 2.93333 km/h
1427 28-05-2013 11:00:00 18.50833 C 9.35 g/m*3 18.51 C 8.6 km/h
1428 28-05-2013 12:00:00 19.95 C 8.17 g/m*3 19.95 C 8.075 km/h
1429 28-05-2013 13:00:00 21.25 C 8.41 g/m*3 21.25 C 9.13333 km/h
1430 28-05-2013 14:00:00 21.925 C 8.58 g/m*3 21.93 C 7.66667 km/h
1431 28-05-2013 15:00:00 22.54167 C 8.38 g/m*3 22.54 C 8.6 km/h
1432 28-05-2013 16:00:00 23.38333 C 8.61 g/m*3 23.38 C 6.96667 km/h
1433 28-05-2013 17:00:00 23.90833 C 8.57 g/m*3 23.91 C 9.28333 km/h
1434 28-05-2013 18:00:00 21.35 C 10.25 g/m*3 21.35 C 2.66667 km/h
1435 28-05-2013 19:00:00 17.55833 C 10.26 g/m*3 17.56 C 6.70833 km/h
1436 28-05-2013 20:00:00 15.9 C 10.07 g/m*3 15.9 C 5.225 km/h
1437 28-05-2013 21:00:00 13.175 C 10.38 g/m*3 13.18 C 1.875 km/h
1438 28-05-2013 22:00:00 12.58333 C 10.39 g/m*3 12.58 C 1.2 km/h
1439 28-05-2013 23:00:00 12.58333 C 10.39 g/m*3 12.58 C 5.64167 km/h
1440 29-05-2013 00:00:00 12.21667 C 9.8 g/m*3 12.22 C 9 km/h
1441 29-05-2013 01:00:00 11.78333 C 9.57 g/m*3 11.78 C 4.40833 km/h
1442 29-05-2013 02:00:00 11.59167 C 9.46 g/m*3 11.59 C 4.68333 km/h
1443 29-05-2013 03:00:00 11.425 C 9.39 g/m*3 11.43 C 3.88333 km/h
1444 29-05-2013 04:00:00 11.125 C 9.21 g/m*3 11.13 C 2.00833 km/h
1445 29-05-2013 05:00:00 10.9 C 8.9 g/m*3 10.9 C 2.8 km/h
1446 29-05-2013 06:00:00 10.78333 C 8.94 g/m*3 10.78 C 1.86667 km/h
1447 29-05-2013 07:00:00 10.66667 C 9.09 g/m*3 10.67 C 2.4 km/h
1448 29-05-2013 08:00:00 10.40833 C 9.03 g/m*3 9.61 C 7.39167 km/h
1449 29-05-2013 09:00:00 9.375 C 8.34 g/m*3 8.44 C 7.24167 km/h
1450 29-05-2013 10:00:00 9.23333 C 8.44 g/m*3 9.23 C 3.06667 km/h
Sensor: Nr:Datum:Temp:Abs-Feuchte:Windchill:Wind:
Aussen-T/F 1451 29-05-2013 11:00:00 9.825 C 8.65 g/m*3 9.26 C 6.03333 km/h
1452 29-05-2013 12:00:00 9.76667 C 8.4 g/m*3 9.12 C 6.30833 km/h
1453 29-05-2013 13:00:00 9.64167 C 8.43 g/m*3 9.64 C 3.34167 km/h
1454 29-05-2013 14:00:00 9.98333 C 8.59 g/m*3 9.98 C 3.35 km/h
1455 29-05-2013 15:00:00 9.83333 C 8.62 g/m*3 9.83 C 0.8 km/h
1456 29-05-2013 16:00:00 10.18333 C 8.77 g/m*3 10.18 C 4.81667 km/h
1457 29-05-2013 17:00:00 10.175 C 8.66 g/m*3 10.18 C 3.73333 km/h
1458 29-05-2013 18:00:00 10.175 C 8.76 g/m*3 10.18 C 0.8 km/h
1459 29-05-2013 19:00:00 9.76667 C 8.83 g/m*3 9.77 C 0 km/h
1460 29-05-2013 20:00:00 9.63333 C 8.81 g/m*3 9.63 C 0 km/h
1461 29-05-2013 21:00:00 9.15 C 8.55 g/m*3 9.15 C 0.4 km/h
1462 29-05-2013 22:00:00 8.80833 C 8.41 g/m*3 8.81 C 0.13333 km/h
1463 29-05-2013 23:00:00 8.65833 C 8.33 g/m*3 8.66 C 0 km/h
1464 30-05-2013 00:00:00 8.26667 C 8.11 g/m*3 8.27 C 0 km/h
1465 30-05-2013 01:00:00 7.6 C 7.79 g/m*3 7.6 C 0.4 km/h
1466 30-05-2013 02:00:00 7.20833 C 7.54 g/m*3 7.21 C 0.4 km/h
1467 30-05-2013 03:00:00 6.98333 C 7.49 g/m*3 6.98 C 0 km/h
1468 30-05-2013 04:00:00 6.51667 C 7.27 g/m*3 6.52 C 0 km/h
1469 30-05-2013 05:00:00 6.73333 C 7.39 g/m*3 6.73 C 0 km/h
1470 30-05-2013 06:00:00 7.4 C 7.73 g/m*3 7.4 C 0.13333 km/h
1471 30-05-2013 07:00:00 7.9 C 8.01 g/m*3 7.9 C 0 km/h
1472 30-05-2013 08:00:00 9.15 C 8.55 g/m*3 9.15 C 0 km/h
1473 30-05-2013 09:00:00 10.8 C 8.71 g/m*3 10.8 C 2.66667 km/h
1474 30-05-2013 10:00:00 12.06667 C 8.76 g/m*3 12.07 C 5.89167 km/h
1475 30-05-2013 11:00:00 12.89167 C 8.42 g/m*3 12.89 C 6.7 km/h
Sensor: Nr:Datum:Temp:Abs-Feuchte:Windchill:Wind:
Aussen-T/F 1476 30-05-2013 12:00:00 14.125 C 8.57 g/m*3 14.13 C 6.43333 km/h
1477 30-05-2013 13:00:00 14.125 C 8.37 g/m*3 14.13 C 7.39167 km/h
1478 30-05-2013 14:00:00 15.69167 C 8.37 g/m*3 15.69 C 7.66667 km/h
1479 30-05-2013 15:00:00 15.775 C 8.17 g/m*3 15.78 C 4.55 km/h
1480 30-05-2013 16:00:00 14.96667 C 9.58 g/m*3 14.97 C 1.46667 km/h
1481 30-05-2013 17:00:00 16.7 C 8.89 g/m*3 16.7 C 5.74167 km/h
1482 30-05-2013 18:00:00 17.95 C 8.49 g/m*3 17.95 C 8.73333 km/h
1483 30-05-2013 19:00:00 16.475 C 8.26 g/m*3 16.48 C 9.01667 km/h
1484 30-05-2013 20:00:00 15 C 8.22 g/m*3 15 C 5.89167 km/h
1485 30-05-2013 21:00:00 12.9 C 8.65 g/m*3 12.9 C 2.93333 km/h
1486 30-05-2013 22:00:00 11.75 C 8.58 g/m*3 11.75 C 0.93333 km/h
1487 30-05-2013 23:00:00 11.875 C 8.41 g/m*3 11.88 C 4.15 km/h
1488 31-05-2013 00:00:00 11.95 C 8.25 g/m*3 11.95 C 4.15 km/h
1489 31-05-2013 01:00:00 11.36667 C 8.56 g/m*3 11.37 C 3.34167 km/h
1490 31-05-2013 02:00:00 10.575 C 8.94 g/m*3 10.58 C 0.93333 km/h
1491 31-05-2013 03:00:00 10.225 C 9.02 g/m*3 10.23 C 1.86667 km/h
1492 31-05-2013 04:00:00 10.40833 C 9.16 g/m*3 10.41 C 4.68333 km/h
1493 31-05-2013 05:00:00 11.14167 C 9.52 g/m*3 11.14 C 12.63333 km/h
1494 31-05-2013 06:00:00 11.60833 C 9.84 g/m*3 11.61 C 10.35833 km/h
1495 31-05-2013 07:00:00 12.08333 C 10.15 g/m*3 12.08 C 12.9 km/h
1496 31-05-2013 08:00:00 12.55833 C 10.37 g/m*3 12.56 C 12.21667 km/h
1497 31-05-2013 09:00:00 12.875 C 10.49 g/m*3 12.88 C 9.275 km/h
1498 31-05-2013 10:00:00 13.15 C 10.53 g/m*3 13.15 C 9.675 km/h
1499 31-05-2013 11:00:00 13.41667 C 10.55 g/m*3 13.42 C 8.73333 km/h
1500 31-05-2013 12:00:00 13.21667 C 10.58 g/m*3 13.22 C 9.25833 km/h
Sensor: Nr:Datum:Temp:Abs-Feuchte:Windchill:Wind:
Aussen-T/F 1501 31-05-2013 13:00:00 13.69167 C 10.74 g/m*3 13.69 C 9.96667 km/h
1502 31-05-2013 14:00:00 14.11667 C 11.26 g/m*3 14.12 C 8.075 km/h
1503 31-05-2013 15:00:00 14.49167 C 11.52 g/m*3 14.49 C 4.69167 km/h
1504 31-05-2013 16:00:00 14.01667 C 11.55 g/m*3 14.02 C 0.13333 km/h
1505 31-05-2013 17:00:00 14.15 C 11.77 g/m*3 14.15 C 0.53333 km/h
1506 31-05-2013 18:00:00 14.31667 C 11.93 g/m*3 14.32 C 2 km/h
1507 31-05-2013 19:00:00 14.19167 C 11.84 g/m*3 14.19 C 2.675 km/h
1508 31-05-2013 20:00:00 15.15833 C 11.34 g/m*3 15.16 C 7.65833 km/h
1509 31-05-2013 21:00:00 16.64167 C 10.43 g/m*3 16.64 C 11.28333 km/h
1510 31-05-2013 22:00:00 16.08333 C 10.51 g/m*3 16.08 C 10.48333 km/h
1511 31-05-2013 23:00:00 15.31667 C 10.29 g/m*3 15.32 C 10.61667 km/h
1512 01-06-2013 00:00:00 14.5 C 10.32 g/m*3 14.5 C 6.84167 km/h
1513 01-06-2013 01:00:00 14.13333 C 10.38 g/m*3 14.13 C 8.725 km/h
1514 01-06-2013 02:00:00 13.375 C 9.93 g/m*3 13.38 C 10.75 km/h
1515 01-06-2013 03:00:00 12.55833 C 9.79 g/m*3 12.56 C 10.075 km/h
1516 01-06-2013 04:00:00 12.01667 C 9.68 g/m*3 12.02 C 12.09167 km/h
1517 01-06-2013 05:00:00 11.78333 C 9.58 g/m*3 11.78 C 11.95833 km/h
1518 01-06-2013 06:00:00 11.41667 C 9.51 g/m*3 11.42 C 11.15833 km/h
1519 01-06-2013 07:00:00 11.19167 C 9.42 g/m*3 11.19 C 9.54167 km/h
1520 01-06-2013 08:00:00 10.94167 C 9.27 g/m*3 9.48 C 11.825 km/h
1521 01-06-2013 09:00:00 11.05 C 9.26 g/m*3 11.05 C 12.9 km/h
1522 01-06-2013 10:00:00 10.9 C 9.25 g/m*3 9.35 C 12.36667 km/h
1523 01-06-2013 11:00:00 10.88333 C 9.22 g/m*3 9.21 C 13.3 km/h
1524 01-06-2013 12:00:00 10.53333 C 9.08 g/m*3 8.89 C 12.5 km/h
1525 01-06-2013 13:00:00 10.74167 C 9.16 g/m*3 9.38 C 10.89167 km/h
Sensor: Nr:Datum:Temp:Abs-Feuchte:Windchill:Wind:
Aussen-T/F 1526 01-06-2013 14:00:00 11.625 C 9.36 g/m*3 11.63 C 11.29167 km/h
1527 01-06-2013 15:00:00 12.46667 C 9.44 g/m*3 12.47 C 9.275 km/h
1528 01-06-2013 16:00:00 12.675 C 9.36 g/m*3 12.68 C 11.03333 km/h
1529 01-06-2013 17:00:00 12.80833 C 9.37 g/m*3 12.81 C 11.56667 km/h
1530 01-06-2013 18:00:00 12.825 C 9.35 g/m*3 12.83 C 10.21667 km/h
1531 01-06-2013 19:00:00 12.65833 C 9.29 g/m*3 12.66 C 9.94167 km/h
1532 01-06-2013 20:00:00 12.625 C 9.18 g/m*3 12.63 C 9.55 km/h
1533 01-06-2013 21:00:00 12.51667 C 9.09 g/m*3 12.52 C 6.43333 km/h
1534 01-06-2013 22:00:00 12.25 C 8.98 g/m*3 12.25 C 7.10833 km/h
1535 01-06-2013 23:00:00 11.81667 C 8.84 g/m*3 11.82 C 7.24167 km/h
1536 02-06-2013 00:00:00 11.01667 C 8.9 g/m*3 11.02 C 9.00833 km/h
1537 02-06-2013 01:00:00 10.5 C 8.66 g/m*3 8.93 C 11.95833 km/h
1538 02-06-2013 02:00:00 10.475 C 8.05 g/m*3 9.33 C 9.25833 km/h
1539 02-06-2013 03:00:00 10.26667 C 8.09 g/m*3 8.91 C 10.21667 km/h
1540 02-06-2013 04:00:00 9.81667 C 7.79 g/m*3 8.08 C 12.1 km/h
1541 02-06-2013 05:00:00 9.025 C 7.16 g/m*3 7.6 C 9.275 km/h
1542 02-06-2013 06:00:00 8.6 C 6.98 g/m*3 6.97 C 9.95833 km/h
1543 02-06-2013 07:00:00 8.65833 C 6.82 g/m*3 6.67 C 12.1 km/h
1544 02-06-2013 08:00:00 9.06667 C 6.75 g/m*3 6.81 C 14.63333 km/h
1545 02-06-2013 09:00:00 10.375 C 7.03 g/m*3 8.44 C 14.5 km/h
1546 02-06-2013 10:00:00 11.475 C 7.28 g/m*3 11.48 C 14.9 km/h
1547 02-06-2013 11:00:00 13.09167 C 7.41 g/m*3 13.09 C 14.36667 km/h
1548 02-06-2013 12:00:00 14.45 C 7.34 g/m*3 14.45 C 17.83333 km/h
1549 02-06-2013 13:00:00 15.56667 C 7.19 g/m*3 15.57 C 16.1 km/h
1550 02-06-2013 14:00:00 16.63333 C 7.55 g/m*3 16.63 C 16.1 km/h
Sensor: Nr:Datum:Temp:Abs-Feuchte:Windchill:Wind:
Aussen-T/F 1551 02-06-2013 15:00:00 17.79167 C 7.43 g/m*3 17.79 C 16.90833 km/h
1552 02-06-2013 16:00:00 18.83333 C 7.29 g/m*3 18.83 C 17.16667 km/h
1553 02-06-2013 17:00:00 18.86667 C 7.1 g/m*3 18.87 C 17.3 km/h
1554 02-06-2013 18:00:00 17.79167 C 6.84 g/m*3 17.79 C 13.96667 km/h
1555 02-06-2013 19:00:00 17.24167 C 6.73 g/m*3 17.24 C 11.29167 km/h
1556 02-06-2013 20:00:00 16.18333 C 6.27 g/m*3 16.18 C 9.41667 km/h
1557 02-06-2013 21:00:00 14.45 C 7.03 g/m*3 14.45 C 4.13333 km/h
1558 02-06-2013 22:00:00 12.575 C 7.33 g/m*3 12.58 C 2.4 km/h
1559 02-06-2013 23:00:00 11.2 C 7.31 g/m*3 11.2 C 3.2 km/h
1560 03-06-2013 00:00:00 10.79167 C 6.97 g/m*3 10.79 C 4.15 km/h
1561 03-06-2013 01:00:00 10.51667 C 6.52 g/m*3 10.52 C 4.40833 km/h
1562 03-06-2013 02:00:00 9.36667 C 6.39 g/m*3 9.37 C 3.34167 km/h
1563 03-06-2013 03:00:00 8.83333 C 6.33 g/m*3 8.83 C 2.675 km/h
1564 03-06-2013 04:00:00 8.75 C 6.16 g/m*3 8.27 C 5.20833 km/h
1565 03-06-2013 05:00:00 8.59167 C 6.18 g/m*3 7.77 C 6.3 km/h
1566 03-06-2013 06:00:00 8.43333 C 6.26 g/m*3 8.43 C 4.675 km/h
1567 03-06-2013 07:00:00 8.725 C 6.46 g/m*3 8.12 C 5.60833 km/h
1568 03-06-2013 08:00:00 9.56667 C 6.54 g/m*3 8.6 C 7.54167 km/h
1569 03-06-2013 09:00:00 10.43333 C 6.86 g/m*3 8.92 C 11.425 km/h
1570 03-06-2013 10:00:00 11.43333 C 7.1 g/m*3 11.43 C 14.5 km/h
1571 03-06-2013 11:00:00 12.35 C 7.24 g/m*3 12.35 C 13.83333 km/h
1572 03-06-2013 12:00:00 13.60833 C 7.38 g/m*3 13.61 C 14.5 km/h
1573 03-06-2013 13:00:00 15.075 C 7.54 g/m*3 15.08 C 14.23333 km/h
1574 03-06-2013 14:00:00 15.75 C 7.63 g/m*3 15.75 C 15.43333 km/h
1575 03-06-2013 15:00:00 17.25833 C 7.68 g/m*3 17.26 C 13.7 km/h
Sensor: Nr:Datum:Temp:Abs-Feuchte:Windchill:Wind:
Aussen-T/F 1576 03-06-2013 16:00:00 18.16667 C 7.82 g/m*3 18.17 C 13.3 km/h
1577 03-06-2013 17:00:00 18.35833 C 7.57 g/m*3 18.36 C 12.76667 km/h
1578 03-06-2013 18:00:00 18.73333 C 7.39 g/m*3 18.73 C 12.36667 km/h
1579 03-06-2013 19:00:00 18.03333 C 7.3 g/m*3 18.03 C 9.7 km/h
1580 03-06-2013 20:00:00 16.49167 C 7.33 g/m*3 16.49 C 6.56667 km/h
1581 03-06-2013 21:00:00 13.775 C 7.99 g/m*3 13.78 C 3.2 km/h
1582 03-06-2013 22:00:00 11.625 C 7.95 g/m*3 11.63 C 1.33333 km/h
1583 03-06-2013 23:00:00 11.03333 C 7.68 g/m*3 11.03 C 1.6 km/h
1584 04-06-2013 00:00:00 10.8 C 7.49 g/m*3 10.8 C 3.48333 km/h
1585 04-06-2013 01:00:00 9.71667 C 7.44 g/m*3 9.72 C 0.4 km/h
1586 04-06-2013 02:00:00 8.69167 C 7.4 g/m*3 8.69 C 1.6 km/h
1587 04-06-2013 03:00:00 8.33333 C 7.33 g/m*3 8.33 C 1.06667 km/h
1588 04-06-2013 04:00:00 7.56667 C 7.18 g/m*3 7.57 C 0.13333 km/h
1589 04-06-2013 05:00:00 6.99167 C 7.04 g/m*3 6.99 C 0.53333 km/h
1590 04-06-2013 06:00:00 7.29167 C 7.14 g/m*3 7.29 C 0.8 km/h
1591 04-06-2013 07:00:00 8.28333 C 7.37 g/m*3 8.28 C 4.13333 km/h
1592 04-06-2013 08:00:00 9.45833 C 7.47 g/m*3 8.51 C 7.38333 km/h
1593 04-06-2013 09:00:00 10.19167 C 7.43 g/m*3 9.55 C 6.575 km/h
1594 04-06-2013 10:00:00 12.09167 C 7.71 g/m*3 12.09 C 10.09167 km/h
1595 04-06-2013 11:00:00 13.65833 C 7.9 g/m*3 13.66 C 9.14167 km/h
1596 04-06-2013 12:00:00 15.45 C 8.15 g/m*3 15.45 C 6.84167 km/h
1597 04-06-2013 13:00:00 17.65 C 8.81 g/m*3 17.65 C 7.91667 km/h
1598 04-06-2013 14:00:00 19.4 C 9.34 g/m*3 19.4 C 8.73333 km/h
1599 04-06-2013 15:00:00 20.45 C 9.39 g/m*3 20.45 C 8.88333 km/h
1600 04-06-2013 16:00:00 21.475 C 9.45 g/m*3 21.48 C 10.61667 km/h
Sensor: Nr:Datum:Temp:Abs-Feuchte:Windchill:Wind:
Aussen-T/F 1601 04-06-2013 17:00:00 22.13333 C 9.6 g/m*3 22.13 C 9.41667 km/h
1602 04-06-2013 18:00:00 21.8 C 9.47 g/m*3 21.8 C 10.75833 km/h
1603 04-06-2013 19:00:00 20.975 C 9.94 g/m*3 20.98 C 8.34167 km/h
1604 04-06-2013 20:00:00 17.93333 C 10.73 g/m*3 17.93 C 2 km/h
1605 04-06-2013 21:00:00 15.5 C 10.62 g/m*3 15.5 C 0.93333 km/h
1606 04-06-2013 22:00:00 13.80833 C 9.82 g/m*3 13.81 C 2.53333 km/h
1607 04-06-2013 23:00:00 12.95 C 9.61 g/m*3 12.95 C 0.26667 km/h
1608 05-06-2013 00:00:00 12.04167 C 9.31 g/m*3 12.04 C 0 km/h
1609 05-06-2013 01:00:00 11.11667 C 9.07 g/m*3 11.12 C 0 km/h
1610 05-06-2013 02:00:00 10.26667 C 8.76 g/m*3 10.27 C 0 km/h
1611 05-06-2013 03:00:00 9.68333 C 8.56 g/m*3 9.68 C 0.26667 km/h
1612 05-06-2013 04:00:00 9.2 C 8.4 g/m*3 9.2 C 0 km/h
1613 05-06-2013 05:00:00 8.69167 C 8.2 g/m*3 8.69 C 0 km/h
1614 05-06-2013 06:00:00 8.79167 C 8.32 g/m*3 8.79 C 0 km/h
1615 05-06-2013 07:00:00 9.4 C 8.68 g/m*3 9.4 C 0 km/h
1616 05-06-2013 08:00:00 12.13333 C 9.83 g/m*3 12.13 C 0 km/h
1617 05-06-2013 09:00:00 14.48333 C 10.57 g/m*3 14.48 C 0.66667 km/h
1618 05-06-2013 10:00:00 17.475 C 11.56 g/m*3 17.48 C 2.80833 km/h
1619 05-06-2013 11:00:00 20.875 C 11.93 g/m*3 20.88 C 6.56667 km/h
1620 05-06-2013 12:00:00 22.75833 C 11.35 g/m*3 22.76 C 7.66667 km/h
1621 05-06-2013 13:00:00 23.40833 C 11.13 g/m*3 23.41 C 9.15833 km/h
1622 05-06-2013 14:00:00 22.9 C 11.44 g/m*3 22.9 C 5.48333 km/h
1623 05-06-2013 15:00:00 22.98333 C 11.81 g/m*3 22.98 C 3.89167 km/h
1624 05-06-2013 16:00:00 22.775 C 11.95 g/m*3 22.78 C 3.21667 km/h
1625 05-06-2013 17:00:00 20.76667 C 12.48 g/m*3 20.77 C 2.00833 km/h
Sensor: Nr:Datum:Temp:Abs-Feuchte:Windchill:Wind:
Aussen-T/F 1626 05-06-2013 18:00:00 23.84167 C 11.97 g/m*3 23.84 C 3.75 km/h
1627 05-06-2013 19:00:00 23.33333 C 11.29 g/m*3 23.33 C 5.76667 km/h
1628 05-06-2013 20:00:00 18.15 C 13.51 g/m*3 18.15 C 1.2 km/h
1629 05-06-2013 21:00:00 15.79167 C 12.31 g/m*3 15.79 C 1.06667 km/h
1630 05-06-2013 22:00:00 15.26667 C 11.71 g/m*3 15.27 C 0.66667 km/h
1631 05-06-2013 23:00:00 14.8 C 11.26 g/m*3 14.8 C 0.53333 km/h
1632 06-06-2013 00:00:00 14.15833 C 10.85 g/m*3 14.16 C 0.8 km/h
1633 06-06-2013 01:00:00 13.41667 C 10.28 g/m*3 13.42 C 0 km/h
1634 06-06-2013 02:00:00 12.75833 C 9.85 g/m*3 12.76 C 0 km/h
1635 06-06-2013 03:00:00 12.15 C 9.39 g/m*3 12.15 C 0 km/h
1636 06-06-2013 04:00:00 11.16667 C 9 g/m*3 11.17 C 0 km/h
1637 06-06-2013 05:00:00 10.24167 C 8.64 g/m*3 10.24 C 0 km/h
1638 06-06-2013 06:00:00 10.03333 C 8.63 g/m*3 10.03 C 0 km/h
1639 06-06-2013 07:00:00 10.73333 C 8.99 g/m*3 10.73 C 0 km/h
1640 06-06-2013 08:00:00 12.99167 C 9.84 g/m*3 12.99 C 0 km/h
1641 06-06-2013 09:00:00 15.10833 C 10.44 g/m*3 15.11 C 2.8 km/h
1642 06-06-2013 10:00:00 19.625 C 10.9 g/m*3 19.63 C 6.56667 km/h
1643 06-06-2013 11:00:00 22.125 C 11.11 g/m*3 22.13 C 7.90833 km/h
1644 06-06-2013 12:00:00 23.675 C 9.65 g/m*3 23.68 C 8.33333 km/h
1645 06-06-2013 13:00:00 24.73333 C 9.58 g/m*3 24.73 C 6.55833 km/h
1646 06-06-2013 14:00:00 25.48333 C 9.58 g/m*3 25.48 C 6.3 km/h
1647 06-06-2013 15:00:00 24.75 C 10.46 g/m*3 24.75 C 4.83333 km/h
1648 06-06-2013 16:00:00 25.56667 C 9.78 g/m*3 25.57 C 7.10833 km/h
1649 06-06-2013 17:00:00 25.99167 C 9.55 g/m*3 25.99 C 5.75 km/h
1650 06-06-2013 18:00:00 26.03333 C 9.49 g/m*3 26.03 C 5.74167 km/h
Sensor: Nr:Datum:Temp:Abs-Feuchte:Windchill:Wind:
Aussen-T/F 1651 06-06-2013 19:00:00 24.10833 C 10.8 g/m*3 24.11 C 3.20833 km/h
1652 06-06-2013 20:00:00 19.95 C 11.29 g/m*3 19.95 C 1.2 km/h
1653 06-06-2013 21:00:00 17.06667 C 10.81 g/m*3 17.07 C 1.6 km/h
1654 06-06-2013 22:00:00 15.8 C 10.1 g/m*3 15.8 C 0.26667 km/h
1655 06-06-2013 23:00:00 14.54167 C 9.69 g/m*3 14.54 C 0 km/h
1656 07-06-2013 00:00:00 13.39167 C 9.37 g/m*3 13.39 C 0 km/h
1657 07-06-2013 01:00:00 12.43333 C 9.14 g/m*3 12.43 C 0.26667 km/h
1658 07-06-2013 02:00:00 11.625 C 9.13 g/m*3 11.63 C 0.13333 km/h
1659 07-06-2013 03:00:00 10.98333 C 8.97 g/m*3 10.98 C 0 km/h
1660 07-06-2013 04:00:00 10.40833 C 8.82 g/m*3 10.41 C 0 km/h
1661 07-06-2013 05:00:00 10.025 C 8.77 g/m*3 10.03 C 0 km/h
1662 07-06-2013 06:00:00 10.025 C 8.85 g/m*3 10.03 C 0 km/h
1663 07-06-2013 07:00:00 10.86667 C 9.29 g/m*3 10.87 C 0.13333 km/h
1664 07-06-2013 08:00:00 13.33333 C 10.12 g/m*3 13.33 C 0 km/h
1665 07-06-2013 09:00:00 14.85 C 10.97 g/m*3 14.85 C 0 km/h
1666 07-06-2013 10:00:00 17.5 C 12.27 g/m*3 17.5 C 0.93333 km/h
1667 07-06-2013 11:00:00 20.8 C 13.26 g/m*3 20.8 C 1.73333 km/h
1668 07-06-2013 12:00:00 22.85 C 12.4 g/m*3 22.85 C 2.26667 km/h
1669 07-06-2013 13:00:00 25.45 C 11.15 g/m*3 25.45 C 5.89167 km/h
1670 07-06-2013 14:00:00 26.44167 C 10.6 g/m*3 26.44 C 8.46667 km/h
1671 07-06-2013 15:00:00 26.08333 C 10.86 g/m*3 26.08 C 4.29167 km/h
1672 07-06-2013 16:00:00 26.88333 C 10.72 g/m*3 26.88 C 5.9 km/h
1673 07-06-2013 17:00:00 28.06667 C 9.55 g/m*3 28.07 C 4.94167 km/h
1674 07-06-2013 18:00:00 27.35833 C 10.7 g/m*3 27.36 C 3.33333 km/h
1675 07-06-2013 19:00:00 23.63333 C 12.63 g/m*3 23.63 C 1.2 km/h
Sensor: Nr:Datum:Temp:Abs-Feuchte:Windchill:Wind:
Aussen-T/F 1676 07-06-2013 20:00:00 20.45833 C 12.28 g/m*3 20.46 C 0.8 km/h
1677 07-06-2013 21:00:00 18.26667 C 11.59 g/m*3 18.27 C 1.06667 km/h
1678 07-06-2013 22:00:00 17.4 C 11.33 g/m*3 17.4 C 0.53333 km/h
1679 07-06-2013 23:00:00 16.425 C 11.09 g/m*3 16.43 C 0 km/h
1680 08-06-2013 00:00:00 15.29167 C 10.75 g/m*3 15.29 C 0.26667 km/h
1681 08-06-2013 01:00:00 14.50833 C 10.7 g/m*3 14.51 C 0.26667 km/h
1682 08-06-2013 02:00:00 13.80833 C 10.5 g/m*3 13.81 C 0 km/h
1683 08-06-2013 03:00:00 13.15833 C 10.41 g/m*3 13.16 C 0 km/h
1684 08-06-2013 04:00:00 12.64167 C 10.25 g/m*3 12.64 C 0 km/h
1685 08-06-2013 05:00:00 12.25833 C 10.15 g/m*3 12.26 C 0 km/h
1686 08-06-2013 06:00:00 12.475 C 10.34 g/m*3 12.48 C 0 km/h
1687 08-06-2013 07:00:00 13.45 C 10.84 g/m*3 13.45 C 0 km/h
1688 08-06-2013 08:00:00 15.8 C 11.89 g/m*3 15.8 C 0 km/h
1689 08-06-2013 09:00:00 17.35 C 12.51 g/m*3 17.35 C 0.53333 km/h
1690 08-06-2013 10:00:00 19.95 C 13.56 g/m*3 19.95 C 1.6 km/h
1691 08-06-2013 11:00:00 23.775 C 13.96 g/m*3 23.78 C 4.675 km/h
1692 08-06-2013 12:00:00 24.95833 C 13.63 g/m*3 24.96 C 5.08333 km/h
1693 08-06-2013 13:00:00 26.425 C 12.15 g/m*3 26.43 C 6.85 km/h
1694 08-06-2013 14:00:00 26.79167 C 12.32 g/m*3 26.79 C 7.78333 km/h
1695 08-06-2013 15:00:00 23.21667 C 14.1 g/m*3 23.22 C 1.73333 km/h
1696 08-06-2013 16:00:00 20.975 C 14.66 g/m*3 20.98 C 0 km/h
1697 08-06-2013 17:00:00 21.1 C 14.17 g/m*3 21.1 C 3.36667 km/h
1698 08-06-2013 18:00:00 21.00833 C 13.23 g/m*3 21.01 C 2.13333 km/h
1699 08-06-2013 19:00:00 21.88333 C 13.58 g/m*3 21.88 C 2.53333 km/h
1700 08-06-2013 20:00:00 20.75833 C 14.22 g/m*3 20.76 C 0.13333 km/h
Sensor: Nr:Datum:Temp:Abs-Feuchte:Windchill:Wind:
Aussen-T/F 1701 08-06-2013 21:00:00 18.58333 C 13.57 g/m*3 18.58 C 0.13333 km/h
1702 08-06-2013 22:00:00 17.80833 C 13.11 g/m*3 17.81 C 0.26667 km/h
1703 08-06-2013 23:00:00 16.775 C 12.23 g/m*3 16.77 C 0.4 km/h
1704 09-06-2013 00:00:00 15.99167 C 12.11 g/m*3 15.99 C 0 km/h
1705 09-06-2013 01:00:00 15.35833 C 11.95 g/m*3 15.36 C 0 km/h
1706 09-06-2013 02:00:00 15.25833 C 12.02 g/m*3 15.26 C 0 km/h
1707 09-06-2013 03:00:00 14.95833 C 11.87 g/m*3 14.96 C 0 km/h
1708 09-06-2013 04:00:00 14.06667 C 11.26 g/m*3 14.07 C 0 km/h
1709 09-06-2013 05:00:00 13.68333 C 11.12 g/m*3 13.68 C 0 km/h
1710 09-06-2013 06:00:00 14.50833 C 11.24 g/m*3 14.51 C 2.00833 km/h
1711 09-06-2013 07:00:00 15.15 C 11.1 g/m*3 15.15 C 4.96667 km/h
1712 09-06-2013 08:00:00 15.56667 C 10.97 g/m*3 15.57 C 5.9 km/h
1713 09-06-2013 09:00:00 16.29167 C 11 g/m*3 16.29 C 5.5 km/h
1714 09-06-2013 10:00:00 17.15 C 11.39 g/m*3 17.15 C 5.075 km/h
1715 09-06-2013 11:00:00 16.21667 C 11.79 g/m*3 16.22 C 0.66667 km/h
1716 09-06-2013 12:00:00 15.425 C 12.2 g/m*3 15.43 C 0.13333 km/h
1717 09-06-2013 13:00:00 15.44167 C 12.37 g/m*3 15.44 C 0.4 km/h
1718 09-06-2013 14:00:00 15.34167 C 12.2 g/m*3 15.34 C 3.35 km/h
1719 09-06-2013 15:00:00 15.1 C 11.63 g/m*3 15.1 C 5.5 km/h
1720 09-06-2013 16:00:00 15.2 C 11.55 g/m*3 15.2 C 4 km/h
1721 09-06-2013 17:00:00 16.05 C 11.84 g/m*3 16.05 C 6.71667 km/h
1722 09-06-2013 18:00:00 15.59167 C 11.51 g/m*3 15.59 C 4.40833 km/h
1723 09-06-2013 19:00:00 15.16667 C 11.52 g/m*3 15.17 C 1.73333 km/h
1724 09-06-2013 20:00:00 14.35 C 11.52 g/m*3 14.35 C 1.33333 km/h
1725 09-06-2013 21:00:00 14.5 C 11.41 g/m*3 14.5 C 2.93333 km/h
Sensor: Nr:Datum:Temp:Abs-Feuchte:Windchill:Wind:
Aussen-T/F 1726 09-06-2013 22:00:00 14.15833 C 11.49 g/m*3 14.16 C 0.13333 km/h
1727 09-06-2013 23:00:00 13.99167 C 11.53 g/m*3 13.99 C 0 km/h
1728 10-06-2013 00:00:00 13.91667 C 11.52 g/m*3 13.92 C 0 km/h
1729 10-06-2013 01:00:00 13.96667 C 11.56 g/m*3 13.97 C 0.26667 km/h
1730 10-06-2013 02:00:00 14.075 C 11.63 g/m*3 14.08 C 1.86667 km/h
1731 10-06-2013 03:00:00 14.025 C 11.48 g/m*3 14.03 C 4.15 km/h
1732 10-06-2013 04:00:00 13.88333 C 11.38 g/m*3 13.88 C 6.04167 km/h
1733 10-06-2013 05:00:00 13.44167 C 11.07 g/m*3 13.44 C 6.3 km/h
1734 10-06-2013 06:00:00 12.63333 C 10.46 g/m*3 12.63 C 10.49167 km/h
1735 10-06-2013 07:00:00 11.925 C 9.98 g/m*3 11.93 C 8.18333 km/h
1736 10-06-2013 08:00:00 11.78333 C 9.97 g/m*3 11.78 C 5.61667 km/h
1737 10-06-2013 09:00:00 11.78333 C 9.97 g/m*3 11.78 C 6.70833 km/h
1738 10-06-2013 10:00:00 11.39167 C 9.64 g/m*3 11.39 C 8.2 km/h
1739 10-06-2013 11:00:00 11.175 C 9.51 g/m*3 11.18 C 8.73333 km/h
1740 10-06-2013 12:00:00 11.325 C 9.65 g/m*3 11.33 C 5.76667 km/h
1741 10-06-2013 13:00:00 12.025 C 9.93 g/m*3 12.03 C 8.20833 km/h
1742 10-06-2013 14:00:00 12.50833 C 9.99 g/m*3 12.51 C 7.91667 km/h
1743 10-06-2013 15:00:00 12.91667 C 10.2 g/m*3 12.92 C 6.3 km/h
1744 10-06-2013 16:00:00 13.54167 C 10.48 g/m*3 13.54 C 4.95 km/h
1745 10-06-2013 17:00:00 13.41667 C 10.89 g/m*3 13.42 C 0 km/h
1746 10-06-2013 18:00:00 13.19167 C 10.93 g/m*3 13.19 C 0 km/h
1747 10-06-2013 19:00:00 12.95833 C 10.87 g/m*3 12.96 C 0 km/h
1748 10-06-2013 20:00:00 12.8 C 10.87 g/m*3 12.8 C 0 km/h
1749 10-06-2013 21:00:00 12.68333 C 10.79 g/m*3 12.68 C 0 km/h
1750 10-06-2013 22:00:00 12.60833 C 10.74 g/m*3 12.61 C 0 km/h
Sensor: Nr:Datum:Temp:Abs-Feuchte:Windchill:Wind:
Aussen-T/F 1751 10-06-2013 23:00:00 12.6 C 10.73 g/m*3 12.6 C 0.4 km/h
1752 11-06-2013 00:00:00 12.58333 C 10.72 g/m*3 12.58 C 0.13333 km/h
1753 11-06-2013 01:00:00 12.41667 C 10.61 g/m*3 12.42 C 0.26667 km/h
1754 11-06-2013 02:00:00 12.23333 C 10.49 g/m*3 12.23 C 2.26667 km/h
1755 11-06-2013 03:00:00 11.7 C 10.15 g/m*3 11.7 C 0 km/h
1756 11-06-2013 04:00:00 11.36667 C 9.94 g/m*3 11.37 C 0 km/h
1757 11-06-2013 05:00:00 10.94167 C 9.72 g/m*3 10.94 C 0.53333 km/h
1758 11-06-2013 06:00:00 11.26667 C 9.95 g/m*3 11.27 C 2.13333 km/h
1759 11-06-2013 07:00:00 11.4 C 9.96 g/m*3 11.4 C 2.26667 km/h
1760 11-06-2013 08:00:00 12.575 C 10.53 g/m*3 12.58 C 7.125 km/h
1761 11-06-2013 09:00:00 14.05 C 10.81 g/m*3 14.05 C 8.05833 km/h
1762 11-06-2013 10:00:00 15.64167 C 10.9 g/m*3 15.64 C 9.025 km/h
1763 11-06-2013 11:00:00 17.59167 C 10.99 g/m*3 17.59 C 6.18333 km/h
1764 11-06-2013 12:00:00 18.75833 C 10.32 g/m*3 18.76 C 7.4 km/h
1765 11-06-2013 13:00:00 19.01667 C 10.83 g/m*3 19.02 C 3.88333 km/h
1766 11-06-2013 14:00:00 20.625 C 10.69 g/m*3 20.63 C 5.90833 km/h
1767 11-06-2013 15:00:00 19.375 C 11.63 g/m*3 19.38 C 2.68333 km/h
1768 11-06-2013 16:00:00 17.09167 C 12.31 g/m*3 17.09 C 0.26667 km/h
1769 11-06-2013 17:00:00 20.3 C 11.96 g/m*3 20.3 C 3.475 km/h
1770 11-06-2013 18:00:00 22.125 C 11.55 g/m*3 22.13 C 2.66667 km/h
1771 11-06-2013 19:00:00 17.65833 C 12.72 g/m*3 17.66 C 0.4 km/h
1772 11-06-2013 20:00:00 16.78333 C 12.47 g/m*3 16.78 C 0.13333 km/h
1773 11-06-2013 21:00:00 15.5 C 11.85 g/m*3 15.5 C 0.13333 km/h
1774 11-06-2013 22:00:00 14.575 C 11.41 g/m*3 14.58 C 0 km/h
1775 11-06-2013 23:00:00 14.13333 C 11.29 g/m*3 14.13 C 0.13333 km/h
Sensor: Nr:Datum:Temp:Abs-Feuchte:Windchill:Wind:
Aussen-T/F 1776 12-06-2013 00:00:00 13.475 C 10.94 g/m*3 13.48 C 0.26667 km/h
1777 12-06-2013 01:00:00 12.81667 C 10.58 g/m*3 12.82 C 0 km/h
1778 12-06-2013 02:00:00 12.51667 C 10.52 g/m*3 12.52 C 0.13333 km/h
1779 12-06-2013 03:00:00 12.66667 C 10.66 g/m*3 12.67 C 0 km/h
1780 12-06-2013 04:00:00 12.65 C 10.65 g/m*3 12.65 C 0 km/h
1781 12-06-2013 05:00:00 12.76667 C 10.73 g/m*3 12.77 C 0 km/h
1782 12-06-2013 06:00:00 12.50833 C 10.57 g/m*3 12.51 C 0 km/h
1783 12-06-2013 07:00:00 13.80833 C 11.37 g/m*3 13.81 C 0.4 km/h
1784 12-06-2013 08:00:00 16.05833 C 12.12 g/m*3 16.06 C 0.4 km/h
1785 12-06-2013 09:00:00 17.60833 C 12.88 g/m*3 17.61 C 1.33333 km/h
1786 12-06-2013 10:00:00 19.875 C 12.9 g/m*3 19.88 C 8.60833 km/h
1787 12-06-2013 11:00:00 21.04167 C 12.38 g/m*3 21.04 C 12.49167 km/h
1788 12-06-2013 12:00:00 21.7 C 12.59 g/m*3 21.7 C 10.89167 km/h
1789 12-06-2013 13:00:00 21.825 C 12.87 g/m*3 21.83 C 7.39167 km/h
1790 12-06-2013 14:00:00 21.99167 C 13.13 g/m*3 21.99 C 5.89167 km/h
1791 12-06-2013 15:00:00 21.35 C 13.76 g/m*3 21.35 C 4 km/h
1792 12-06-2013 16:00:00 19.73333 C 13.77 g/m*3 19.73 C 2.13333 km/h
1793 12-06-2013 17:00:00 21.14167 C 13.7 g/m*3 21.14 C 4.28333 km/h
1794 12-06-2013 18:00:00 20.525 C 13.83 g/m*3 20.53 C 2.54167 km/h
1795 12-06-2013 19:00:00 21.44167 C 13.28 g/m*3 21.44 C 4.55833 km/h
1796 12-06-2013 20:00:00 19.34167 C 13.61 g/m*3 19.34 C 0.93333 km/h
1797 12-06-2013 21:00:00 18.59167 C 13.3 g/m*3 18.59 C 1.73333 km/h
1798 12-06-2013 22:00:00 17.24167 C 13.03 g/m*3 17.24 C 0 km/h
1799 12-06-2013 23:00:00 16.98333 C 13.05 g/m*3 16.98 C 0 km/h
1800 13-06-2013 00:00:00 17.11667 C 13.16 g/m*3 17.12 C 1.06667 km/h
Sensor: Nr:Datum:Temp:Abs-Feuchte:Windchill:Wind:
Aussen-T/F 1801 13-06-2013 01:00:00 17.59167 C 13.3 g/m*3 17.59 C 1.34167 km/h
1802 13-06-2013 02:00:00 17.36667 C 13.35 g/m*3 17.37 C 0.26667 km/h
1803 13-06-2013 03:00:00 17.075 C 13.35 g/m*3 17.08 C 0.26667 km/h
1804 13-06-2013 04:00:00 16.39167 C 12.99 g/m*3 16.39 C 0 km/h
1805 13-06-2013 05:00:00 16.23333 C 13.07 g/m*3 16.23 C 0 km/h
1806 13-06-2013 06:00:00 16.76667 C 13.42 g/m*3 16.77 C 0.4 km/h
1807 13-06-2013 07:00:00 17.35833 C 13.77 g/m*3 17.36 C 0.13333 km/h
1808 13-06-2013 08:00:00 17.76667 C 14.04 g/m*3 17.77 C 0 km/h
1809 13-06-2013 09:00:00 19.15 C 14.47 g/m*3 19.15 C 2.275 km/h
1810 13-06-2013 10:00:00 21.53333 C 14.61 g/m*3 21.53 C 10.625 km/h
1811 13-06-2013 11:00:00 23.35 C 14.66 g/m*3 23.35 C 13.16667 km/h
1812 13-06-2013 12:00:00 24.25 C 14.4 g/m*3 24.25 C 12.63333 km/h
1813 13-06-2013 13:00:00 24.76667 C 13.82 g/m*3 24.77 C 12.36667 km/h
1814 13-06-2013 14:00:00 24.89167 C 14.95 g/m*3 24.89 C 5.63333 km/h
1815 13-06-2013 15:00:00 23.96667 C 15.64 g/m*3 23.97 C 2.80833 km/h
1816 13-06-2013 16:00:00 21.28333 C 15.27 g/m*3 21.28 C 1.2 km/h
1817 13-06-2013 17:00:00 20.59167 C 14.77 g/m*3 20.59 C 6.175 km/h
1818 13-06-2013 18:00:00 19.60833 C 14.23 g/m*3 19.61 C 5.90833 km/h
1819 13-06-2013 19:00:00 14.89167 C 10.98 g/m*3 14.89 C 10.325 km/h
1820 13-06-2013 20:00:00 13.11667 C 10.78 g/m*3 13.12 C 0.13333 km/h
1821 13-06-2013 21:00:00 12.95 C 10.79 g/m*3 12.95 C 0.93333 km/h
1822 13-06-2013 22:00:00 12.76667 C 10.69 g/m*3 12.77 C 2.675 km/h
1823 13-06-2013 23:00:00 12.09167 C 10.04 g/m*3 12.09 C 3.33333 km/h
1824 14-06-2013 00:00:00 11.825 C 9.63 g/m*3 11.83 C 4.94167 km/h
1825 14-06-2013 01:00:00 11.74167 C 9.4 g/m*3 11.74 C 9.81667 km/h
Sensor: Nr:Datum:Temp:Abs-Feuchte:Windchill:Wind:
Aussen-T/F 1826 14-06-2013 02:00:00 11.71667 C 9.29 g/m*3 11.72 C 11.275 km/h
1827 14-06-2013 03:00:00 11.25833 C 9.22 g/m*3 11.26 C 6.3 km/h
1828 14-06-2013 04:00:00 11.175 C 9.11 g/m*3 11.18 C 7.10833 km/h
1829 14-06-2013 05:00:00 11.21667 C 9.12 g/m*3 11.22 C 4.68333 km/h
1830 14-06-2013 06:00:00 11.15833 C 9.15 g/m*3 11.16 C 5.90833 km/h
1831 14-06-2013 07:00:00 11.93333 C 9.28 g/m*3 11.93 C 7.8 km/h
1832 14-06-2013 08:00:00 13.125 C 9.44 g/m*3 13.13 C 9.94167 km/h
1833 14-06-2013 09:00:00 14.06667 C 9.5 g/m*3 14.07 C 11.55833 km/h
1834 14-06-2013 10:00:00 15.10833 C 9.42 g/m*3 15.11 C 9.69167 km/h
1835 14-06-2013 11:00:00 16.1 C 9.46 g/m*3 16.1 C 10.5 km/h
1836 14-06-2013 12:00:00 17.38333 C 9.73 g/m*3 17.38 C 10.5 km/h
1837 14-06-2013 13:00:00 18.175 C 8.94 g/m*3 18.18 C 8.60833 km/h
1838 14-06-2013 14:00:00 18.16667 C 8.92 g/m*3 18.17 C 8.325 km/h
1839 14-06-2013 15:00:00 17.7 C 8.93 g/m*3 17.7 C 6.03333 km/h
1840 14-06-2013 16:00:00 17.275 C 10.06 g/m*3 17.27 C 2.53333 km/h
1841 14-06-2013 17:00:00 18.44167 C 9.71 g/m*3 18.44 C 3.75833 km/h
1842 14-06-2013 18:00:00 17.73333 C 10.14 g/m*3 17.73 C 2 km/h
1843 14-06-2013 19:00:00 17.96667 C 10.78 g/m*3 17.97 C 3.21667 km/h
1844 14-06-2013 20:00:00 16.025 C 11.42 g/m*3 16.02 C 0 km/h
1845 14-06-2013 21:00:00 13.99167 C 10.45 g/m*3 13.99 C 0.93333 km/h
1846 14-06-2013 22:00:00 12.35 C 9.67 g/m*3 12.35 C 0.53333 km/h
1847 14-06-2013 23:00:00 11.86667 C 9.54 g/m*3 11.87 C 0 km/h
1848 15-06-2013 00:00:00 11.23333 C 9.18 g/m*3 11.23 C 0 km/h
1849 15-06-2013 01:00:00 10.40833 C 8.93 g/m*3 10.41 C 0 km/h
1850 15-06-2013 02:00:00 9.76667 C 8.7 g/m*3 9.77 C 0 km/h
Sensor: Nr:Datum:Temp:Abs-Feuchte:Windchill:Wind:
Aussen-T/F 1851 15-06-2013 03:00:00 9.54167 C 8.67 g/m*3 9.54 C 0.13333 km/h
1852 15-06-2013 04:00:00 9.575 C 8.75 g/m*3 9.57 C 0.13333 km/h
1853 15-06-2013 05:00:00 9.33333 C 8.63 g/m*3 9.33 C 0 km/h
1854 15-06-2013 06:00:00 9.675 C 8.84 g/m*3 9.68 C 0.13333 km/h
1855 15-06-2013 07:00:00 10.6 C 9.24 g/m*3 10.6 C 1.33333 km/h
1856 15-06-2013 08:00:00 12.125 C 9.76 g/m*3 12.13 C 1.6 km/h
1857 15-06-2013 09:00:00 14.16667 C 10.45 g/m*3 14.17 C 1.86667 km/h
1858 15-06-2013 10:00:00 17.33333 C 11.45 g/m*3 17.33 C 5.36667 km/h
1859 15-06-2013 11:00:00 18.75833 C 11.13 g/m*3 18.76 C 12.9 km/h
1860 15-06-2013 12:00:00 19.575 C 11.13 g/m*3 19.58 C 13.3 km/h
1861 15-06-2013 13:00:00 19.65833 C 11.01 g/m*3 19.66 C 10.74167 km/h
1862 15-06-2013 14:00:00 19.84167 C 10.6 g/m*3 19.84 C 11.28333 km/h
1863 15-06-2013 15:00:00 20.825 C 10.9 g/m*3 20.83 C 10.625 km/h
1864 15-06-2013 16:00:00 19.90833 C 10.36 g/m*3 19.91 C 13.025 km/h
1865 15-06-2013 17:00:00 19.925 C 10.31 g/m*3 19.93 C 14.23333 km/h
1866 15-06-2013 18:00:00 19.70833 C 10.5 g/m*3 19.71 C 13.7 km/h
1867 15-06-2013 19:00:00 19.275 C 10.21 g/m*3 19.27 C 12.36667 km/h
1868 15-06-2013 20:00:00 18.93333 C 9.96 g/m*3 18.93 C 11.025 km/h
1869 15-06-2013 21:00:00 17.04167 C 10.24 g/m*3 17.04 C 4.69167 km/h
1870 15-06-2013 22:00:00 15.09167 C 10.17 g/m*3 15.09 C 1.06667 km/h
1871 15-06-2013 23:00:00 13.14167 C 9.86 g/m*3 13.14 C 0 km/h
1872 16-06-2013 00:00:00 12.73333 C 9.62 g/m*3 12.73 C 0.26667 km/h
1873 16-06-2013 01:00:00 12.29167 C 9.49 g/m*3 12.29 C 0.66667 km/h
1874 16-06-2013 02:00:00 11.60833 C 9.26 g/m*3 11.61 C 0.66667 km/h
1875 16-06-2013 03:00:00 11.46667 C 9.04 g/m*3 11.47 C 3.89167 km/h
Sensor: Nr:Datum:Temp:Abs-Feuchte:Windchill:Wind:
Aussen-T/F 1876 16-06-2013 04:00:00 10.96667 C 8.8 g/m*3 10.97 C 2.93333 km/h
1877 16-06-2013 05:00:00 11.06667 C 8.77 g/m*3 11.07 C 5.75833 km/h
1878 16-06-2013 06:00:00 11.21667 C 8.83 g/m*3 11.22 C 4.66667 km/h
1879 16-06-2013 07:00:00 11.85833 C 9.04 g/m*3 11.86 C 5.61667 km/h
1880 16-06-2013 08:00:00 12.96667 C 9.45 g/m*3 12.97 C 8.075 km/h
1881 16-06-2013 09:00:00 15.55833 C 9.58 g/m*3 15.56 C 8.35 km/h
1882 16-06-2013 10:00:00 17.19167 C 9.78 g/m*3 17.19 C 8.49167 km/h
1883 16-06-2013 11:00:00 18.6 C 9.62 g/m*3 18.6 C 11.425 km/h
1884 16-06-2013 12:00:00 19.29167 C 9.39 g/m*3 19.29 C 12.23333 km/h
1885 16-06-2013 13:00:00 20.40833 C 9.44 g/m*3 20.41 C 11.55833 km/h
1886 16-06-2013 14:00:00 21.51667 C 9.53 g/m*3 21.52 C 11.3 km/h
1887 16-06-2013 15:00:00 22.53333 C 9.31 g/m*3 22.53 C 10.36667 km/h
1888 16-06-2013 16:00:00 23.375 C 9.36 g/m*3 23.38 C 8.75 km/h
1889 16-06-2013 17:00:00 23.76667 C 9.04 g/m*3 23.77 C 7.23333 km/h
1890 16-06-2013 18:00:00 23.83333 C 8.87 g/m*3 23.83 C 4.93333 km/h
1891 16-06-2013 19:00:00 20.48333 C 11.81 g/m*3 20.48 C 0.93333 km/h
1892 16-06-2013 20:00:00 17.41667 C 11.89 g/m*3 17.42 C 0.93333 km/h
1893 16-06-2013 21:00:00 16.79167 C 11.31 g/m*3 16.79 C 0.4 km/h
1894 16-06-2013 22:00:00 16.05 C 10.93 g/m*3 16.05 C 0 km/h
1895 16-06-2013 23:00:00 15.43333 C 10.6 g/m*3 15.43 C 0 km/h
1896 17-06-2013 00:00:00 14.59167 C 10.37 g/m*3 14.59 C 0 km/h
1897 17-06-2013 01:00:00 13.675 C 9.98 g/m*3 13.68 C 0 km/h
1898 17-06-2013 02:00:00 13.11667 C 9.9 g/m*3 13.12 C 0 km/h
1899 17-06-2013 03:00:00 12.60833 C 9.87 g/m*3 12.61 C 0 km/h
1900 17-06-2013 04:00:00 12.44167 C 9.97 g/m*3 12.44 C 0 km/h
Sensor: Nr:Datum:Temp:Abs-Feuchte:Windchill:Wind:
Aussen-T/F 1901 17-06-2013 05:00:00 12.8 C 10.19 g/m*3 12.8 C 0.26667 km/h
1902 17-06-2013 06:00:00 12.925 C 10.29 g/m*3 12.93 C 0.26667 km/h
1903 17-06-2013 07:00:00 13.76667 C 10.78 g/m*3 13.77 C 0.66667 km/h
1904 17-06-2013 08:00:00 15.8 C 11.72 g/m*3 15.8 C 1.33333 km/h
1905 17-06-2013 09:00:00 17.53333 C 11.78 g/m*3 17.53 C 2.80833 km/h
1906 17-06-2013 10:00:00 20.89167 C 11.86 g/m*3 20.89 C 4.8 km/h
1907 17-06-2013 11:00:00 23.3 C 12.58 g/m*3 23.3 C 7.125 km/h
1908 17-06-2013 12:00:00 25.35833 C 13.41 g/m*3 25.36 C 8.225 km/h
1909 17-06-2013 13:00:00 27.26667 C 14.78 g/m*3 27.27 C 7.26667 km/h
1910 17-06-2013 14:00:00 28.91667 C 14.96 g/m*3 28.92 C 9.55833 km/h
1911 17-06-2013 15:00:00 30.325 C 15.12 g/m*3 30.33 C 8.49167 km/h
1912 17-06-2013 16:00:00 31.38333 C 15.35 g/m*3 31.38 C 8.88333 km/h
1913 17-06-2013 17:00:00 28.65833 C 17.34 g/m*3 28.66 C 3.48333 km/h
1914 17-06-2013 18:00:00 29.94167 C 16.47 g/m*3 29.94 C 5.74167 km/h
1915 17-06-2013 19:00:00 28.54167 C 17.46 g/m*3 28.54 C 4.55 km/h
1916 17-06-2013 20:00:00 24.525 C 17.54 g/m*3 24.53 C 1.6 km/h
1917 17-06-2013 21:00:00 22.55833 C 16.78 g/m*3 22.56 C 1.33333 km/h
1918 17-06-2013 22:00:00 21.725 C 16.46 g/m*3 21.73 C 0.26667 km/h
1919 17-06-2013 23:00:00 21.16667 C 16.32 g/m*3 21.17 C 0.13333 km/h
1920 18-06-2013 00:00:00 20.80833 C 15.88 g/m*3 20.81 C 0.94167 km/h
1921 18-06-2013 01:00:00 19.725 C 15.33 g/m*3 19.73 C 0 km/h
1922 18-06-2013 02:00:00 18.84167 C 14.91 g/m*3 18.84 C 0.4 km/h
1923 18-06-2013 03:00:00 18.85833 C 15.14 g/m*3 18.86 C 0.66667 km/h
1924 18-06-2013 04:00:00 18.55 C 14.97 g/m*3 18.55 C 0.53333 km/h
1925 18-06-2013 05:00:00 17.89167 C 14.49 g/m*3 17.89 C 0 km/h
Sensor: Nr:Datum:Temp:Abs-Feuchte:Windchill:Wind:
Aussen-T/F 1926 18-06-2013 06:00:00 17.925 C 14.68 g/m*3 17.93 C 0 km/h
1927 18-06-2013 07:00:00 18.3 C 14.87 g/m*3 18.3 C 0 km/h
1928 18-06-2013 08:00:00 20.13333 C 15.78 g/m*3 20.13 C 0.4 km/h
1929 18-06-2013 09:00:00 20.975 C 16.22 g/m*3 20.98 C 0.53333 km/h
1930 18-06-2013 10:00:00 22.81667 C 17.09 g/m*3 22.82 C 1.73333 km/h
1931 18-06-2013 11:00:00 24.95 C 17.89 g/m*3 24.95 C 2.4 km/h
1932 18-06-2013 12:00:00 26.81667 C 17.88 g/m*3 26.82 C 3.06667 km/h
1933 18-06-2013 13:00:00 29.94167 C 18.14 g/m*3 29.94 C 5.60833 km/h
1934 18-06-2013 14:00:00 31.275 C 17.1 g/m*3 31.28 C 4.53333 km/h
1935 18-06-2013 15:00:00 32.875 C 15.44 g/m*3 32.88 C 5.475 km/h
1936 18-06-2013 16:00:00 31.65 C 17.45 g/m*3 31.65 C 4.53333 km/h
1937 18-06-2013 17:00:00 31.49167 C 17.93 g/m*3 31.49 C 4.68333 km/h
1938 18-06-2013 18:00:00 29.525 C 19.19 g/m*3 29.53 C 1.46667 km/h
1939 18-06-2013 19:00:00 27.5 C 18.56 g/m*3 27.5 C 1.33333 km/h
1940 18-06-2013 20:00:00 25.19167 C 18.11 g/m*3 25.19 C 1.6 km/h
1941 18-06-2013 21:00:00 23.14167 C 17.01 g/m*3 23.14 C 0.53333 km/h
1942 18-06-2013 22:00:00 22.48333 C 16.73 g/m*3 22.48 C 0 km/h
1943 18-06-2013 23:00:00 21.59167 C 16.37 g/m*3 21.59 C 0 km/h
1944 19-06-2013 00:00:00 20.90833 C 16.2 g/m*3 20.91 C 0 km/h
1945 19-06-2013 01:00:00 20.175 C 15.95 g/m*3 20.18 C 0.26667 km/h
1946 19-06-2013 02:00:00 19.61667 C 15.72 g/m*3 19.62 C 0.13333 km/h
1947 19-06-2013 03:00:00 19.21667 C 15.61 g/m*3 19.22 C 0 km/h
1948 19-06-2013 04:00:00 19.35833 C 15.8 g/m*3 19.36 C 0 km/h
1949 19-06-2013 05:00:00 18.875 C 15.37 g/m*3 18.88 C 0 km/h
1950 19-06-2013 06:00:00 18.91667 C 15.54 g/m*3 18.92 C 0 km/h
Sensor: Nr:Datum:Temp:Abs-Feuchte:Windchill:Wind:
Aussen-T/F 1951 19-06-2013 07:00:00 19.675 C 16.15 g/m*3 19.68 C 0 km/h
1952 19-06-2013 08:00:00 22.11667 C 17.55 g/m*3 22.12 C 0 km/h
1953 19-06-2013 09:00:00 23.73333 C 18.45 g/m*3 23.73 C 0.66667 km/h
1954 19-06-2013 10:00:00 26.625 C 18.59 g/m*3 26.63 C 9.00833 km/h
1955 19-06-2013 11:00:00 28.73333 C 18.71 g/m*3 28.73 C 8.325 km/h
1956 19-06-2013 12:00:00 29.99167 C 19.27 g/m*3 29.99 C 6.29167 km/h
1957 19-06-2013 13:00:00 30.7 C 20.21 g/m*3 30.7 C 4.53333 km/h
1958 19-06-2013 14:00:00 30.75833 C 20.61 g/m*3 30.76 C 4.28333 km/h
1959 19-06-2013 15:00:00 30.40833 C 20.69 g/m*3 30.41 C 2.13333 km/h
1960 19-06-2013 16:00:00 29.15833 C 20.98 g/m*3 29.16 C 1.475 km/h
1961 19-06-2013 17:00:00 29.36667 C 21.85 g/m*3 29.37 C 1.86667 km/h
1962 19-06-2013 18:00:00 30.98333 C 20.54 g/m*3 30.98 C 7.65833 km/h
1963 19-06-2013 19:00:00 30.83333 C 19.56 g/m*3 30.83 C 10.75833 km/h
1964 19-06-2013 20:00:00 27.65833 C 19.42 g/m*3 27.66 C 5.375 km/h
1965 19-06-2013 21:00:00 24.96667 C 18.96 g/m*3 24.97 C 0.53333 km/h
1966 19-06-2013 22:00:00 23.43333 C 18.52 g/m*3 23.43 C 0.66667 km/h
1967 19-06-2013 23:00:00 23.05 C 18.35 g/m*3 23.05 C 0.13333 km/h
1968 20-06-2013 00:00:00 22.65 C 18.25 g/m*3 22.65 C 1.2 km/h
1969 20-06-2013 01:00:00 22.55833 C 17.7 g/m*3 22.56 C 3.75 km/h
1970 20-06-2013 02:00:00 22.45 C 16.75 g/m*3 22.45 C 5.90833 km/h
1971 20-06-2013 03:00:00 22.3 C 16.21 g/m*3 22.3 C 8.725 km/h
1972 20-06-2013 04:00:00 21.43333 C 16.01 g/m*3 21.43 C 2.00833 km/h
1973 20-06-2013 05:00:00 21.19167 C 15.82 g/m*3 21.19 C 4.00833 km/h
1974 20-06-2013 06:00:00 20.375 C 15.63 g/m*3 20.38 C 1.06667 km/h
1975 20-06-2013 07:00:00 20.81667 C 15.98 g/m*3 20.82 C 1.74167 km/h
Sensor: Nr:Datum:Temp:Abs-Feuchte:Windchill:Wind:
Aussen-T/F 1976 20-06-2013 08:00:00 21.7 C 16.36 g/m*3 21.7 C 3.75833 km/h
1977 20-06-2013 09:00:00 19.875 C 15.25 g/m*3 19.88 C 4.15833 km/h
1978 20-06-2013 10:00:00 20.60833 C 17.04 g/m*3 20.61 C 1.6 km/h
1979 20-06-2013 11:00:00 21.33333 C 16.82 g/m*3 21.33 C 10.05833 km/h
1980 20-06-2013 12:00:00 18.45 C 14.89 g/m*3 18.45 C 11.28333 km/h
1981 20-06-2013 13:00:00 19.40833 C 15.25 g/m*3 19.41 C 11.15833 km/h
1982 20-06-2013 14:00:00 22.2 C 15.71 g/m*3 22.2 C 8.06667 km/h
1983 20-06-2013 15:00:00 23.975 C 16.08 g/m*3 23.98 C 5.88333 km/h
1984 20-06-2013 16:00:00 24.83333 C 15.96 g/m*3 24.83 C 8.06667 km/h
1985 20-06-2013 17:00:00 25.45833 C 15.73 g/m*3 25.46 C 7.38333 km/h
1986 20-06-2013 18:00:00 25.55833 C 15.34 g/m*3 25.56 C 6.29167 km/h
1987 20-06-2013 19:00:00 24.74167 C 15.2 g/m*3 24.74 C 6.04167 km/h
1988 20-06-2013 20:00:00 22.11667 C 15.53 g/m*3 22.12 C 1.46667 km/h
1989 20-06-2013 21:00:00 19.99167 C 15.53 g/m*3 19.99 C 0 km/h
1990 20-06-2013 22:00:00 18.59167 C 13.96 g/m*3 18.59 C 13.14167 km/h
1991 20-06-2013 23:00:00 16.575 C 12.72 g/m*3 16.58 C 9.79167 km/h
1992 21-06-2013 00:00:00 15.65833 C 12.62 g/m*3 15.66 C 0.13333 km/h
1993 21-06-2013 01:00:00 15.35 C 12.57 g/m*3 15.35 C 0.66667 km/h
1994 21-06-2013 02:00:00 15.14167 C 12.33 g/m*3 15.14 C 0.26667 km/h
1995 21-06-2013 03:00:00 14.7 C 12.06 g/m*3 14.7 C 0.8 km/h
1996 21-06-2013 04:00:00 14.88333 C 12.11 g/m*3 14.88 C 5.225 km/h
1997 21-06-2013 05:00:00 14.51667 C 11.47 g/m*3 14.52 C 3.61667 km/h
1998 21-06-2013 06:00:00 14.01667 C 11.38 g/m*3 14.02 C 0.4 km/h
1999 21-06-2013 07:00:00 14.475 C 11.9 g/m*3 14.48 C 0.66667 km/h
2000 21-06-2013 08:00:00 16.45833 C 12.28 g/m*3 16.46 C 7.35 km/h
Sensor: Nr:Datum:Temp:Abs-Feuchte:Windchill:Wind:
Aussen-T/F 2001 21-06-2013 09:00:00 16.80833 C 11.96 g/m*3 16.81 C 7.65 km/h
2002 21-06-2013 10:00:00 18.01667 C 11.95 g/m*3 18.02 C 14.1 km/h
2003 21-06-2013 11:00:00 19.36667 C 12.29 g/m*3 19.37 C 15.43333 km/h
2004 21-06-2013 12:00:00 20.425 C 12.28 g/m*3 20.43 C 17.575 km/h
2005 21-06-2013 13:00:00 21.64167 C 12.42 g/m*3 21.64 C 14.225 km/h
2006 21-06-2013 14:00:00 22.11667 C 12.07 g/m*3 22.12 C 18.50833 km/h
2007 21-06-2013 15:00:00 21.61667 C 12.17 g/m*3 21.62 C 19.04167 km/h
2008 21-06-2013 16:00:00 21.60833 C 12.08 g/m*3 21.61 C 18.1 km/h
2009 21-06-2013 17:00:00 21.3 C 11.54 g/m*3 21.3 C 18.36667 km/h
2010 21-06-2013 18:00:00 20.19167 C 11.29 g/m*3 20.19 C 12.625 km/h
2011 21-06-2013 19:00:00 19.08333 C 11.35 g/m*3 19.08 C 10.75833 km/h
2012 21-06-2013 20:00:00 18.45 C 11.36 g/m*3 18.45 C 6.01667 km/h
2013 21-06-2013 21:00:00 17.775 C 11.1 g/m*3 17.77 C 6.98333 km/h
2014 21-06-2013 22:00:00 16.28333 C 11.2 g/m*3 16.28 C 2.675 km/h
2015 21-06-2013 23:00:00 15.58333 C 11.14 g/m*3 15.58 C 2.40833 km/h
2016 22-06-2013 00:00:00 15.99167 C 11.22 g/m*3 15.99 C 3.75 km/h
2017 22-06-2013 01:00:00 15.79167 C 11.17 g/m*3 15.79 C 2.53333 km/h
2018 22-06-2013 02:00:00 15.175 C 11.16 g/m*3 15.18 C 1.06667 km/h
2019 22-06-2013 03:00:00 15.15 C 11.11 g/m*3 15.15 C 1.73333 km/h
2020 22-06-2013 04:00:00 15.31667 C 10.99 g/m*3 15.32 C 3.2 km/h
2021 22-06-2013 05:00:00 15.20833 C 10.95 g/m*3 15.21 C 4.13333 km/h
2022 22-06-2013 06:00:00 14.68333 C 11.14 g/m*3 14.68 C 0 km/h
2023 22-06-2013 07:00:00 14.80833 C 11.28 g/m*3 14.81 C 1.73333 km/h
2024 22-06-2013 08:00:00 16.83333 C 11.52 g/m*3 16.83 C 13.15833 km/h
2025 22-06-2013 09:00:00 18.04167 C 11.61 g/m*3 18.04 C 14.9 km/h
Sensor: Nr:Datum:Temp:Abs-Feuchte:Windchill:Wind:
Aussen-T/F 2026 22-06-2013 10:00:00 19.15 C 11.71 g/m*3 19.15 C 13.7 km/h
2027 22-06-2013 11:00:00 19.31667 C 11.75 g/m*3 19.32 C 13.43333 km/h
2028 22-06-2013 12:00:00 19.45833 C 11.91 g/m*3 19.46 C 9.425 km/h
2029 22-06-2013 13:00:00 20.025 C 12.36 g/m*3 20.02 C 7.51667 km/h
2030 22-06-2013 14:00:00 21.01667 C 12.64 g/m*3 21.02 C 9.13333 km/h
2031 22-06-2013 15:00:00 21.38333 C 12.61 g/m*3 21.38 C 16.9 km/h
2032 22-06-2013 16:00:00 22.75833 C 12.25 g/m*3 22.76 C 14.23333 km/h
2033 22-06-2013 17:00:00 21.8 C 11.99 g/m*3 21.8 C 11.15833 km/h
2034 22-06-2013 18:00:00 21.28333 C 11.84 g/m*3 21.28 C 11.15833 km/h
2035 22-06-2013 19:00:00 20.65 C 11.25 g/m*3 20.65 C 13.43333 km/h
2036 22-06-2013 20:00:00 18.95 C 10.76 g/m*3 18.95 C 8.86667 km/h
2037 22-06-2013 21:00:00 18.06667 C 10.5 g/m*3 18.07 C 10.46667 km/h
2038 22-06-2013 22:00:00 16.86667 C 10.87 g/m*3 16.87 C 10.34167 km/h
2039 22-06-2013 23:00:00 16.33333 C 11.12 g/m*3 16.33 C 4.15833 km/h
2040 23-06-2013 00:00:00 16.73333 C 11.23 g/m*3 16.73 C 7.11667 km/h
2041 23-06-2013 01:00:00 16.39167 C 11.53 g/m*3 16.39 C 5.06667 km/h
2042 23-06-2013 02:00:00 16.05 C 11.58 g/m*3 16.05 C 2.94167 km/h
2043 23-06-2013 03:00:00 15.825 C 11.56 g/m*3 15.83 C 2.54167 km/h
2044 23-06-2013 04:00:00 15.70833 C 11.24 g/m*3 15.71 C 5.63333 km/h
2045 23-06-2013 05:00:00 15.76667 C 10.5 g/m*3 15.77 C 9.825 km/h
2046 23-06-2013 06:00:00 15.71667 C 10.11 g/m*3 15.72 C 11.96667 km/h
2047 23-06-2013 07:00:00 15.7 C 10.25 g/m*3 15.7 C 9.54167 km/h
2048 23-06-2013 08:00:00 16.25 C 10.4 g/m*3 16.25 C 11.96667 km/h
2049 23-06-2013 09:00:00 16.60833 C 10.01 g/m*3 16.61 C 13.16667 km/h
2050 23-06-2013 10:00:00 15.04167 C 9.7 g/m*3 15.04 C 15.55 km/h
Sensor: Nr:Datum:Temp:Abs-Feuchte:Windchill:Wind:
Aussen-T/F 2051 23-06-2013 11:00:00 14.15 C 10.55 g/m*3 14.15 C 6.71667 km/h
2052 23-06-2013 12:00:00 16.13333 C 10.64 g/m*3 16.13 C 12.21667 km/h
2053 23-06-2013 13:00:00 16.875 C 10.18 g/m*3 16.88 C 13.83333 km/h
2054 23-06-2013 14:00:00 17.38333 C 10.25 g/m*3 17.38 C 18.63333 km/h
2055 23-06-2013 15:00:00 16.83333 C 10.53 g/m*3 16.83 C 16.1 km/h
2056 23-06-2013 16:00:00 18.025 C 10.96 g/m*3 18.02 C 16.36667 km/h
2057 23-06-2013 17:00:00 17.475 C 10.68 g/m*3 17.48 C 15.16667 km/h
2058 23-06-2013 18:00:00 16.375 C 10.31 g/m*3 16.38 C 13.7 km/h
2059 23-06-2013 19:00:00 16.55 C 10.46 g/m*3 16.55 C 13.56667 km/h
2060 23-06-2013 20:00:00 15.58333 C 10.37 g/m*3 15.58 C 9.275 km/h
2061 23-06-2013 21:00:00 14.875 C 10.33 g/m*3 14.88 C 5.23333 km/h
2062 23-06-2013 22:00:00 14.31667 C 10.33 g/m*3 14.32 C 7.79167 km/h
2063 23-06-2013 23:00:00 14.45 C 10.2 g/m*3 14.45 C 5.08333 km/h
2064 24-06-2013 00:00:00 14.25 C 9.97 g/m*3 14.25 C 7.79167 km/h
2065 24-06-2013 01:00:00 14.00833 C 9.92 g/m*3 14.01 C 4.66667 km/h
2066 24-06-2013 02:00:00 13.64167 C 9.72 g/m*3 13.64 C 2.13333 km/h
2067 24-06-2013 03:00:00 13.29167 C 9.57 g/m*3 13.29 C 2.13333 km/h
2068 24-06-2013 04:00:00 13.10833 C 9.62 g/m*3 13.11 C 3.88333 km/h
2069 24-06-2013 05:00:00 13.09167 C 9.79 g/m*3 13.09 C 3.20833 km/h
2070 24-06-2013 06:00:00 13.25833 C 9.72 g/m*3 13.26 C 8.06667 km/h
2071 24-06-2013 07:00:00 13.48333 C 9.79 g/m*3 13.48 C 9.81667 km/h
2072 24-06-2013 08:00:00 14.20833 C 10.03 g/m*3 14.21 C 9.425 km/h
2073 24-06-2013 09:00:00 15.16667 C 10.27 g/m*3 15.17 C 8.46667 km/h
2074 24-06-2013 10:00:00 15.64167 C 10.29 g/m*3 15.64 C 8.34167 km/h
2075 24-06-2013 11:00:00 16.925 C 10.41 g/m*3 16.93 C 9.53333 km/h
Sensor: Nr:Datum:Temp:Abs-Feuchte:Windchill:Wind:
Aussen-T/F 2076 24-06-2013 12:00:00 14.975 C 10.24 g/m*3 14.98 C 4.70833 km/h
2077 24-06-2013 13:00:00 14.81667 C 10.71 g/m*3 14.82 C 2.275 km/h
2078 24-06-2013 14:00:00 13.78333 C 10.85 g/m*3 13.78 C 0.93333 km/h
2079 24-06-2013 15:00:00 16.2 C 11.35 g/m*3 16.2 C 4.45 km/h
2080 24-06-2013 16:00:00 15.78333 C 9.97 g/m*3 15.78 C 10.1 km/h
2081 24-06-2013 17:00:00 15.34167 C 9.69 g/m*3 15.34 C 7.78333 km/h
2082 24-06-2013 18:00:00 16.10833 C 9.65 g/m*3 16.11 C 7.51667 km/h
2083 24-06-2013 19:00:00 15.33333 C 9.48 g/m*3 15.33 C 6.7 km/h
2084 24-06-2013 20:00:00 14.36667 C 9.5 g/m*3 14.37 C 2.53333 km/h
2085 24-06-2013 21:00:00 13.19167 C 9.89 g/m*3 13.19 C 1.06667 km/h
2086 24-06-2013 22:00:00 12.8 C 9.82 g/m*3 12.8 C 0.8 km/h
2087 24-06-2013 23:00:00 13.26667 C 9.22 g/m*3 13.27 C 4.94167 km/h
2088 25-06-2013 00:00:00 13.075 C 9.18 g/m*3 13.08 C 4 km/h
2089 25-06-2013 01:00:00 12.65833 C 9.35 g/m*3 12.66 C 4.41667 km/h
2090 25-06-2013 02:00:00 12.28333 C 9.48 g/m*3 12.28 C 3.875 km/h
2091 25-06-2013 03:00:00 11.65833 C 9.61 g/m*3 11.66 C 1.2 km/h
2092 25-06-2013 04:00:00 11.40833 C 9.71 g/m*3 11.41 C 0.26667 km/h
2093 25-06-2013 05:00:00 11.39167 C 9.75 g/m*3 11.39 C 1.6 km/h
2094 25-06-2013 06:00:00 11.39167 C 9.75 g/m*3 11.39 C 1.46667 km/h
2095 25-06-2013 07:00:00 11.65 C 9.83 g/m*3 11.65 C 2.675 km/h
2096 25-06-2013 08:00:00 12.15 C 9.74 g/m*3 12.15 C 6.575 km/h
2097 25-06-2013 09:00:00 12.375 C 9.59 g/m*3 12.38 C 6.98333 km/h
2098 25-06-2013 10:00:00 12.78333 C 9.6 g/m*3 12.78 C 10.20833 km/h
2099 25-06-2013 11:00:00 13.1 C 9.66 g/m*3 13.1 C 10.625 km/h
2100 25-06-2013 12:00:00 13.825 C 9.86 g/m*3 13.83 C 10.49167 km/h
Sensor: Nr:Datum:Temp:Abs-Feuchte:Windchill:Wind:
Aussen-T/F 2101 25-06-2013 13:00:00 14.95 C 9.92 g/m*3 14.95 C 10.75833 km/h
2102 25-06-2013 14:00:00 16.15833 C 9.81 g/m*3 16.16 C 14.5 km/h
2103 25-06-2013 15:00:00 15.08333 C 9.18 g/m*3 15.08 C 12.625 km/h
2104 25-06-2013 16:00:00 15.18333 C 9.22 g/m*3 15.18 C 9.01667 km/h
2105 25-06-2013 17:00:00 15.53333 C 9.01 g/m*3 15.53 C 9.55833 km/h
2106 25-06-2013 18:00:00 15.25 C 8.1 g/m*3 15.25 C 9.01667 km/h
2107 25-06-2013 19:00:00 14.975 C 8.36 g/m*3 14.98 C 6.84167 km/h
2108 25-06-2013 20:00:00 14.88333 C 8.17 g/m*3 14.88 C 6.975 km/h
2109 25-06-2013 21:00:00 13.13333 C 8.75 g/m*3 13.13 C 1.6 km/h
2110 25-06-2013 22:00:00 11.76667 C 8.52 g/m*3 11.77 C 3.34167 km/h
2111 25-06-2013 23:00:00 11.3 C 8.74 g/m*3 11.3 C 0 km/h
2112 26-06-2013 00:00:00 11.11667 C 8.65 g/m*3 11.12 C 0.93333 km/h
2113 26-06-2013 01:00:00 11.175 C 8.41 g/m*3 11.18 C 0.93333 km/h
2114 26-06-2013 02:00:00 9.725 C 8.09 g/m*3 9.73 C 0.26667 km/h
2115 26-06-2013 03:00:00 9.08333 C 7.94 g/m*3 9.08 C 0.13333 km/h
2116 26-06-2013 04:00:00 8.48333 C 7.76 g/m*3 8.48 C 0.4 km/h
2117 26-06-2013 05:00:00 7.74167 C 7.53 g/m*3 7.74 C 0.4 km/h
2118 26-06-2013 06:00:00 7.61667 C 7.55 g/m*3 7.62 C 0.53333 km/h
2119 26-06-2013 07:00:00 8.40833 C 7.94 g/m*3 8.41 C 1.06667 km/h
2120 26-06-2013 08:00:00 10.7 C 8.34 g/m*3 10.7 C 4.66667 km/h
2121 26-06-2013 09:00:00 12.14167 C 8.4 g/m*3 12.14 C 6.3 km/h
2122 26-06-2013 10:00:00 12.7 C 8.16 g/m*3 12.7 C 7.79167 km/h
2123 26-06-2013 11:00:00 13.30833 C 8.41 g/m*3 13.31 C 8.46667 km/h
2124 26-06-2013 12:00:00 14.25 C 8.5 g/m*3 14.25 C 8.34167 km/h
2125 26-06-2013 13:00:00 14.95 C 8.29 g/m*3 14.95 C 7.51667 km/h
Sensor: Nr:Datum:Temp:Abs-Feuchte:Windchill:Wind:
Aussen-T/F 2126 26-06-2013 14:00:00 14.85833 C 8.19 g/m*3 14.86 C 9.55 km/h
2127 26-06-2013 15:00:00 15.73333 C 8.28 g/m*3 15.73 C 9.13333 km/h
2128 26-06-2013 16:00:00 15.51667 C 8.29 g/m*3 15.52 C 7.65833 km/h
2129 26-06-2013 17:00:00 15.525 C 8.15 g/m*3 15.53 C 7.24167 km/h
2130 26-06-2013 18:00:00 15.575 C 8.34 g/m*3 15.58 C 3.2 km/h
2131 26-06-2013 19:00:00 14.15 C 9.61 g/m*3 14.15 C 0.26667 km/h
2132 26-06-2013 20:00:00 13.15833 C 9.54 g/m*3 13.16 C 0 km/h
2133 26-06-2013 21:00:00 12.64167 C 9.47 g/m*3 12.64 C 0 km/h
2134 26-06-2013 22:00:00 12.40833 C 9.36 g/m*3 12.41 C 0 km/h
2135 26-06-2013 23:00:00 12.21667 C 9.32 g/m*3 12.22 C 0.8 km/h
2136 27-06-2013 00:00:00 12.175 C 9.31 g/m*3 12.18 C 0.13333 km/h
2137 27-06-2013 01:00:00 12.14167 C 9.09 g/m*3 12.14 C 2.8 km/h
2138 27-06-2013 02:00:00 12.075 C 9.14 g/m*3 12.08 C 2.00833 km/h
2139 27-06-2013 03:00:00 11.80833 C 9.3 g/m*3 11.81 C 1.6 km/h
2140 27-06-2013 04:00:00 11.00833 C 9.28 g/m*3 11.01 C 0.13333 km/h
2141 27-06-2013 05:00:00 10.925 C 9.26 g/m*3 10.93 C 0.13333 km/h
2142 27-06-2013 06:00:00 11.10833 C 9.46 g/m*3 11.11 C 0 km/h
2143 27-06-2013 07:00:00 11.33333 C 9.71 g/m*3 11.33 C 0.26667 km/h
2144 27-06-2013 08:00:00 11.36667 C 9.69 g/m*3 11.37 C 3.08333 km/h
2145 27-06-2013 09:00:00 11.21667 C 9.5 g/m*3 11.22 C 1.33333 km/h
2146 27-06-2013 10:00:00 12.3 C 9.71 g/m*3 12.3 C 0.93333 km/h
2147 27-06-2013 11:00:00 13.275 C 9.91 g/m*3 13.28 C 3.6 km/h
2148 27-06-2013 12:00:00 14.34167 C 10.11 g/m*3 14.34 C 4.40833 km/h
2149 27-06-2013 13:00:00 15.65 C 9.75 g/m*3 15.65 C 6.43333 km/h
2150 27-06-2013 14:00:00 16.075 C 9.3 g/m*3 16.08 C 10.2 km/h
Sensor: Nr:Datum:Temp:Abs-Feuchte:Windchill:Wind:
Aussen-T/F 2151 27-06-2013 15:00:00 13.18333 C 9.27 g/m*3 13.18 C 6.85 km/h
2152 27-06-2013 16:00:00 14.76667 C 9.67 g/m*3 14.77 C 5.61667 km/h
2153 27-06-2013 17:00:00 16.13333 C 8.96 g/m*3 16.13 C 7.90833 km/h
2154 27-06-2013 18:00:00 13.74167 C 9.3 g/m*3 13.74 C 4.84167 km/h
2155 27-06-2013 19:00:00 13.45 C 9.63 g/m*3 13.45 C 0.66667 km/h
2156 27-06-2013 20:00:00 13.15833 C 9.97 g/m*3 13.16 C 0 km/h
2157 27-06-2013 21:00:00 12.06667 C 9.79 g/m*3 12.07 C 0 km/h
2158 27-06-2013 22:00:00 11.7 C 9.74 g/m*3 11.7 C 0 km/h
2159 27-06-2013 23:00:00 11.54167 C 9.7 g/m*3 11.54 C 0 km/h
2160 28-06-2013 00:00:00 11.275 C 9.47 g/m*3 11.28 C 0.4 km/h
2161 28-06-2013 01:00:00 10.44167 C 9.03 g/m*3 10.44 C 0 km/h
2162 28-06-2013 02:00:00 9.94167 C 8.87 g/m*3 9.94 C 1.46667 km/h
2163 28-06-2013 03:00:00 9.66667 C 8.72 g/m*3 9.67 C 0.4 km/h
2164 28-06-2013 04:00:00 9.49167 C 8.64 g/m*3 9.49 C 0.26667 km/h
2165 28-06-2013 05:00:00 9.3 C 8.54 g/m*3 9.3 C 1.2 km/h
2166 28-06-2013 06:00:00 9.46667 C 8.62 g/m*3 9.47 C 0 km/h
2167 28-06-2013 07:00:00 10.075 C 8.86 g/m*3 10.07 C 0.53333 km/h
2168 28-06-2013 08:00:00 10.7 C 9.1 g/m*3 10.7 C 0.8 km/h
2169 28-06-2013 09:00:00 11.35 C 9.39 g/m*3 11.35 C 0.4 km/h
2170 28-06-2013 10:00:00 11.875 C 9.75 g/m*3 11.88 C 0 km/h
2171 28-06-2013 11:00:00 12.225 C 10.08 g/m*3 12.23 C 0.13333 km/h
2172 28-06-2013 12:00:00 12.64167 C 10.46 g/m*3 12.64 C 0 km/h
2173 28-06-2013 13:00:00 13.35 C 10.97 g/m*3 13.35 C 0.66667 km/h
2174 28-06-2013 14:00:00 14.35 C 10.77 g/m*3 14.35 C 2.81667 km/h
2175 28-06-2013 15:00:00 15.39167 C 10.81 g/m*3 15.39 C 4.29167 km/h
Sensor: Nr:Datum:Temp:Abs-Feuchte:Windchill:Wind:
Aussen-T/F 2176 28-06-2013 16:00:00 15.1 C 10.79 g/m*3 15.1 C 2.54167 km/h
2177 28-06-2013 17:00:00 15.8 C 10.65 g/m*3 15.8 C 4.825 km/h
2178 28-06-2013 18:00:00 15.59167 C 10.66 g/m*3 15.59 C 2.66667 km/h
2179 28-06-2013 19:00:00 15.61667 C 10.64 g/m*3 15.62 C 4 km/h
2180 28-06-2013 20:00:00 15.1 C 10.73 g/m*3 15.1 C 0.66667 km/h
2181 28-06-2013 21:00:00 14.075 C 10.62 g/m*3 14.08 C 0.4 km/h
2182 28-06-2013 22:00:00 13.63333 C 10.38 g/m*3 13.63 C 0.93333 km/h
2183 28-06-2013 23:00:00 14.01667 C 10.25 g/m*3 14.02 C 5.49167 km/h
2184 29-06-2013 00:00:00 13.81667 C 10.28 g/m*3 13.82 C 3.88333 km/h
2185 29-06-2013 01:00:00 13.89167 C 10.39 g/m*3 13.89 C 2.66667 km/h
2186 29-06-2013 02:00:00 13.36667 C 10.66 g/m*3 13.37 C 1.06667 km/h
2187 29-06-2013 03:00:00 12.90833 C 10.7 g/m*3 12.91 C 1.2 km/h
2188 29-06-2013 04:00:00 13.09167 C 10.81 g/m*3 13.09 C 8.05833 km/h
2189 29-06-2013 05:00:00 13.30833 C 10.91 g/m*3 13.31 C 10.075 km/h
2190 29-06-2013 06:00:00 13.54167 C 11.01 g/m*3 13.54 C 10.89167 km/h
2191 29-06-2013 07:00:00 13.85833 C 11.33 g/m*3 13.86 C 6.44167 km/h
2192 29-06-2013 08:00:00 14.11667 C 11.58 g/m*3 14.12 C 6.16667 km/h
2193 29-06-2013 09:00:00 14.51667 C 11.84 g/m*3 14.52 C 2 km/h
2194 29-06-2013 10:00:00 14.95833 C 11.95 g/m*3 14.96 C 6.575 km/h
2195 29-06-2013 11:00:00 15.925 C 12.35 g/m*3 15.93 C 12.225 km/h
2196 29-06-2013 12:00:00 17.20833 C 12.37 g/m*3 17.21 C 14.76667 km/h
2197 29-06-2013 13:00:00 17.775 C 12.09 g/m*3 17.77 C 15.16667 km/h
2198 29-06-2013 14:00:00 18.275 C 12.05 g/m*3 18.27 C 14.23333 km/h
2199 29-06-2013 15:00:00 18.58333 C 11.66 g/m*3 18.58 C 15.16667 km/h
2200 29-06-2013 16:00:00 18.875 C 11.32 g/m*3 18.88 C 14.36667 km/h
Sensor: Nr:Datum:Temp:Abs-Feuchte:Windchill:Wind:
Aussen-T/F 2201 29-06-2013 17:00:00 18.14167 C 10.61 g/m*3 18.14 C 11.83333 km/h
2202 29-06-2013 18:00:00 17.53333 C 10.08 g/m*3 17.53 C 11.15 km/h
2203 29-06-2013 19:00:00 17.25833 C 9.71 g/m*3 17.26 C 10.89167 km/h
2204 29-06-2013 20:00:00 16.85833 C 9.36 g/m*3 16.86 C 7.38333 km/h
2205 29-06-2013 21:00:00 15.30833 C 9.17 g/m*3 15.31 C 4.16667 km/h
2206 29-06-2013 22:00:00 12.43333 C 9.17 g/m*3 12.43 C 1.06667 km/h
2207 29-06-2013 23:00:00 11.96667 C 9.1 g/m*3 11.97 C 0.26667 km/h
2208 30-06-2013 00:00:00 11.275 C 8.83 g/m*3 11.28 C 0.4 km/h
2209 30-06-2013 01:00:00 10.2 C 8.45 g/m*3 10.2 C 0 km/h
2210 30-06-2013 02:00:00 9.18333 C 8.21 g/m*3 9.18 C 0.4 km/h
2211 30-06-2013 03:00:00 8.74167 C 8.07 g/m*3 8.74 C 1.20833 km/h
2212 30-06-2013 04:00:00 8.375 C 7.95 g/m*3 8.38 C 2.94167 km/h
2213 30-06-2013 05:00:00 7.95 C 7.75 g/m*3 7.95 C 0.13333 km/h
2214 30-06-2013 06:00:00 7.73333 C 7.71 g/m*3 7.73 C 0.8 km/h
2215 30-06-2013 07:00:00 8.54167 C 8.08 g/m*3 7.99 C 5.35 km/h
2216 30-06-2013 08:00:00 11.23333 C 8.85 g/m*3 11.23 C 5.89167 km/h
2217 30-06-2013 09:00:00 13.475 C 9.25 g/m*3 13.48 C 5.625 km/h
2218 30-06-2013 10:00:00 15.60833 C 9.35 g/m*3 15.61 C 6.16667 km/h
2219 30-06-2013 11:00:00 16.71667 C 8.9 g/m*3 16.72 C 5.35 km/h
2220 30-06-2013 12:00:00 17.88333 C 9.24 g/m*3 17.88 C 5.09167 km/h
2221 30-06-2013 13:00:00 18.21667 C 9.48 g/m*3 18.22 C 4.29167 km/h
2222 30-06-2013 14:00:00 18.95833 C 9.32 g/m*3 18.96 C 5.34167 km/h
2223 30-06-2013 15:00:00 19.875 C 9.58 g/m*3 19.88 C 6.18333 km/h
2224 30-06-2013 16:00:00 19.475 C 10.47 g/m*3 19.48 C 2.94167 km/h
2225 30-06-2013 17:00:00 20.05833 C 10.85 g/m*3 20.06 C 4.28333 km/h
Sensor: Nr:Datum:Temp:Abs-Feuchte:Windchill:Wind:
Aussen-T/F 2226 30-06-2013 18:00:00 21.175 C 10.27 g/m*3 21.18 C 8.88333 km/h
2227 30-06-2013 19:00:00 17.9 C 12.04 g/m*3 17.9 C 0.4 km/h
2228 30-06-2013 20:00:00 16.38333 C 11.76 g/m*3 16.38 C 0.13333 km/h
2229 30-06-2013 21:00:00 15.50833 C 11.34 g/m*3 15.51 C 1.33333 km/h
2230 30-06-2013 22:00:00 15.16667 C 11.16 g/m*3 15.17 C 1.2 km/h
2231 30-06-2013 23:00:00 15.11667 C 10.91 g/m*3 15.12 C 0.8 km/h
2232 01-07-2013 00:00:00 14.68333 C 10.82 g/m*3 14.68 C 0.66667 km/h
2233 01-07-2013 01:00:00 14.00833 C 10.63 g/m*3 14.01 C 2 km/h
2234 01-07-2013 02:00:00 13.425 C 10.4 g/m*3 13.43 C 0.53333 km/h
2235 01-07-2013 03:00:00 12.76667 C 10.23 g/m*3 12.77 C 2.26667 km/h
2236 01-07-2013 04:00:00 12.34167 C 10.02 g/m*3 12.34 C 2.53333 km/h
2237 01-07-2013 05:00:00 11.71667 C 9.81 g/m*3 11.72 C 0.53333 km/h
2238 01-07-2013 06:00:00 11.775 C 9.89 g/m*3 11.78 C 1.2 km/h
2239 01-07-2013 07:00:00 12.65 C 10.26 g/m*3 12.65 C 0.53333 km/h
2240 01-07-2013 08:00:00 15.09167 C 11.27 g/m*3 15.09 C 2.95833 km/h
2241 01-07-2013 09:00:00 17.86667 C 11.71 g/m*3 17.87 C 11.7 km/h
2242 01-07-2013 10:00:00 19.625 C 12.13 g/m*3 19.63 C 12.5 km/h
2243 01-07-2013 11:00:00 21.04167 C 12.44 g/m*3 21.04 C 14.75833 km/h
2244 01-07-2013 12:00:00 22.4 C 12.53 g/m*3 22.4 C 13.03333 km/h
2245 01-07-2013 13:00:00 23.49167 C 12.45 g/m*3 23.49 C 13.83333 km/h
2246 01-07-2013 14:00:00 24.48333 C 12.22 g/m*3 24.48 C 12.49167 km/h
2247 01-07-2013 15:00:00 24.88333 C 11.82 g/m*3 24.88 C 13.43333 km/h
2248 01-07-2013 16:00:00 25.4 C 11.99 g/m*3 25.4 C 12.21667 km/h
2249 01-07-2013 17:00:00 25.7 C 11.83 g/m*3 25.7 C 11.3 km/h
2250 01-07-2013 18:00:00 24.95833 C 12.29 g/m*3 24.96 C 9.28333 km/h
Sensor: Nr:Datum:Temp:Abs-Feuchte:Windchill:Wind:
Aussen-T/F 2251 01-07-2013 19:00:00 22.68333 C 12.35 g/m*3 22.68 C 4.69167 km/h
2252 01-07-2013 20:00:00 20.76667 C 11.97 g/m*3 20.77 C 6.04167 km/h
2253 01-07-2013 21:00:00 18.18333 C 12.71 g/m*3 18.18 C 0 km/h
2254 01-07-2013 22:00:00 17.15 C 12.5 g/m*3 17.15 C 0.53333 km/h
2255 01-07-2013 23:00:00 16.025 C 12.16 g/m*3 16.02 C 0.13333 km/h
2256 02-07-2013 00:00:00 16.14167 C 12.48 g/m*3 16.14 C 0.13333 km/h
2257 02-07-2013 01:00:00 15.75833 C 12.25 g/m*3 15.76 C 0.13333 km/h
2258 02-07-2013 02:00:00 15.24167 C 11.99 g/m*3 15.24 C 0 km/h
2259 02-07-2013 03:00:00 15.03333 C 11.94 g/m*3 15.03 C 0 km/h
2260 02-07-2013 04:00:00 13.775 C 11.09 g/m*3 13.78 C 0 km/h
2261 02-07-2013 05:00:00 12.875 C 10.67 g/m*3 12.88 C 0 km/h
2262 02-07-2013 06:00:00 12.65833 C 10.62 g/m*3 12.66 C 2.53333 km/h
2263 02-07-2013 07:00:00 12.85833 C 10.79 g/m*3 12.86 C 4.26667 km/h
2264 02-07-2013 08:00:00 14.125 C 11.32 g/m*3 14.13 C 2.53333 km/h
2265 02-07-2013 09:00:00 16.775 C 12.13 g/m*3 16.77 C 5.35833 km/h
2266 02-07-2013 10:00:00 19.20833 C 12.35 g/m*3 19.21 C 9.275 km/h
2267 02-07-2013 11:00:00 21.09167 C 11.83 g/m*3 21.09 C 12.36667 km/h
2268 02-07-2013 12:00:00 22.375 C 11.57 g/m*3 22.38 C 13.43333 km/h
2269 02-07-2013 13:00:00 23.5 C 11.49 g/m*3 23.5 C 12.09167 km/h
2270 02-07-2013 14:00:00 24.28333 C 11.31 g/m*3 24.28 C 11.41667 km/h
2271 02-07-2013 15:00:00 25.05833 C 11.55 g/m*3 25.06 C 9.95833 km/h
2272 02-07-2013 16:00:00 26.05833 C 11.07 g/m*3 26.06 C 11.16667 km/h
2273 02-07-2013 17:00:00 26.575 C 10.35 g/m*3 26.58 C 8.75 km/h
2274 02-07-2013 18:00:00 25.29167 C 12.6 g/m*3 25.29 C 4.29167 km/h
2275 02-07-2013 19:00:00 20.625 C 14.01 g/m*3 20.63 C 1.33333 km/h
Sensor: Nr:Datum:Temp:Abs-Feuchte:Windchill:Wind:
Aussen-T/F 2276 02-07-2013 20:00:00 20.13333 C 14.01 g/m*3 20.13 C 1.2 km/h
2277 02-07-2013 21:00:00 18.425 C 13.19 g/m*3 18.43 C 1.73333 km/h
2278 02-07-2013 22:00:00 17.575 C 12.92 g/m*3 17.58 C 0.26667 km/h
2279 02-07-2013 23:00:00 17.80833 C 13.21 g/m*3 17.81 C 0 km/h
2280 03-07-2013 00:00:00 17.85833 C 13.09 g/m*3 17.86 C 0.53333 km/h
2281 03-07-2013 01:00:00 17.64167 C 13.06 g/m*3 17.64 C 0 km/h
2282 03-07-2013 02:00:00 16.83333 C 13.36 g/m*3 16.83 C 1.6 km/h
2283 03-07-2013 03:00:00 16.25833 C 13.23 g/m*3 16.26 C 0 km/h
2284 03-07-2013 04:00:00 16.18333 C 13.23 g/m*3 16.18 C 0 km/h
2285 03-07-2013 05:00:00 16.075 C 13.26 g/m*3 16.08 C 0 km/h
2286 03-07-2013 06:00:00 16.225 C 13.4 g/m*3 16.23 C 0 km/h
2287 03-07-2013 07:00:00 16.45 C 13.58 g/m*3 16.45 C 0 km/h
2288 03-07-2013 08:00:00 16.6 C 13.7 g/m*3 16.6 C 0 km/h
2289 03-07-2013 09:00:00 16.81667 C 13.95 g/m*3 16.82 C 0 km/h
2290 03-07-2013 10:00:00 16.74167 C 13.84 g/m*3 16.74 C 1.33333 km/h
2291 03-07-2013 11:00:00 16.75833 C 13.62 g/m*3 16.76 C 2.675 km/h
2292 03-07-2013 12:00:00 17.65833 C 13.85 g/m*3 17.66 C 6.975 km/h
2293 03-07-2013 13:00:00 17.7 C 13.84 g/m*3 17.7 C 7.65 km/h
2294 03-07-2013 14:00:00 18.01667 C 13.75 g/m*3 18.02 C 9.95833 km/h
2295 03-07-2013 15:00:00 18.48333 C 14.04 g/m*3 18.48 C 9.14167 km/h
2296 03-07-2013 16:00:00 18.925 C 14.18 g/m*3 18.93 C 5.76667 km/h
2297 03-07-2013 17:00:00 18.55833 C 13.98 g/m*3 18.56 C 3.48333 km/h
2298 03-07-2013 18:00:00 18.38333 C 13.76 g/m*3 18.38 C 4.55 km/h
2299 03-07-2013 19:00:00 17.725 C 13.83 g/m*3 17.73 C 0.26667 km/h
2300 03-07-2013 20:00:00 17.29167 C 13.94 g/m*3 17.29 C 0 km/h
Sensor: Nr:Datum:Temp:Abs-Feuchte:Windchill:Wind:
Aussen-T/F 2301 03-07-2013 21:00:00 17.01667 C 13.82 g/m*3 17.02 C 0.53333 km/h
2302 03-07-2013 22:00:00 16.64167 C 13.6 g/m*3 16.64 C 0 km/h
2303 03-07-2013 23:00:00 15.71667 C 12.82 g/m*3 15.72 C 1.875 km/h
2304 04-07-2013 00:00:00 15.20833 C 12.58 g/m*3 15.21 C 0 km/h
2305 04-07-2013 01:00:00 15.2 C 12.59 g/m*3 15.2 C 0 km/h
2306 04-07-2013 02:00:00 15.25833 C 12.64 g/m*3 15.26 C 0.53333 km/h
2307 04-07-2013 03:00:00 15.21667 C 12.62 g/m*3 15.22 C 0 km/h
2308 04-07-2013 04:00:00 15.125 C 12.66 g/m*3 15.13 C 0 km/h
2309 04-07-2013 05:00:00 15.03333 C 12.59 g/m*3 15.03 C 0 km/h
2310 04-07-2013 06:00:00 15.15833 C 12.69 g/m*3 15.16 C 0 km/h
2311 04-07-2013 07:00:00 15.75833 C 13.16 g/m*3 15.76 C 0.13333 km/h
2312 04-07-2013 08:00:00 16.30833 C 13.6 g/m*3 16.31 C 0 km/h
2313 04-07-2013 09:00:00 16.68333 C 13.66 g/m*3 16.68 C 0.13333 km/h
2314 04-07-2013 10:00:00 17.46667 C 13.64 g/m*3 17.47 C 0.66667 km/h
2315 04-07-2013 11:00:00 19.16667 C 13.49 g/m*3 19.17 C 5.35 km/h
2316 04-07-2013 12:00:00 20.68333 C 13.43 g/m*3 20.68 C 9.13333 km/h
2317 04-07-2013 13:00:00 21.78333 C 13.15 g/m*3 21.78 C 8.99167 km/h
2318 04-07-2013 14:00:00 20.875 C 13.43 g/m*3 20.88 C 6.04167 km/h
2319 04-07-2013 15:00:00 20.025 C 13.95 g/m*3 20.02 C 2.275 km/h
2320 04-07-2013 16:00:00 20.70833 C 14.05 g/m*3 20.71 C 2.675 km/h
2321 04-07-2013 17:00:00 23.15 C 12.9 g/m*3 23.15 C 5.90833 km/h
2322 04-07-2013 18:00:00 22.50833 C 14.07 g/m*3 22.51 C 3.225 km/h
2323 04-07-2013 19:00:00 18.76667 C 14.24 g/m*3 18.77 C 0.8 km/h
2324 04-07-2013 20:00:00 19.075 C 14.15 g/m*3 19.08 C 1.33333 km/h
2325 04-07-2013 21:00:00 18.08333 C 13.72 g/m*3 18.08 C 1.2 km/h
Sensor: Nr:Datum:Temp:Abs-Feuchte:Windchill:Wind:
Aussen-T/F 2326 04-07-2013 22:00:00 17.68333 C 13.53 g/m*3 17.68 C 0.53333 km/h
2327 04-07-2013 23:00:00 17.925 C 13.56 g/m*3 17.93 C 0.66667 km/h
2328 05-07-2013 00:00:00 17.40833 C 13.59 g/m*3 17.41 C 0.13333 km/h
2329 05-07-2013 01:00:00 17.55833 C 13.36 g/m*3 17.56 C 1.46667 km/h
2330 05-07-2013 02:00:00 16.78333 C 13.21 g/m*3 16.78 C 0 km/h
2331 05-07-2013 03:00:00 16.35 C 12.96 g/m*3 16.35 C 0 km/h
2332 05-07-2013 04:00:00 16.275 C 12.98 g/m*3 16.27 C 0 km/h
2333 05-07-2013 05:00:00 16.16667 C 12.97 g/m*3 16.17 C 0 km/h
2334 05-07-2013 06:00:00 16.2 C 13.04 g/m*3 16.2 C 0 km/h
2335 05-07-2013 07:00:00 16.71667 C 13.23 g/m*3 16.72 C 2.53333 km/h
2336 05-07-2013 08:00:00 17.93333 C 13.37 g/m*3 17.93 C 4.13333 km/h
2337 05-07-2013 09:00:00 19.24167 C 13.44 g/m*3 19.24 C 6 km/h
2338 05-07-2013 10:00:00 19.775 C 13.29 g/m*3 19.77 C 6.56667 km/h
2339 05-07-2013 11:00:00 20.475 C 12.84 g/m*3 20.48 C 6.7 km/h
2340 05-07-2013 12:00:00 21.125 C 12.98 g/m*3 21.13 C 6.28333 km/h
2341 05-07-2013 13:00:00 21.15833 C 13.02 g/m*3 21.16 C 6.16667 km/h
2342 05-07-2013 14:00:00 21.13333 C 12.92 g/m*3 21.13 C 6.83333 km/h
2343 05-07-2013 15:00:00 21.59167 C 12.97 g/m*3 21.59 C 7.125 km/h
2344 05-07-2013 16:00:00 21.6 C 13.32 g/m*3 21.6 C 3.2 km/h
2345 05-07-2013 17:00:00 22.40833 C 13.69 g/m*3 22.41 C 4.55 km/h
2346 05-07-2013 18:00:00 24.2 C 13.04 g/m*3 24.2 C 6.96667 km/h
2347 05-07-2013 19:00:00 23.85833 C 12.34 g/m*3 23.86 C 5.88333 km/h
2348 05-07-2013 20:00:00 21.21667 C 13.82 g/m*3 21.22 C 1.6 km/h
2349 05-07-2013 21:00:00 17.80833 C 13.35 g/m*3 17.81 C 0.53333 km/h
2350 05-07-2013 22:00:00 16.83333 C 13.01 g/m*3 16.83 C 0.66667 km/h
Sensor: Nr:Datum:Temp:Abs-Feuchte:Windchill:Wind:
Aussen-T/F 2351 05-07-2013 23:00:00 16.35 C 12.8 g/m*3 16.35 C 0 km/h
2352 06-07-2013 00:00:00 15.49167 C 12.35 g/m*3 15.49 C 0 km/h
2353 06-07-2013 01:00:00 14.85 C 12.04 g/m*3 14.85 C 0 km/h
2354 06-07-2013 02:00:00 14.375 C 11.76 g/m*3 14.38 C 0 km/h
2355 06-07-2013 03:00:00 13.90833 C 11.51 g/m*3 13.91 C 0 km/h
2356 06-07-2013 04:00:00 13.64167 C 11.33 g/m*3 13.64 C 0 km/h
2357 06-07-2013 05:00:00 13.28333 C 11.13 g/m*3 13.28 C 0 km/h
2358 06-07-2013 06:00:00 13.225 C 11.15 g/m*3 13.23 C 0.26667 km/h
2359 06-07-2013 07:00:00 13.59167 C 11.41 g/m*3 13.59 C 0.4 km/h
2360 06-07-2013 08:00:00 15.08333 C 12.34 g/m*3 15.08 C 0 km/h
2361 06-07-2013 09:00:00 16.95833 C 13.31 g/m*3 16.96 C 0 km/h
2362 06-07-2013 10:00:00 19.19167 C 14.56 g/m*3 19.19 C 1.06667 km/h
2363 06-07-2013 11:00:00 22.98333 C 15.4 g/m*3 22.98 C 6.15 km/h
2364 06-07-2013 12:00:00 23.60833 C 15.39 g/m*3 23.61 C 3.33333 km/h
2365 06-07-2013 13:00:00 23.90833 C 14.93 g/m*3 23.91 C 3.61667 km/h
2366 06-07-2013 14:00:00 26.15833 C 13.22 g/m*3 26.16 C 6.31667 km/h
2367 06-07-2013 15:00:00 27.39167 C 12.32 g/m*3 27.39 C 8.45833 km/h
2368 06-07-2013 16:00:00 27.28333 C 12.98 g/m*3 27.28 C 5.63333 km/h
2369 06-07-2013 17:00:00 27.325 C 12.99 g/m*3 27.33 C 5.76667 km/h
2370 06-07-2013 18:00:00 25.175 C 14.84 g/m*3 25.18 C 2.26667 km/h
2371 06-07-2013 19:00:00 23.54167 C 15.42 g/m*3 23.54 C 1.6 km/h
2372 06-07-2013 20:00:00 20.79167 C 14.75 g/m*3 20.79 C 1.33333 km/h
2373 06-07-2013 21:00:00 17.95833 C 13.87 g/m*3 17.96 C 2.53333 km/h
2374 06-07-2013 22:00:00 17.16667 C 13.42 g/m*3 17.17 C 0.13333 km/h
2375 06-07-2013 23:00:00 16.50833 C 13.11 g/m*3 16.51 C 0 km/h
Sensor: Nr:Datum:Temp:Abs-Feuchte:Windchill:Wind:
Aussen-T/F 2376 07-07-2013 00:00:00 15.96667 C 12.79 g/m*3 15.97 C 0 km/h
2377 07-07-2013 01:00:00 15.68333 C 12.65 g/m*3 15.68 C 0 km/h
2378 07-07-2013 02:00:00 15.26667 C 12.38 g/m*3 15.27 C 0 km/h
2379 07-07-2013 03:00:00 15.175 C 12.43 g/m*3 15.18 C 0 km/h
2380 07-07-2013 04:00:00 14.7 C 12.09 g/m*3 14.7 C 0 km/h
2381 07-07-2013 05:00:00 14.3 C 11.83 g/m*3 14.3 C 0 km/h
2382 07-07-2013 06:00:00 14.44167 C 12.02 g/m*3 14.44 C 0 km/h
2383 07-07-2013 07:00:00 15.25 C 12.63 g/m*3 15.25 C 0 km/h
2384 07-07-2013 08:00:00 16.73333 C 13.26 g/m*3 16.73 C 0 km/h
2385 07-07-2013 09:00:00 17.75833 C 13.79 g/m*3 17.76 C 0 km/h
2386 07-07-2013 10:00:00 19.775 C 14.6 g/m*3 19.77 C 0.4 km/h
2387 07-07-2013 11:00:00 21.75833 C 15.01 g/m*3 21.76 C 2.94167 km/h
2388 07-07-2013 12:00:00 24.91667 C 12.12 g/m*3 24.92 C 6.575 km/h
2389 07-07-2013 13:00:00 26.625 C 11.6 g/m*3 26.63 C 8.88333 km/h
2390 07-07-2013 14:00:00 27.825 C 10.95 g/m*3 27.83 C 8.48333 km/h
2391 07-07-2013 15:00:00 28.425 C 10.3 g/m*3 28.43 C 6.96667 km/h
2392 07-07-2013 16:00:00 28.56667 C 11.34 g/m*3 28.57 C 8.05833 km/h
2393 07-07-2013 17:00:00 28.80833 C 11.18 g/m*3 28.81 C 8.325 km/h
2394 07-07-2013 18:00:00 28.14167 C 12.01 g/m*3 28.14 C 6.175 km/h
2395 07-07-2013 19:00:00 25.79167 C 13.82 g/m*3 25.79 C 3.21667 km/h
2396 07-07-2013 20:00:00 21.725 C 14.01 g/m*3 21.73 C 1.33333 km/h
2397 07-07-2013 21:00:00 19.55 C 13.17 g/m*3 19.55 C 1.2 km/h
2398 07-07-2013 22:00:00 18.54167 C 12.82 g/m*3 18.54 C 0 km/h
2399 07-07-2013 23:00:00 17.53333 C 12.56 g/m*3 17.53 C 0 km/h
2400 08-07-2013 00:00:00 16.7 C 12.26 g/m*3 16.7 C 0 km/h
Sensor: Nr:Datum:Temp:Abs-Feuchte:Windchill:Wind:
Aussen-T/F 2401 08-07-2013 01:00:00 16.04167 C 11.93 g/m*3 16.04 C 0.13333 km/h
2402 08-07-2013 02:00:00 15 C 11.56 g/m*3 15 C 0.13333 km/h
2403 08-07-2013 03:00:00 14.30833 C 11.31 g/m*3 14.31 C 0.13333 km/h
2404 08-07-2013 04:00:00 13.80833 C 11.1 g/m*3 13.81 C 0.13333 km/h
2405 08-07-2013 05:00:00 13.31667 C 10.88 g/m*3 13.32 C 0 km/h
2406 08-07-2013 06:00:00 13.13333 C 10.87 g/m*3 13.13 C 0 km/h
2407 08-07-2013 07:00:00 13.675 C 11.31 g/m*3 13.68 C 0 km/h
2408 08-07-2013 08:00:00 16.09167 C 12.39 g/m*3 16.09 C 0 km/h
2409 08-07-2013 09:00:00 17.44167 C 12.73 g/m*3 17.44 C 0 km/h
2410 08-07-2013 10:00:00 19.125 C 13.74 g/m*3 19.13 C 0.53333 km/h
2411 08-07-2013 11:00:00 23.025 C 13.28 g/m*3 23.03 C 5.75833 km/h
2412 08-07-2013 12:00:00 25.25 C 12 g/m*3 25.25 C 9.525 km/h
2413 08-07-2013 13:00:00 26.625 C 12.33 g/m*3 26.63 C 9.40833 km/h
2414 08-07-2013 14:00:00 27.39167 C 11.94 g/m*3 27.39 C 9.15 km/h
2415 08-07-2013 15:00:00 27.96667 C 11.79 g/m*3 27.97 C 9.95 km/h
2416 08-07-2013 16:00:00 28.575 C 11.79 g/m*3 28.58 C 9.14167 km/h
2417 08-07-2013 17:00:00 28.73333 C 12.29 g/m*3 28.73 C 7.66667 km/h
2418 08-07-2013 18:00:00 28.38333 C 12.45 g/m*3 28.38 C 6.98333 km/h
2419 08-07-2013 19:00:00 27.10833 C 12.79 g/m*3 27.11 C 4.41667 km/h
2420 08-07-2013 20:00:00 23.38333 C 14.09 g/m*3 23.38 C 1.33333 km/h
2421 08-07-2013 21:00:00 20.43333 C 13.25 g/m*3 20.43 C 1.2 km/h
2422 08-07-2013 22:00:00 19.14167 C 12.75 g/m*3 19.14 C 0.8 km/h
2423 08-07-2013 23:00:00 18.28333 C 12.57 g/m*3 18.28 C 0.13333 km/h
2424 09-07-2013 00:00:00 17.64167 C 11.99 g/m*3 17.64 C 0.13333 km/h
2425 09-07-2013 01:00:00 17.33333 C 11.96 g/m*3 17.33 C 0.26667 km/h
Sensor: Nr:Datum:Temp:Abs-Feuchte:Windchill:Wind:
Aussen-T/F 2426 09-07-2013 02:00:00 16.50833 C 11.92 g/m*3 16.51 C 0.13333 km/h
2427 09-07-2013 03:00:00 15.29167 C 11.49 g/m*3 15.29 C 0 km/h
2428 09-07-2013 04:00:00 14.39167 C 11.28 g/m*3 14.39 C 0 km/h
2429 09-07-2013 05:00:00 13.81667 C 11.08 g/m*3 13.82 C 0 km/h
2430 09-07-2013 06:00:00 13.825 C 11.22 g/m*3 13.83 C 0 km/h
2431 09-07-2013 07:00:00 14.48333 C 11.72 g/m*3 14.48 C 0 km/h
2432 09-07-2013 08:00:00 16.89167 C 12.75 g/m*3 16.89 C 0 km/h
2433 09-07-2013 09:00:00 18.05 C 13.24 g/m*3 18.05 C 0 km/h
2434 09-07-2013 10:00:00 20.28333 C 14.04 g/m*3 20.28 C 1.06667 km/h
2435 09-07-2013 11:00:00 22.91667 C 14.73 g/m*3 22.92 C 2.66667 km/h
2436 09-07-2013 12:00:00 23.43333 C 14.98 g/m*3 23.43 C 2.13333 km/h
2437 09-07-2013 13:00:00 26.93333 C 13.35 g/m*3 26.93 C 7.51667 km/h
2438 09-07-2013 14:00:00 27.78333 C 12.38 g/m*3 27.78 C 9.29167 km/h
2439 09-07-2013 15:00:00 28.51667 C 12.45 g/m*3 28.52 C 9.275 km/h
2440 09-07-2013 16:00:00 28.95833 C 12.32 g/m*3 28.96 C 8.86667 km/h
2441 09-07-2013 17:00:00 28.81667 C 12.44 g/m*3 28.82 C 8.45833 km/h
2442 09-07-2013 18:00:00 28.58333 C 13.31 g/m*3 28.58 C 6.025 km/h
2443 09-07-2013 19:00:00 25.53333 C 15.28 g/m*3 25.53 C 2 km/h
2444 09-07-2013 20:00:00 21.55 C 14.58 g/m*3 21.55 C 2 km/h
2445 09-07-2013 21:00:00 20.075 C 13.76 g/m*3 20.08 C 0.26667 km/h
2446 09-07-2013 22:00:00 19.16667 C 13.48 g/m*3 19.17 C 0 km/h
2447 09-07-2013 23:00:00 18.58333 C 13.45 g/m*3 18.58 C 0 km/h
2448 10-07-2013 00:00:00 17.925 C 13.6 g/m*3 17.93 C 0 km/h
2449 10-07-2013 01:00:00 17.175 C 13.28 g/m*3 17.18 C 0 km/h
2450 10-07-2013 02:00:00 16.625 C 13.03 g/m*3 16.63 C 0.13333 km/h
Sensor: Nr:Datum:Temp:Abs-Feuchte:Windchill:Wind:
Aussen-T/F 2451 10-07-2013 03:00:00 16.75 C 12.92 g/m*3 16.75 C 0.8 km/h
2452 10-07-2013 04:00:00 16.075 C 12.32 g/m*3 16.08 C 0 km/h
2453 10-07-2013 05:00:00 15.50833 C 11.83 g/m*3 15.51 C 0 km/h
2454 10-07-2013 06:00:00 15.85 C 11.66 g/m*3 15.85 C 1.33333 km/h
2455 10-07-2013 07:00:00 16.30833 C 11.95 g/m*3 16.31 C 0.8 km/h
2456 10-07-2013 08:00:00 17.70833 C 12.32 g/m*3 17.71 C 2.4 km/h
2457 10-07-2013 09:00:00 19.10833 C 12.25 g/m*3 19.11 C 3.875 km/h
2458 10-07-2013 10:00:00 20.98333 C 12.67 g/m*3 20.98 C 6.43333 km/h
2459 10-07-2013 11:00:00 22.48333 C 12.7 g/m*3 22.48 C 10.5 km/h
2460 10-07-2013 12:00:00 23.65 C 11.7 g/m*3 23.65 C 11.03333 km/h
2461 10-07-2013 13:00:00 24.50833 C 13.01 g/m*3 24.51 C 12.5 km/h
2462 10-07-2013 14:00:00 25.375 C 13.3 g/m*3 25.38 C 12.5 km/h
2463 10-07-2013 15:00:00 25.64167 C 12.89 g/m*3 25.64 C 13.03333 km/h
2464 10-07-2013 16:00:00 25.84167 C 12.63 g/m*3 25.84 C 13.16667 km/h
2465 10-07-2013 17:00:00 25.30833 C 12.51 g/m*3 25.31 C 12.76667 km/h
2466 10-07-2013 18:00:00 23.95833 C 12.75 g/m*3 23.96 C 16.9 km/h
2467 10-07-2013 19:00:00 22.46667 C 12.26 g/m*3 22.47 C 13.16667 km/h
2468 10-07-2013 20:00:00 20.675 C 11.56 g/m*3 20.68 C 7.375 km/h
2469 10-07-2013 21:00:00 19.05 C 11.17 g/m*3 19.05 C 4.15833 km/h
2470 10-07-2013 22:00:00 17.05 C 11.02 g/m*3 17.05 C 2.13333 km/h
2471 10-07-2013 23:00:00 16.925 C 10.73 g/m*3 16.93 C 6.84167 km/h
2472 11-07-2013 00:00:00 15.93333 C 10.22 g/m*3 15.93 C 8.2 km/h
2473 11-07-2013 01:00:00 15.275 C 9.5 g/m*3 15.28 C 7.24167 km/h
2474 11-07-2013 02:00:00 14.10833 C 9.11 g/m*3 14.11 C 3.33333 km/h
2475 11-07-2013 03:00:00 14.05833 C 9.17 g/m*3 14.06 C 4.13333 km/h
Sensor: Nr:Datum:Temp:Abs-Feuchte:Windchill:Wind:
Aussen-T/F 2476 11-07-2013 04:00:00 14.28333 C 8.91 g/m*3 14.28 C 6.7 km/h
2477 11-07-2013 05:00:00 14.05 C 8.7 g/m*3 14.05 C 8.9 km/h
2478 11-07-2013 06:00:00 13.83333 C 8.74 g/m*3 13.83 C 6.69167 km/h
2479 11-07-2013 07:00:00 14.30833 C 9.14 g/m*3 14.31 C 5.35833 km/h
2480 11-07-2013 08:00:00 15.20833 C 9.69 g/m*3 15.21 C 7.10833 km/h
2481 11-07-2013 09:00:00 15.83333 C 9.87 g/m*3 15.83 C 6.15833 km/h
2482 11-07-2013 10:00:00 17.04167 C 10.2 g/m*3 17.04 C 6.56667 km/h
2483 11-07-2013 11:00:00 17.63333 C 10.34 g/m*3 17.63 C 9.01667 km/h
2484 11-07-2013 12:00:00 18.64167 C 10.77 g/m*3 18.64 C 9.56667 km/h
2485 11-07-2013 13:00:00 19.375 C 10.61 g/m*3 19.38 C 10.36667 km/h
2486 11-07-2013 14:00:00 19.71667 C 10.88 g/m*3 19.72 C 11.56667 km/h
2487 11-07-2013 15:00:00 20.3 C 10.86 g/m*3 20.3 C 11.16667 km/h
2488 11-07-2013 16:00:00 21.76667 C 10.9 g/m*3 21.77 C 11.7 km/h
2489 11-07-2013 17:00:00 21.65833 C 11.02 g/m*3 21.66 C 11.7 km/h
2490 11-07-2013 18:00:00 21.04167 C 10.82 g/m*3 21.04 C 12.9 km/h
2491 11-07-2013 19:00:00 20.08333 C 10.78 g/m*3 20.08 C 10.35833 km/h
2492 11-07-2013 20:00:00 18.575 C 10.61 g/m*3 18.58 C 9.28333 km/h
2493 11-07-2013 21:00:00 17.25 C 10.48 g/m*3 17.25 C 4.15 km/h
2494 11-07-2013 22:00:00 15.78333 C 10.37 g/m*3 15.78 C 3.6 km/h
2495 11-07-2013 23:00:00 14.74167 C 10.11 g/m*3 14.74 C 0.8 km/h
2496 12-07-2013 00:00:00 13.21667 C 9.85 g/m*3 13.22 C 0 km/h
2497 12-07-2013 01:00:00 12.49167 C 9.69 g/m*3 12.49 C 0 km/h
2498 12-07-2013 02:00:00 11.89167 C 9.52 g/m*3 11.89 C 0 km/h
2499 12-07-2013 03:00:00 11.36667 C 9.41 g/m*3 11.37 C 0 km/h
2500 12-07-2013 04:00:00 11.025 C 9.32 g/m*3 11.03 C 0 km/h
Sensor: Nr:Datum:Temp:Abs-Feuchte:Windchill:Wind:
Aussen-T/F 2501 12-07-2013 05:00:00 10.53333 C 9.1 g/m*3 10.53 C 0 km/h
2502 12-07-2013 06:00:00 10.53333 C 9.2 g/m*3 10.53 C 0.4 km/h
2503 12-07-2013 07:00:00 11.16667 C 9.59 g/m*3 11.17 C 0 km/h
2504 12-07-2013 08:00:00 13.49167 C 10.43 g/m*3 13.49 C 0.26667 km/h
2505 12-07-2013 09:00:00 15.14167 C 10.85 g/m*3 15.14 C 1.33333 km/h
2506 12-07-2013 10:00:00 17.40833 C 11.44 g/m*3 17.41 C 3.6 km/h
2507 12-07-2013 11:00:00 19.30833 C 11.45 g/m*3 19.31 C 4.4 km/h
2508 12-07-2013 12:00:00 21.025 C 11.22 g/m*3 21.03 C 5.08333 km/h
2509 12-07-2013 13:00:00 21.96667 C 11.11 g/m*3 21.97 C 7.38333 km/h
2510 12-07-2013 14:00:00 22.19167 C 10.68 g/m*3 22.19 C 9.29167 km/h
2511 12-07-2013 15:00:00 22.98333 C 10.78 g/m*3 22.98 C 9.00833 km/h
2512 12-07-2013 16:00:00 23.48333 C 10.48 g/m*3 23.48 C 9.03333 km/h
2513 12-07-2013 17:00:00 23.46667 C 10.75 g/m*3 23.47 C 10.48333 km/h
2514 12-07-2013 18:00:00 22.675 C 10.76 g/m*3 22.68 C 10.23333 km/h
2515 12-07-2013 19:00:00 21.75833 C 10.69 g/m*3 21.76 C 9.41667 km/h
2516 12-07-2013 20:00:00 19.91667 C 10.32 g/m*3 19.92 C 8.45833 km/h
2517 12-07-2013 21:00:00 17.86667 C 10.13 g/m*3 17.87 C 5.23333 km/h
2518 12-07-2013 22:00:00 16.20833 C 10.23 g/m*3 16.21 C 3.34167 km/h
2519 12-07-2013 23:00:00 14.69167 C 10.25 g/m*3 14.69 C 0.66667 km/h
2520 13-07-2013 00:00:00 13.83333 C 10.1 g/m*3 13.83 C 0.26667 km/h
2521 13-07-2013 01:00:00 13.33333 C 9.87 g/m*3 13.33 C 0.93333 km/h
2522 13-07-2013 02:00:00 12.45 C 9.69 g/m*3 12.45 C 0 km/h
2523 13-07-2013 03:00:00 11.66667 C 9.48 g/m*3 11.67 C 0 km/h
2524 13-07-2013 04:00:00 11.2 C 9.37 g/m*3 11.2 C 0.13333 km/h
2525 13-07-2013 05:00:00 10.775 C 9.21 g/m*3 10.78 C 0 km/h
Sensor: Nr:Datum:Temp:Abs-Feuchte:Windchill:Wind:
Aussen-T/F 2526 13-07-2013 06:00:00 10.75833 C 9.28 g/m*3 10.76 C 0 km/h
2527 13-07-2013 07:00:00 11.45 C 9.73 g/m*3 11.45 C 0 km/h
2528 13-07-2013 08:00:00 13.84167 C 10.62 g/m*3 13.84 C 0.26667 km/h
2529 13-07-2013 09:00:00 15.43333 C 10.94 g/m*3 15.43 C 1.46667 km/h
2530 13-07-2013 10:00:00 17.6 C 11.4 g/m*3 17.6 C 2.93333 km/h
2531 13-07-2013 11:00:00 19.79167 C 11.52 g/m*3 19.79 C 6.85 km/h
2532 13-07-2013 12:00:00 21.075 C 11.81 g/m*3 21.08 C 7.51667 km/h
2533 13-07-2013 13:00:00 22.55833 C 11.69 g/m*3 22.56 C 7.93333 km/h
2534 13-07-2013 14:00:00 22.88333 C 11.31 g/m*3 22.88 C 8.19167 km/h
2535 13-07-2013 15:00:00 23.525 C 11.49 g/m*3 23.53 C 10.36667 km/h
2536 13-07-2013 16:00:00 23.19167 C 11.19 g/m*3 23.19 C 12.36667 km/h
2537 13-07-2013 17:00:00 23.3 C 11.31 g/m*3 23.3 C 10.76667 km/h
2538 13-07-2013 18:00:00 22.825 C 11.02 g/m*3 22.83 C 9.95833 km/h
2539 13-07-2013 19:00:00 22.11667 C 10.88 g/m*3 22.12 C 9.41667 km/h
2540 13-07-2013 20:00:00 20.7 C 10.89 g/m*3 20.7 C 6.43333 km/h
2541 13-07-2013 21:00:00 18.375 C 11.16 g/m*3 18.38 C 3.2 km/h
2542 13-07-2013 22:00:00 16.31667 C 11.09 g/m*3 16.32 C 0.13333 km/h
2543 13-07-2013 23:00:00 15.34167 C 10.9 g/m*3 15.34 C 0 km/h
2544 14-07-2013 00:00:00 14.21667 C 10.59 g/m*3 14.22 C 0 km/h
2545 14-07-2013 01:00:00 13.225 C 10.32 g/m*3 13.23 C 0 km/h
2546 14-07-2013 02:00:00 12.65 C 10.14 g/m*3 12.65 C 0 km/h
2547 14-07-2013 03:00:00 12.175 C 9.99 g/m*3 12.18 C 0 km/h
2548 14-07-2013 04:00:00 11.70833 C 9.81 g/m*3 11.71 C 0 km/h
2549 14-07-2013 05:00:00 11.24167 C 9.59 g/m*3 11.24 C 0.4 km/h
2550 14-07-2013 06:00:00 11.1 C 9.57 g/m*3 11.1 C 0.8 km/h
Sensor: Nr:Datum:Temp:Abs-Feuchte:Windchill:Wind:
Aussen-T/F 2551 14-07-2013 07:00:00 11.525 C 9.83 g/m*3 11.53 C 2.66667 km/h
2552 14-07-2013 08:00:00 13.69167 C 10.75 g/m*3 13.69 C 0.53333 km/h
2553 14-07-2013 09:00:00 15.91667 C 11.69 g/m*3 15.92 C 0.4 km/h
2554 14-07-2013 10:00:00 18.34167 C 12.28 g/m*3 18.34 C 2.26667 km/h
2555 14-07-2013 11:00:00 20.725 C 12 g/m*3 20.73 C 7.50833 km/h
2556 14-07-2013 12:00:00 22.44167 C 12.19 g/m*3 22.44 C 7.8 km/h
2557 14-07-2013 13:00:00 23.56667 C 12.22 g/m*3 23.57 C 8.2 km/h
2558 14-07-2013 14:00:00 24.73333 C 12.38 g/m*3 24.73 C 7.93333 km/h
2559 14-07-2013 15:00:00 25.2 C 12.45 g/m*3 25.2 C 8.9 km/h
2560 14-07-2013 16:00:00 25.21667 C 12.41 g/m*3 25.22 C 11.96667 km/h
2561 14-07-2013 17:00:00 25.025 C 12.35 g/m*3 25.03 C 11.7 km/h
2562 14-07-2013 18:00:00 24.89167 C 12.55 g/m*3 24.89 C 10.5 km/h
2563 14-07-2013 19:00:00 23.6 C 11.75 g/m*3 23.6 C 9.825 km/h
2564 14-07-2013 20:00:00 22.33333 C 11.77 g/m*3 22.33 C 8.2 km/h
2565 14-07-2013 21:00:00 20.225 C 11.92 g/m*3 20.23 C 2.66667 km/h
2566 14-07-2013 22:00:00 18.58333 C 11.47 g/m*3 18.58 C 4.66667 km/h
2567 14-07-2013 23:00:00 16.9 C 11.3 g/m*3 16.9 C 1.46667 km/h
2568 15-07-2013 00:00:00 15.55 C 11.12 g/m*3 15.55 C 1.46667 km/h
2569 15-07-2013 01:00:00 14.50833 C 10.9 g/m*3 14.51 C 0.13333 km/h
2570 15-07-2013 02:00:00 13.85 C 10.7 g/m*3 13.85 C 0 km/h
2571 15-07-2013 03:00:00 13.09167 C 10.45 g/m*3 13.09 C 0 km/h
2572 15-07-2013 04:00:00 12.55 C 10.27 g/m*3 12.55 C 0 km/h
2573 15-07-2013 05:00:00 12.16667 C 10.1 g/m*3 12.17 C 0.13333 km/h
2574 15-07-2013 06:00:00 12.10833 C 10.13 g/m*3 12.11 C 0.13333 km/h
2575 15-07-2013 07:00:00 12.74167 C 10.47 g/m*3 12.74 C 2 km/h
Sensor: Nr:Datum:Temp:Abs-Feuchte:Windchill:Wind:
Aussen-T/F 2576 15-07-2013 08:00:00 14.825 C 11.12 g/m*3 14.83 C 2.8 km/h
2577 15-07-2013 09:00:00 16.78333 C 11.46 g/m*3 16.78 C 3.06667 km/h
2578 15-07-2013 10:00:00 18.79167 C 12.18 g/m*3 18.79 C 1.46667 km/h
2579 15-07-2013 11:00:00 21.05833 C 12.5 g/m*3 21.06 C 2.93333 km/h
2580 15-07-2013 12:00:00 23.00833 C 12.53 g/m*3 23.01 C 4 km/h
2581 15-07-2013 13:00:00 24.35 C 12.69 g/m*3 24.35 C 5.34167 km/h
2582 15-07-2013 14:00:00 25.45833 C 12.3 g/m*3 25.46 C 6.55833 km/h
2583 15-07-2013 15:00:00 26.41667 C 11.9 g/m*3 26.42 C 5.75833 km/h
2584 15-07-2013 16:00:00 26.675 C 12.41 g/m*3 26.68 C 5.75833 km/h
2585 15-07-2013 17:00:00 26.34167 C 12.84 g/m*3 26.34 C 4.96667 km/h
2586 15-07-2013 18:00:00 24.54167 C 13.96 g/m*3 24.54 C 2.26667 km/h
2587 15-07-2013 19:00:00 22.8 C 14.44 g/m*3 22.8 C 1.6 km/h
2588 15-07-2013 20:00:00 21.23333 C 13.9 g/m*3 21.23 C 0.4 km/h
2589 15-07-2013 21:00:00 18.99167 C 12.85 g/m*3 18.99 C 0.66667 km/h
2590 15-07-2013 22:00:00 17.95833 C 12.35 g/m*3 17.96 C 0 km/h
2591 15-07-2013 23:00:00 16.71667 C 11.71 g/m*3 16.72 C 0 km/h
2592 16-07-2013 00:00:00 15.775 C 11.35 g/m*3 15.78 C 0 km/h
2593 16-07-2013 01:00:00 15.34167 C 11.52 g/m*3 15.34 C 0.66667 km/h
2594 16-07-2013 02:00:00 14.64167 C 11.37 g/m*3 14.64 C 0.13333 km/h
2595 16-07-2013 03:00:00 13.91667 C 11.11 g/m*3 13.92 C 0.13333 km/h
2596 16-07-2013 04:00:00 13.43333 C 10.95 g/m*3 13.43 C 0.26667 km/h
2597 16-07-2013 05:00:00 13.04167 C 10.74 g/m*3 13.04 C 0 km/h
2598 16-07-2013 06:00:00 13.00833 C 10.78 g/m*3 13.01 C 0.13333 km/h
2599 16-07-2013 07:00:00 13.60833 C 11.17 g/m*3 13.61 C 0.13333 km/h
2600 16-07-2013 08:00:00 15.71667 C 12.04 g/m*3 15.72 C 0.13333 km/h
Sensor: Nr:Datum:Temp:Abs-Feuchte:Windchill:Wind:
Aussen-T/F 2601 16-07-2013 09:00:00 17.29167 C 12.75 g/m*3 17.29 C 0.4 km/h
2602 16-07-2013 10:00:00 19.45833 C 13.63 g/m*3 19.46 C 0.93333 km/h
2603 16-07-2013 11:00:00 21.29167 C 14.08 g/m*3 21.29 C 1.86667 km/h
2604 16-07-2013 12:00:00 22.85833 C 13.83 g/m*3 22.86 C 2.66667 km/h
2605 16-07-2013 13:00:00 25.79167 C 12.07 g/m*3 25.79 C 4.28333 km/h
2606 16-07-2013 14:00:00 27.19167 C 12.09 g/m*3 27.19 C 6.3 km/h
2607 16-07-2013 15:00:00 27.88333 C 11.55 g/m*3 27.88 C 7.24167 km/h
2608 16-07-2013 16:00:00 28.5 C 11.83 g/m*3 28.5 C 6.56667 km/h
2609 16-07-2013 17:00:00 28.71667 C 11.81 g/m*3 28.72 C 8.05 km/h
2610 16-07-2013 18:00:00 28.55 C 11.61 g/m*3 28.55 C 6.96667 km/h
2611 16-07-2013 19:00:00 28.24167 C 11.39 g/m*3 28.24 C 6.15833 km/h
2612 16-07-2013 20:00:00 23.65833 C 13.25 g/m*3 23.66 C 2.13333 km/h
2613 16-07-2013 21:00:00 19.9 C 12.36 g/m*3 19.9 C 1.46667 km/h
2614 16-07-2013 22:00:00 18.66667 C 12.09 g/m*3 18.67 C 0 km/h
2615 16-07-2013 23:00:00 17.94167 C 11.98 g/m*3 17.94 C 0.13333 km/h
2616 17-07-2013 00:00:00 16.88333 C 11.83 g/m*3 16.88 C 0 km/h
2617 17-07-2013 01:00:00 15.93333 C 11.55 g/m*3 15.93 C 0 km/h
2618 17-07-2013 02:00:00 15.24167 C 11.42 g/m*3 15.24 C 0.26667 km/h
2619 17-07-2013 03:00:00 14.71667 C 11.25 g/m*3 14.72 C 0 km/h
2620 17-07-2013 04:00:00 14.10833 C 11.06 g/m*3 14.11 C 0 km/h
2621 17-07-2013 05:00:00 13.73333 C 10.95 g/m*3 13.73 C 0.13333 km/h
2622 17-07-2013 06:00:00 13.65 C 10.98 g/m*3 13.65 C 0 km/h
2623 17-07-2013 07:00:00 14.21667 C 11.41 g/m*3 14.22 C 0 km/h
2624 17-07-2013 08:00:00 16.49167 C 12.39 g/m*3 16.49 C 0.13333 km/h
2625 17-07-2013 09:00:00 17.65833 C 12.83 g/m*3 17.66 C 0.13333 km/h
Sensor: Nr:Datum:Temp:Abs-Feuchte:Windchill:Wind:
Aussen-T/F 2626 17-07-2013 10:00:00 19.68333 C 13.7 g/m*3 19.68 C 1.06667 km/h
2627 17-07-2013 11:00:00 22.13333 C 14.24 g/m*3 22.13 C 2.13333 km/h
2628 17-07-2013 12:00:00 25.75 C 13.8 g/m*3 25.75 C 7.13333 km/h
2629 17-07-2013 13:00:00 26.75 C 13.52 g/m*3 26.75 C 5.08333 km/h
2630 17-07-2013 14:00:00 27.53333 C 13.01 g/m*3 27.53 C 5.48333 km/h
2631 17-07-2013 15:00:00 27.175 C 13.1 g/m*3 27.18 C 5.35 km/h
2632 17-07-2013 16:00:00 26.64167 C 14.42 g/m*3 26.64 C 2.4 km/h
2633 17-07-2013 17:00:00 29.26667 C 11.75 g/m*3 29.27 C 7.25 km/h
2634 17-07-2013 18:00:00 25.725 C 14.38 g/m*3 25.73 C 1.46667 km/h
2635 17-07-2013 19:00:00 22.25833 C 13.99 g/m*3 22.26 C 1.33333 km/h
2636 17-07-2013 20:00:00 22.16667 C 14.06 g/m*3 22.17 C 0.26667 km/h
2637 17-07-2013 21:00:00 20.96667 C 14.09 g/m*3 20.97 C 0.4 km/h
2638 17-07-2013 22:00:00 19.69167 C 13.56 g/m*3 19.69 C 0.13333 km/h
2639 17-07-2013 23:00:00 18.8 C 13.06 g/m*3 18.8 C 0 km/h
2640 18-07-2013 00:00:00 17.81667 C 12.57 g/m*3 17.82 C 0 km/h
2641 18-07-2013 01:00:00 17.08333 C 12.37 g/m*3 17.08 C 0 km/h
2642 18-07-2013 02:00:00 16.425 C 12.17 g/m*3 16.43 C 0 km/h
2643 18-07-2013 03:00:00 15.725 C 11.97 g/m*3 15.73 C 0 km/h
2644 18-07-2013 04:00:00 15.23333 C 11.87 g/m*3 15.23 C 0 km/h
2645 18-07-2013 05:00:00 14.725 C 11.66 g/m*3 14.73 C 0 km/h
2646 18-07-2013 06:00:00 14.59167 C 11.74 g/m*3 14.59 C 0 km/h
2647 18-07-2013 07:00:00 14.94167 C 12.01 g/m*3 14.94 C 0 km/h
2648 18-07-2013 08:00:00 16.86667 C 13.05 g/m*3 16.87 C 0 km/h
2649 18-07-2013 09:00:00 18.75833 C 14.02 g/m*3 18.76 C 0.26667 km/h
2650 18-07-2013 10:00:00 20.875 C 14.79 g/m*3 20.88 C 0.8 km/h
Sensor: Nr:Datum:Temp:Abs-Feuchte:Windchill:Wind:
Aussen-T/F 2651 18-07-2013 11:00:00 25.41667 C 14.59 g/m*3 25.42 C 5.48333 km/h
2652 18-07-2013 12:00:00 27.31667 C 13.18 g/m*3 27.32 C 9.66667 km/h
2653 18-07-2013 13:00:00 28.46667 C 12.65 g/m*3 28.47 C 11.3 km/h
2654 18-07-2013 14:00:00 29.3 C 12.51 g/m*3 29.3 C 9.275 km/h
2655 18-07-2013 15:00:00 29.89167 C 11.61 g/m*3 29.89 C 9.28333 km/h
2656 18-07-2013 16:00:00 30.53333 C 12.15 g/m*3 30.53 C 9.01667 km/h
2657 18-07-2013 17:00:00 30.95833 C 12.05 g/m*3 30.96 C 8.06667 km/h
2658 18-07-2013 18:00:00 30.50833 C 12.55 g/m*3 30.51 C 5.35 km/h
2659 18-07-2013 19:00:00 25.35833 C 14.46 g/m*3 25.36 C 1.33333 km/h
2660 18-07-2013 20:00:00 22.45 C 13.68 g/m*3 22.45 C 1.6 km/h
2661 18-07-2013 21:00:00 21.275 C 12.32 g/m*3 21.28 C 1.6 km/h
2662 18-07-2013 22:00:00 20.40833 C 12.32 g/m*3 20.41 C 0.13333 km/h
2663 18-07-2013 23:00:00 19.41667 C 12.64 g/m*3 19.42 C 0 km/h
2664 19-07-2013 00:00:00 18.63333 C 12.33 g/m*3 18.63 C 0 km/h
2665 19-07-2013 01:00:00 17.74167 C 12.13 g/m*3 17.74 C 0 km/h
2666 19-07-2013 02:00:00 16.5 C 11.78 g/m*3 16.5 C 0 km/h
2667 19-07-2013 03:00:00 15.79167 C 11.72 g/m*3 15.79 C 0 km/h
2668 19-07-2013 04:00:00 15.20833 C 11.53 g/m*3 15.21 C 0 km/h
2669 19-07-2013 05:00:00 14.61667 C 11.36 g/m*3 14.62 C 0.13333 km/h
2670 19-07-2013 06:00:00 14.39167 C 11.44 g/m*3 14.39 C 0 km/h
2671 19-07-2013 07:00:00 15.05833 C 11.96 g/m*3 15.06 C 0 km/h
2672 19-07-2013 08:00:00 17.35833 C 12.81 g/m*3 17.36 C 0 km/h
2673 19-07-2013 09:00:00 18.61667 C 13.38 g/m*3 18.62 C 0.4 km/h
2674 19-07-2013 10:00:00 20.29167 C 14.08 g/m*3 20.29 C 1.20833 km/h
2675 19-07-2013 11:00:00 23.625 C 14.8 g/m*3 23.63 C 3.475 km/h
Sensor: Nr:Datum:Temp:Abs-Feuchte:Windchill:Wind:
Aussen-T/F 2676 19-07-2013 12:00:00 27.03333 C 12.96 g/m*3 27.03 C 7.375 km/h
2677 19-07-2013 13:00:00 28.11667 C 13.09 g/m*3 28.12 C 7.38333 km/h
2678 19-07-2013 14:00:00 28.63333 C 12.36 g/m*3 28.63 C 8.74167 km/h
2679 19-07-2013 15:00:00 29.21667 C 12.11 g/m*3 29.22 C 10.09167 km/h
2680 19-07-2013 16:00:00 29.8 C 12.5 g/m*3 29.8 C 10.09167 km/h
2681 19-07-2013 17:00:00 29.73333 C 12.4 g/m*3 29.73 C 9.7 km/h
2682 19-07-2013 18:00:00 29.89167 C 12.49 g/m*3 29.89 C 13.3 km/h
2683 19-07-2013 19:00:00 28.31667 C 12.41 g/m*3 28.32 C 12.1 km/h
2684 19-07-2013 20:00:00 26.175 C 12.31 g/m*3 26.18 C 9.7 km/h
2685 19-07-2013 21:00:00 24.6 C 12.15 g/m*3 24.6 C 7.39167 km/h
2686 19-07-2013 22:00:00 22.075 C 12.65 g/m*3 22.08 C 1.46667 km/h
2687 19-07-2013 23:00:00 19.61667 C 12.63 g/m*3 19.62 C 0.26667 km/h
2688 20-07-2013 00:00:00 18.69167 C 12.5 g/m*3 18.69 C 0 km/h
2689 20-07-2013 01:00:00 17.90833 C 12.32 g/m*3 17.91 C 0 km/h
2690 20-07-2013 02:00:00 17.13333 C 12.15 g/m*3 17.13 C 0 km/h
2691 20-07-2013 03:00:00 16.125 C 11.85 g/m*3 16.13 C 0 km/h
2692 20-07-2013 04:00:00 15.2 C 11.57 g/m*3 15.2 C 0 km/h
2693 20-07-2013 05:00:00 14.69167 C 11.48 g/m*3 14.69 C 0 km/h
2694 20-07-2013 06:00:00 14.40833 C 11.46 g/m*3 14.41 C 0 km/h
2695 20-07-2013 07:00:00 14.89167 C 11.83 g/m*3 14.89 C 0 km/h
2696 20-07-2013 08:00:00 16.70833 C 12.49 g/m*3 16.71 C 0 km/h
2697 20-07-2013 09:00:00 17.80833 C 12.93 g/m*3 17.81 C 0.66667 km/h
2698 20-07-2013 10:00:00 20.5 C 13.11 g/m*3 20.5 C 2.80833 km/h
2699 20-07-2013 11:00:00 23.325 C 12.72 g/m*3 23.33 C 6.43333 km/h
2700 20-07-2013 12:00:00 24.65833 C 12.68 g/m*3 24.66 C 7.65833 km/h
Sensor: Nr:Datum:Temp:Abs-Feuchte:Windchill:Wind:
Aussen-T/F 2701 20-07-2013 13:00:00 25.93333 C 12.79 g/m*3 25.93 C 6.425 km/h
2702 20-07-2013 14:00:00 27.06667 C 12.72 g/m*3 27.07 C 8.74167 km/h
2703 20-07-2013 15:00:00 28.09167 C 12.91 g/m*3 28.09 C 8.475 km/h
2704 20-07-2013 16:00:00 28.75 C 12.94 g/m*3 28.75 C 8.875 km/h
2705 20-07-2013 17:00:00 29.10833 C 13.17 g/m*3 29.11 C 8.48333 km/h
2706 20-07-2013 18:00:00 29.03333 C 13.26 g/m*3 29.03 C 7.38333 km/h
2707 20-07-2013 19:00:00 27.875 C 13.12 g/m*3 27.88 C 6.96667 km/h
2708 20-07-2013 20:00:00 24.6 C 13.3 g/m*3 24.6 C 2.40833 km/h
2709 20-07-2013 21:00:00 20.60833 C 12.27 g/m*3 20.61 C 1.33333 km/h
2710 20-07-2013 22:00:00 19.575 C 12.04 g/m*3 19.58 C 0 km/h
2711 20-07-2013 23:00:00 18.76667 C 12.36 g/m*3 18.77 C 0.53333 km/h
2712 21-07-2013 00:00:00 17.74167 C 12.3 g/m*3 17.74 C 0.13333 km/h
2713 21-07-2013 01:00:00 17.16667 C 12.23 g/m*3 17.17 C 0 km/h
2714 21-07-2013 02:00:00 16.43333 C 11.93 g/m*3 16.43 C 0 km/h
2715 21-07-2013 03:00:00 15.60833 C 11.73 g/m*3 15.61 C 0 km/h
2716 21-07-2013 04:00:00 15.10833 C 11.63 g/m*3 15.11 C 0 km/h
2717 21-07-2013 05:00:00 14.6 C 11.46 g/m*3 14.6 C 0 km/h
2718 21-07-2013 06:00:00 14.33333 C 11.4 g/m*3 14.33 C 0 km/h
2719 21-07-2013 07:00:00 14.75833 C 11.78 g/m*3 14.76 C 0 km/h
2720 21-07-2013 08:00:00 16.85833 C 12.8 g/m*3 16.86 C 0 km/h
2721 21-07-2013 09:00:00 18.60833 C 13.52 g/m*3 18.61 C 1.86667 km/h
2722 21-07-2013 10:00:00 21.75 C 14.25 g/m*3 21.75 C 3.06667 km/h
2723 21-07-2013 11:00:00 25.18333 C 14.57 g/m*3 25.18 C 5.20833 km/h
2724 21-07-2013 12:00:00 27.61667 C 14.4 g/m*3 27.62 C 8.74167 km/h
2725 21-07-2013 13:00:00 29.2 C 14.01 g/m*3 29.2 C 6.29167 km/h
Sensor: Nr:Datum:Temp:Abs-Feuchte:Windchill:Wind:
Aussen-T/F 2726 21-07-2013 14:00:00 30.66667 C 12.73 g/m*3 30.67 C 7.65 km/h
2727 21-07-2013 15:00:00 31.25833 C 12.41 g/m*3 31.26 C 7.65833 km/h
2728 21-07-2013 16:00:00 31.68333 C 12.03 g/m*3 31.68 C 7.25833 km/h
2729 21-07-2013 17:00:00 31.95833 C 12.07 g/m*3 31.96 C 5.89167 km/h
2730 21-07-2013 18:00:00 30.43333 C 14.38 g/m*3 30.43 C 2.54167 km/h
2731 21-07-2013 19:00:00 27.15833 C 15.23 g/m*3 27.16 C 1.46667 km/h
2732 21-07-2013 20:00:00 24.29167 C 14.78 g/m*3 24.29 C 1.2 km/h
2733 21-07-2013 21:00:00 22.125 C 13.47 g/m*3 22.13 C 1.6 km/h
2734 21-07-2013 22:00:00 21.08333 C 12.9 g/m*3 21.08 C 0.26667 km/h
2735 21-07-2013 23:00:00 19.7 C 12.68 g/m*3 19.7 C 0 km/h
2736 22-07-2013 00:00:00 18.6 C 12.32 g/m*3 18.6 C 0 km/h
2737 22-07-2013 01:00:00 17.78333 C 12.14 g/m*3 17.78 C 0 km/h
2738 22-07-2013 02:00:00 17.26667 C 12.35 g/m*3 17.27 C 0.26667 km/h
2739 22-07-2013 03:00:00 16.35 C 12.08 g/m*3 16.35 C 0 km/h
2740 22-07-2013 04:00:00 15.66667 C 11.94 g/m*3 15.67 C 0 km/h
2741 22-07-2013 05:00:00 15.25833 C 11.86 g/m*3 15.26 C 0.13333 km/h
2742 22-07-2013 06:00:00 15.03333 C 11.86 g/m*3 15.03 C 0 km/h
2743 22-07-2013 07:00:00 15.49167 C 12.17 g/m*3 15.49 C 0.13333 km/h
2744 22-07-2013 08:00:00 17.44167 C 12.99 g/m*3 17.44 C 0.13333 km/h
2745 22-07-2013 09:00:00 18.79167 C 13.72 g/m*3 18.79 C 0.53333 km/h
2746 22-07-2013 10:00:00 20.71667 C 15.09 g/m*3 20.72 C 0 km/h
2747 22-07-2013 11:00:00 22.90833 C 16.02 g/m*3 22.91 C 0.13333 km/h
2748 22-07-2013 12:00:00 25.075 C 16.37 g/m*3 25.08 C 1.06667 km/h
2749 22-07-2013 13:00:00 28.775 C 15.25 g/m*3 28.78 C 2.53333 km/h
2750 22-07-2013 14:00:00 31.88333 C 13.53 g/m*3 31.88 C 5.75 km/h
Sensor: Nr:Datum:Temp:Abs-Feuchte:Windchill:Wind:
Aussen-T/F 2751 22-07-2013 15:00:00 32.275 C 12.9 g/m*3 32.28 C 4.53333 km/h
2752 22-07-2013 16:00:00 32.675 C 12.07 g/m*3 32.67 C 4.01667 km/h
2753 22-07-2013 17:00:00 32.08333 C 12.04 g/m*3 32.08 C 4.4 km/h
2754 22-07-2013 18:00:00 28.3 C 15.04 g/m*3 28.3 C 1.46667 km/h
2755 22-07-2013 19:00:00 25.66667 C 14.98 g/m*3 25.67 C 1.73333 km/h
2756 22-07-2013 20:00:00 23.71667 C 13.68 g/m*3 23.72 C 0.93333 km/h
2757 22-07-2013 21:00:00 22.70833 C 13.59 g/m*3 22.71 C 0 km/h
2758 22-07-2013 22:00:00 21.95 C 13.43 g/m*3 21.95 C 0 km/h
2759 22-07-2013 23:00:00 21.55833 C 13.48 g/m*3 21.56 C 0.13333 km/h
2760 23-07-2013 00:00:00 21.34167 C 13.94 g/m*3 21.34 C 1.46667 km/h
2761 23-07-2013 01:00:00 21.125 C 14.3 g/m*3 21.13 C 0.66667 km/h
2762 23-07-2013 02:00:00 20.31667 C 14.32 g/m*3 20.32 C 1.33333 km/h
2763 23-07-2013 03:00:00 20.18333 C 14.5 g/m*3 20.18 C 1.2 km/h
2764 23-07-2013 04:00:00 18.63333 C 14.64 g/m*3 18.63 C 0.4 km/h
2765 23-07-2013 05:00:00 17.90833 C 14.31 g/m*3 17.91 C 0.53333 km/h
2766 23-07-2013 06:00:00 17.99167 C 14.47 g/m*3 17.99 C 0.53333 km/h
2767 23-07-2013 07:00:00 18.20833 C 14.8 g/m*3 18.21 C 0.66667 km/h
2768 23-07-2013 08:00:00 18.31667 C 15.02 g/m*3 18.32 C 0.66667 km/h
2769 23-07-2013 09:00:00 18.35 C 15.07 g/m*3 18.35 C 1.46667 km/h
2770 23-07-2013 10:00:00 18.95 C 15.76 g/m*3 18.95 C 0 km/h
2771 23-07-2013 11:00:00 20.05 C 16.65 g/m*3 20.05 C 0.13333 km/h
2772 23-07-2013 12:00:00 21.75 C 17.46 g/m*3 21.75 C 1.2 km/h
2773 23-07-2013 13:00:00 24.56667 C 18.83 g/m*3 24.57 C 2.93333 km/h
2774 23-07-2013 14:00:00 26.75 C 20.07 g/m*3 26.75 C 2 km/h
2775 23-07-2013 15:00:00 29.55833 C 19.05 g/m*3 29.56 C 4.26667 km/h
Sensor: Nr:Datum:Temp:Abs-Feuchte:Windchill:Wind:
Aussen-T/F 2776 23-07-2013 16:00:00 27.53333 C 18.86 g/m*3 27.53 C 1.73333 km/h
2777 23-07-2013 17:00:00 23.55833 C 18.35 g/m*3 23.56 C 2 km/h
2778 23-07-2013 18:00:00 22.60833 C 17.28 g/m*3 22.61 C 1.86667 km/h
2779 23-07-2013 19:00:00 22.15 C 16.88 g/m*3 22.15 C 2 km/h
2780 23-07-2013 20:00:00 21.80833 C 16.89 g/m*3 21.81 C 0.26667 km/h
2781 23-07-2013 21:00:00 21.00833 C 16.02 g/m*3 21.01 C 0.26667 km/h
2782 23-07-2013 22:00:00 20.39167 C 15.65 g/m*3 20.39 C 0.66667 km/h
2783 23-07-2013 23:00:00 19.91667 C 15.02 g/m*3 19.92 C 0 km/h
2784 24-07-2013 00:00:00 19.275 C 14.62 g/m*3 19.27 C 0 km/h
2785 24-07-2013 01:00:00 18.73333 C 14.33 g/m*3 18.73 C 0 km/h
2786 24-07-2013 02:00:00 18.15833 C 14.1 g/m*3 18.16 C 0 km/h
2787 24-07-2013 03:00:00 17.725 C 13.8 g/m*3 17.73 C 0.13333 km/h
2788 24-07-2013 04:00:00 17.33333 C 13.68 g/m*3 17.33 C 1.2 km/h
2789 24-07-2013 05:00:00 16.88333 C 13.43 g/m*3 16.88 C 0 km/h
2790 24-07-2013 06:00:00 16.79167 C 13.56 g/m*3 16.79 C 0 km/h
2791 24-07-2013 07:00:00 17.74167 C 14.14 g/m*3 17.74 C 1.73333 km/h
2792 24-07-2013 08:00:00 19.55 C 14.7 g/m*3 19.55 C 3.86667 km/h
2793 24-07-2013 09:00:00 21.30833 C 15.66 g/m*3 21.31 C 1.2 km/h
2794 24-07-2013 10:00:00 22.46667 C 15.63 g/m*3 22.47 C 5.61667 km/h
2795 24-07-2013 11:00:00 23.25833 C 16.11 g/m*3 23.26 C 5.74167 km/h
2796 24-07-2013 12:00:00 24.30833 C 15.41 g/m*3 24.31 C 8.86667 km/h
2797 24-07-2013 13:00:00 24.825 C 14.4 g/m*3 24.83 C 7.38333 km/h
2798 24-07-2013 14:00:00 24.2 C 14.14 g/m*3 24.2 C 7.10833 km/h
2799 24-07-2013 15:00:00 24.60833 C 14.24 g/m*3 24.61 C 8.74167 km/h
2800 24-07-2013 16:00:00 27.10833 C 14.56 g/m*3 27.11 C 6.425 km/h
Sensor: Nr:Datum:Temp:Abs-Feuchte:Windchill:Wind:
Aussen-T/F 2801 24-07-2013 17:00:00 27.59167 C 14.58 g/m*3 27.59 C 5.34167 km/h
2802 24-07-2013 18:00:00 25.16667 C 16.07 g/m*3 25.17 C 1.2 km/h
2803 24-07-2013 19:00:00 23.075 C 16.31 g/m*3 23.08 C 0.4 km/h
2804 24-07-2013 20:00:00 21.61667 C 15.73 g/m*3 21.62 C 0.26667 km/h
2805 24-07-2013 21:00:00 20.875 C 15.19 g/m*3 20.88 C 0 km/h
2806 24-07-2013 22:00:00 20.4 C 15.23 g/m*3 20.4 C 1.06667 km/h
2807 24-07-2013 23:00:00 19.63333 C 15.1 g/m*3 19.63 C 0 km/h
2808 25-07-2013 00:00:00 18.90833 C 14.79 g/m*3 18.91 C 0 km/h
2809 25-07-2013 01:00:00 18.025 C 14.37 g/m*3 18.02 C 0 km/h
2810 25-07-2013 02:00:00 17.525 C 14.05 g/m*3 17.52 C 0 km/h
2811 25-07-2013 03:00:00 17.025 C 13.77 g/m*3 17.02 C 0 km/h
2812 25-07-2013 04:00:00 16.58333 C 13.47 g/m*3 16.58 C 0 km/h
2813 25-07-2013 05:00:00 16.275 C 13.31 g/m*3 16.27 C 0.26667 km/h
2814 25-07-2013 06:00:00 16.64167 C 13.73 g/m*3 16.64 C 0.26667 km/h
2815 25-07-2013 07:00:00 16.76667 C 13.84 g/m*3 16.77 C 2.8 km/h
2816 25-07-2013 08:00:00 17.13333 C 14.11 g/m*3 17.13 C 3.73333 km/h
2817 25-07-2013 09:00:00 19.15 C 15.02 g/m*3 19.15 C 3.2 km/h
2818 25-07-2013 10:00:00 20.98333 C 16.14 g/m*3 20.98 C 0.13333 km/h
2819 25-07-2013 11:00:00 23.03333 C 17.3 g/m*3 23.03 C 0.4 km/h
2820 25-07-2013 12:00:00 24.725 C 16.83 g/m*3 24.73 C 7.39167 km/h
2821 25-07-2013 13:00:00 25.64167 C 16.74 g/m*3 25.64 C 10.49167 km/h
2822 25-07-2013 14:00:00 28.01667 C 16.69 g/m*3 28.02 C 7.65833 km/h
2823 25-07-2013 15:00:00 28.54167 C 16.55 g/m*3 28.54 C 6.71667 km/h
2824 25-07-2013 16:00:00 28.05 C 16.66 g/m*3 28.05 C 10.30833 km/h
2825 25-07-2013 17:00:00 25.3 C 15.7 g/m*3 25.3 C 8.59167 km/h
Sensor: Nr:Datum:Temp:Abs-Feuchte:Windchill:Wind:
Aussen-T/F 2826 25-07-2013 18:00:00 22.375 C 17.4 g/m*3 22.38 C 1.60833 km/h
2827 25-07-2013 19:00:00 22.54167 C 17.97 g/m*3 22.54 C 1.46667 km/h
2828 25-07-2013 20:00:00 20.6 C 16.85 g/m*3 20.6 C 0.26667 km/h
2829 25-07-2013 21:00:00 19.725 C 16.2 g/m*3 19.73 C 0.53333 km/h
2830 25-07-2013 22:00:00 18.98333 C 15.66 g/m*3 18.98 C 0.4 km/h
2831 25-07-2013 23:00:00 18.7 C 15.5 g/m*3 18.7 C 0 km/h
2832 26-07-2013 00:00:00 18.3 C 15.17 g/m*3 18.3 C 0 km/h
2833 26-07-2013 01:00:00 18.33333 C 15.21 g/m*3 18.33 C 0 km/h
2834 26-07-2013 02:00:00 18.55 C 15.47 g/m*3 18.55 C 0 km/h
2835 26-07-2013 03:00:00 18.28333 C 15.2 g/m*3 18.28 C 0 km/h
2836 26-07-2013 04:00:00 18.24167 C 15.27 g/m*3 18.24 C 0 km/h
2837 26-07-2013 05:00:00 18.275 C 15.3 g/m*3 18.27 C 0 km/h
2838 26-07-2013 06:00:00 18.43333 C 15.44 g/m*3 18.43 C 0 km/h
2839 26-07-2013 07:00:00 18.90833 C 15.88 g/m*3 18.91 C 0.13333 km/h
2840 26-07-2013 08:00:00 19.625 C 16.53 g/m*3 19.63 C 0 km/h
2841 26-07-2013 09:00:00 20.65833 C 17.27 g/m*3 20.66 C 0.94167 km/h
2842 26-07-2013 10:00:00 21.15 C 17.48 g/m*3 21.15 C 1.475 km/h
2843 26-07-2013 11:00:00 21.15833 C 17.81 g/m*3 21.16 C 0 km/h
2844 26-07-2013 12:00:00 21.84167 C 18.56 g/m*3 21.84 C 0.4 km/h
2845 26-07-2013 13:00:00 22.66667 C 18.91 g/m*3 22.67 C 0.93333 km/h
2846 26-07-2013 14:00:00 22.95 C 19.15 g/m*3 22.95 C 0 km/h
2847 26-07-2013 15:00:00 23.025 C 19.28 g/m*3 23.03 C 1.73333 km/h
2848 26-07-2013 16:00:00 23.475 C 19.89 g/m*3 23.48 C 1.2 km/h
2849 26-07-2013 17:00:00 26.39167 C 21.46 g/m*3 26.39 C 1.06667 km/h
2850 26-07-2013 18:00:00 25.94167 C 21.54 g/m*3 25.94 C 0 km/h
Sensor: Nr:Datum:Temp:Abs-Feuchte:Windchill:Wind:
Aussen-T/F 2851 26-07-2013 19:00:00 24.89167 C 20.92 g/m*3 24.89 C 0.26667 km/h
2852 26-07-2013 20:00:00 23.91667 C 20.12 g/m*3 23.92 C 0.26667 km/h
2853 26-07-2013 21:00:00 22.28333 C 18.71 g/m*3 22.28 C 0 km/h
2854 26-07-2013 22:00:00 21.68333 C 18.1 g/m*3 21.68 C 0 km/h
2855 26-07-2013 23:00:00 21.19167 C 17.78 g/m*3 21.19 C 0 km/h
2856 27-07-2013 00:00:00 20.74167 C 17.37 g/m*3 20.74 C 0 km/h
2857 27-07-2013 01:00:00 20.25 C 17.01 g/m*3 20.25 C 0 km/h
2858 27-07-2013 02:00:00 19.91667 C 16.68 g/m*3 19.92 C 0 km/h
2859 27-07-2013 03:00:00 19.65833 C 16.46 g/m*3 19.66 C 0.26667 km/h
2860 27-07-2013 04:00:00 19.54167 C 16.38 g/m*3 19.54 C 0.26667 km/h
2861 27-07-2013 05:00:00 19.475 C 16.41 g/m*3 19.48 C 0 km/h
2862 27-07-2013 06:00:00 19.20833 C 16.13 g/m*3 19.21 C 0 km/h
2863 27-07-2013 07:00:00 19.63333 C 16.58 g/m*3 19.63 C 0.26667 km/h
2864 27-07-2013 08:00:00 20.70833 C 17.4 g/m*3 20.71 C 0 km/h
2865 27-07-2013 09:00:00 21.34167 C 17.81 g/m*3 21.34 C 0 km/h
2866 27-07-2013 10:00:00 22.825 C 19.25 g/m*3 22.83 C 0 km/h
2867 27-07-2013 11:00:00 24.7 C 20.41 g/m*3 24.7 C 0.53333 km/h
2868 27-07-2013 12:00:00 27.68333 C 17.62 g/m*3 27.68 C 6.58333 km/h
2869 27-07-2013 13:00:00 26.01667 C 18.44 g/m*3 26.02 C 2.53333 km/h
2870 27-07-2013 14:00:00 28.625 C 18.93 g/m*3 28.63 C 3.625 km/h
2871 27-07-2013 15:00:00 28.63333 C 20.13 g/m*3 28.63 C 2.13333 km/h
2872 27-07-2013 16:00:00 30.55833 C 18.93 g/m*3 30.56 C 6.30833 km/h
2873 27-07-2013 17:00:00 30.48333 C 18.47 g/m*3 30.48 C 4.425 km/h
2874 27-07-2013 18:00:00 26.75833 C 19.17 g/m*3 26.76 C 2 km/h
2875 27-07-2013 19:00:00 26.1 C 19.24 g/m*3 26.1 C 1.2 km/h
Sensor: Nr:Datum:Temp:Abs-Feuchte:Windchill:Wind:
Aussen-T/F 2876 27-07-2013 20:00:00 24.675 C 18.27 g/m*3 24.68 C 1.33333 km/h
2877 27-07-2013 21:00:00 23.26667 C 16.99 g/m*3 23.27 C 0.26667 km/h
2878 27-07-2013 22:00:00 22.3 C 16.16 g/m*3 22.3 C 0 km/h
2879 27-07-2013 23:00:00 21.91667 C 16.08 g/m*3 21.92 C 0 km/h
2880 28-07-2013 00:00:00 23.275 C 15.55 g/m*3 23.28 C 8.58333 km/h
2881 28-07-2013 01:00:00 25.825 C 13.26 g/m*3 25.83 C 12.35 km/h
2882 28-07-2013 02:00:00 23.40833 C 14.17 g/m*3 23.41 C 5.50833 km/h
2883 28-07-2013 03:00:00 21.78333 C 14.71 g/m*3 21.78 C 0.93333 km/h
2884 28-07-2013 04:00:00 21.54167 C 14.3 g/m*3 21.54 C 3.2 km/h
2885 28-07-2013 05:00:00 20.98333 C 14.46 g/m*3 20.98 C 1.475 km/h
2886 28-07-2013 06:00:00 21.125 C 14.65 g/m*3 21.13 C 0.4 km/h
2887 28-07-2013 07:00:00 20.78333 C 15.42 g/m*3 20.78 C 0 km/h
2888 28-07-2013 08:00:00 21.73333 C 15.85 g/m*3 21.73 C 0.13333 km/h
2889 28-07-2013 09:00:00 23.4 C 15.63 g/m*3 23.4 C 6.70833 km/h
2890 28-07-2013 10:00:00 24.2 C 15.9 g/m*3 24.2 C 6.825 km/h
2891 28-07-2013 11:00:00 23.29167 C 16.32 g/m*3 23.29 C 5.10833 km/h
2892 28-07-2013 12:00:00 22.30833 C 17.09 g/m*3 22.31 C 0.94167 km/h
2893 28-07-2013 13:00:00 22.225 C 16.76 g/m*3 22.23 C 4.55833 km/h
2894 28-07-2013 14:00:00 22.10833 C 16.75 g/m*3 22.11 C 1.2 km/h
2895 28-07-2013 15:00:00 22.175 C 16.79 g/m*3 22.18 C 2.53333 km/h
2896 28-07-2013 16:00:00 21.425 C 16.74 g/m*3 21.43 C 0.66667 km/h
2897 28-07-2013 17:00:00 21.325 C 16.8 g/m*3 21.33 C 1.2 km/h
2898 28-07-2013 18:00:00 20.95 C 16.85 g/m*3 20.95 C 0.26667 km/h
2899 28-07-2013 19:00:00 20.775 C 16.62 g/m*3 20.78 C 0.8 km/h
2900 28-07-2013 20:00:00 21.01667 C 15.98 g/m*3 21.02 C 1.46667 km/h
Sensor: Nr:Datum:Temp:Abs-Feuchte:Windchill:Wind:
Aussen-T/F 2901 28-07-2013 21:00:00 19.24167 C 15.39 g/m*3 19.24 C 0 km/h
2902 28-07-2013 22:00:00 18.19167 C 14.75 g/m*3 18.19 C 0 km/h
2903 28-07-2013 23:00:00 17.7 C 14.36 g/m*3 17.7 C 0 km/h
2904 29-07-2013 00:00:00 17.45833 C 14.13 g/m*3 17.46 C 0 km/h
2905 29-07-2013 01:00:00 17.225 C 13.93 g/m*3 17.23 C 0.66667 km/h
2906 29-07-2013 02:00:00 17.01667 C 13.8 g/m*3 17.02 C 0.4 km/h
2907 29-07-2013 03:00:00 16.825 C 13.75 g/m*3 16.83 C 0 km/h
2908 29-07-2013 04:00:00 16.75 C 13.73 g/m*3 16.75 C 0.53333 km/h
2909 29-07-2013 05:00:00 17.90833 C 14.24 g/m*3 17.91 C 3.60833 km/h
2910 29-07-2013 06:00:00 18.36667 C 14.28 g/m*3 18.37 C 1.6 km/h
2911 29-07-2013 07:00:00 18.6 C 14.38 g/m*3 18.6 C 2.275 km/h
2912 29-07-2013 08:00:00 19.19167 C 14.64 g/m*3 19.19 C 3.89167 km/h
2913 29-07-2013 09:00:00 20.31667 C 14.6 g/m*3 20.32 C 8.625 km/h
2914 29-07-2013 10:00:00 21.26667 C 14.76 g/m*3 21.27 C 7.23333 km/h
2915 29-07-2013 11:00:00 23.06667 C 14.96 g/m*3 23.07 C 7.25833 km/h
2916 29-07-2013 12:00:00 24.16667 C 14.93 g/m*3 24.17 C 7.24167 km/h
2917 29-07-2013 13:00:00 23.81667 C 13.87 g/m*3 23.82 C 12.35833 km/h
2918 29-07-2013 14:00:00 18.93333 C 14.32 g/m*3 18.93 C 4.825 km/h
2919 29-07-2013 15:00:00 20.125 C 15.91 g/m*3 20.13 C 1.6 km/h
2920 29-07-2013 16:00:00 20.00833 C 15.78 g/m*3 20.01 C 0.53333 km/h
2921 29-07-2013 17:00:00 19.78333 C 16.08 g/m*3 19.78 C 0 km/h
2922 29-07-2013 18:00:00 20.29167 C 16.35 g/m*3 20.29 C 0 km/h
2923 29-07-2013 19:00:00 20.45833 C 16.4 g/m*3 20.46 C 0 km/h
2924 29-07-2013 20:00:00 19.85833 C 15.9 g/m*3 19.86 C 0 km/h
2925 29-07-2013 21:00:00 18.575 C 14.58 g/m*3 18.58 C 0.4 km/h
Sensor: Nr:Datum:Temp:Abs-Feuchte:Windchill:Wind:
Aussen-T/F 2926 29-07-2013 22:00:00 18.21667 C 13.91 g/m*3 18.22 C 0.93333 km/h
2927 29-07-2013 23:00:00 17.61667 C 13.35 g/m*3 17.62 C 0.53333 km/h
2928 30-07-2013 00:00:00 16.76667 C 12.9 g/m*3 16.77 C 0.8 km/h
2929 30-07-2013 01:00:00 17.20833 C 12.97 g/m*3 17.21 C 2 km/h
2930 30-07-2013 02:00:00 16.85833 C 13.06 g/m*3 16.86 C 1.06667 km/h
2931 30-07-2013 03:00:00 15.75 C 12.81 g/m*3 15.75 C 0.4 km/h
2932 30-07-2013 04:00:00 15.525 C 12.74 g/m*3 15.53 C 0.8 km/h
2933 30-07-2013 05:00:00 15.48333 C 12.6 g/m*3 15.48 C 2 km/h
2934 30-07-2013 06:00:00 15.33333 C 12.29 g/m*3 15.33 C 2.53333 km/h
2935 30-07-2013 07:00:00 15.90833 C 12.39 g/m*3 15.91 C 7.51667 km/h
2936 30-07-2013 08:00:00 16.48333 C 12.45 g/m*3 16.48 C 6.84167 km/h
2937 30-07-2013 09:00:00 17.19167 C 12.51 g/m*3 17.19 C 8.18333 km/h
2938 30-07-2013 10:00:00 19.14167 C 12.41 g/m*3 19.14 C 10.625 km/h
2939 30-07-2013 11:00:00 20.625 C 12.7 g/m*3 20.63 C 8.04167 km/h
2940 30-07-2013 12:00:00 21.66667 C 12.95 g/m*3 21.67 C 11.825 km/h
2941 30-07-2013 13:00:00 22.81667 C 13.31 g/m*3 22.82 C 12.1 km/h
2942 30-07-2013 14:00:00 21.8 C 13.38 g/m*3 21.8 C 15.96667 km/h
2943 30-07-2013 15:00:00 22.03333 C 13.04 g/m*3 22.03 C 15.3 km/h
2944 30-07-2013 16:00:00 22.45833 C 13.42 g/m*3 22.46 C 12.5 km/h
2945 30-07-2013 17:00:00 21.65833 C 12.7 g/m*3 21.66 C 9.41667 km/h
2946 30-07-2013 18:00:00 21.1 C 12.9 g/m*3 21.1 C 4.54167 km/h
2947 30-07-2013 19:00:00 20.99167 C 12.01 g/m*3 20.99 C 7.24167 km/h
2948 30-07-2013 20:00:00 20.675 C 11.76 g/m*3 20.68 C 7.78333 km/h
2949 30-07-2013 21:00:00 20.125 C 12.14 g/m*3 20.13 C 9.825 km/h
2950 30-07-2013 22:00:00 19.33333 C 12.8 g/m*3 19.33 C 12.89167 km/h
Sensor: Nr:Datum:Temp:Abs-Feuchte:Windchill:Wind:
Aussen-T/F 2951 30-07-2013 23:00:00 18.83333 C 13.12 g/m*3 18.83 C 13.03333 km/h
2952 31-07-2013 00:00:00 18.70833 C 13.44 g/m*3 18.71 C 13.43333 km/h
2953 31-07-2013 01:00:00 18.69167 C 13.6 g/m*3 18.69 C 8.875 km/h
2954 31-07-2013 02:00:00 18.95833 C 13.71 g/m*3 18.96 C 9.94167 km/h
2955 31-07-2013 03:00:00 19.20833 C 13.86 g/m*3 19.21 C 7.51667 km/h
2956 31-07-2013 04:00:00 19.14167 C 13.83 g/m*3 19.14 C 9.00833 km/h
2957 31-07-2013 05:00:00 18.63333 C 13.87 g/m*3 18.63 C 3.74167 km/h
2958 31-07-2013 06:00:00 19.15833 C 13.56 g/m*3 19.16 C 7.79167 km/h
2959 31-07-2013 07:00:00 19.23333 C 13.41 g/m*3 19.23 C 8.05833 km/h
2960 31-07-2013 08:00:00 19.99167 C 13.52 g/m*3 19.99 C 12.63333 km/h
2961 31-07-2013 09:00:00 20.60833 C 13.34 g/m*3 20.61 C 11.81667 km/h
2962 31-07-2013 10:00:00 21.63333 C 12.59 g/m*3 21.63 C 15.43333 km/h
2963 31-07-2013 11:00:00 22.28333 C 12.4 g/m*3 22.28 C 12.09167 km/h
2964 31-07-2013 12:00:00 23.06667 C 12.52 g/m*3 23.07 C 9.54167 km/h
2965 31-07-2013 13:00:00 23.23333 C 12.6 g/m*3 23.23 C 7.8 km/h
2966 31-07-2013 14:00:00 23.6 C 12.96 g/m*3 23.6 C 5.75833 km/h
2967 31-07-2013 15:00:00 23.48333 C 13.57 g/m*3 23.48 C 4.55833 km/h
2968 31-07-2013 16:00:00 23.73333 C 13.57 g/m*3 23.73 C 7.39167 km/h
2969 31-07-2013 17:00:00 24.025 C 14.43 g/m*3 24.03 C 5.35833 km/h
2970 31-07-2013 18:00:00 23.63333 C 14.65 g/m*3 23.63 C 3.21667 km/h
2971 31-07-2013 19:00:00 22.33333 C 14.8 g/m*3 22.33 C 1.86667 km/h
2972 31-07-2013 20:00:00 21.10833 C 14.61 g/m*3 21.11 C 0.66667 km/h
2973 31-07-2013 21:00:00 19.625 C 14.13 g/m*3 19.63 C 0.13333 km/h
2974 31-07-2013 22:00:00 18.44167 C 13.65 g/m*3 18.44 C 0.13333 km/h
2975 31-07-2013 23:00:00 17.55833 C 13.23 g/m*3 17.56 C 0 km/h
Sensor: Nr:Datum:Temp:Abs-Feuchte:Windchill:Wind:
Aussen-T/F 2976 01-08-2013 00:00:00 16.7 C 12.9 g/m*3 16.7 C 0 km/h
2977 01-08-2013 01:00:00 16.04167 C 12.62 g/m*3 16.04 C 0 km/h
2978 01-08-2013 02:00:00 15.54167 C 12.4 g/m*3 15.54 C 0 km/h
2979 01-08-2013 03:00:00 15.15 C 12.24 g/m*3 15.15 C 0 km/h
2980 01-08-2013 04:00:00 14.75833 C 12 g/m*3 14.76 C 0 km/h
2981 01-08-2013 05:00:00 14.38333 C 11.84 g/m*3 14.38 C 0 km/h
2982 01-08-2013 06:00:00 14.3 C 11.79 g/m*3 14.3 C 0 km/h
2983 01-08-2013 07:00:00 14.39167 C 11.89 g/m*3 14.39 C 0 km/h
2984 01-08-2013 08:00:00 15.9 C 12.99 g/m*3 15.9 C 0 km/h
2985 01-08-2013 09:00:00 17.64167 C 13.96 g/m*3 17.64 C 0 km/h
2986 01-08-2013 10:00:00 19.24167 C 15.04 g/m*3 19.24 C 0 km/h
2987 01-08-2013 11:00:00 22.925 C 16.66 g/m*3 22.93 C 1.2 km/h
2988 01-08-2013 12:00:00 26.025 C 16.13 g/m*3 26.03 C 5.21667 km/h
2989 01-08-2013 13:00:00 29.425 C 14.6 g/m*3 29.43 C 6.99167 km/h
2990 01-08-2013 14:00:00 31.1 C 12.76 g/m*3 31.1 C 7.36667 km/h
2991 01-08-2013 15:00:00 31.975 C 12.92 g/m*3 31.98 C 7.375 km/h
2992 01-08-2013 16:00:00 32.94167 C 13.13 g/m*3 32.94 C 7.11667 km/h
2993 01-08-2013 17:00:00 33.125 C 14.09 g/m*3 33.13 C 5.76667 km/h
2994 01-08-2013 18:00:00 30.51667 C 15.64 g/m*3 30.52 C 3.33333 km/h
2995 01-08-2013 19:00:00 27.04167 C 15.93 g/m*3 27.04 C 1.73333 km/h
2996 01-08-2013 20:00:00 22.35 C 15.74 g/m*3 22.35 C 2.13333 km/h
2997 01-08-2013 21:00:00 21.90833 C 14.42 g/m*3 21.91 C 2 km/h
2998 01-08-2013 22:00:00 21.26667 C 13.86 g/m*3 21.27 C 1.33333 km/h
2999 01-08-2013 23:00:00 20.86667 C 13.71 g/m*3 20.87 C 0.4 km/h
3000 02-08-2013 00:00:00 19.28333 C 13.24 g/m*3 19.28 C 0 km/h
Sensor: Nr:Datum:Temp:Abs-Feuchte:Windchill:Wind:
Aussen-T/F 3001 02-08-2013 01:00:00 18.26667 C 13.25 g/m*3 18.27 C 0 km/h
3002 02-08-2013 02:00:00 17.425 C 12.99 g/m*3 17.43 C 0 km/h
3003 02-08-2013 03:00:00 16.99167 C 12.74 g/m*3 16.99 C 0 km/h
3004 02-08-2013 04:00:00 16.41667 C 12.49 g/m*3 16.42 C 0 km/h
3005 02-08-2013 05:00:00 16.00833 C 12.34 g/m*3 16.01 C 0 km/h
3006 02-08-2013 06:00:00 15.71667 C 12.32 g/m*3 15.72 C 0 km/h
3007 02-08-2013 07:00:00 15.91667 C 12.61 g/m*3 15.92 C 0 km/h
3008 02-08-2013 08:00:00 17.09167 C 13.29 g/m*3 17.09 C 0 km/h
3009 02-08-2013 09:00:00 19.175 C 14.3 g/m*3 19.18 C 0 km/h
3010 02-08-2013 10:00:00 21.175 C 15.87 g/m*3 21.18 C 0 km/h
3011 02-08-2013 11:00:00 23.925 C 16.86 g/m*3 23.93 C 0 km/h
3012 02-08-2013 12:00:00 25.375 C 17.63 g/m*3 25.38 C 0 km/h
3013 02-08-2013 13:00:00 27.93333 C 18.63 g/m*3 27.93 C 1.86667 km/h
3014 02-08-2013 14:00:00 32.45 C 16.77 g/m*3 32.45 C 6.30833 km/h
3015 02-08-2013 15:00:00 34.95 C 12.95 g/m*3 34.95 C 7.51667 km/h
3016 02-08-2013 16:00:00 34.69167 C 14.72 g/m*3 34.69 C 6.3 km/h
3017 02-08-2013 17:00:00 33.5 C 15.14 g/m*3 33.5 C 4 km/h
3018 02-08-2013 18:00:00 30.20833 C 16.05 g/m*3 30.21 C 2.53333 km/h
3019 02-08-2013 19:00:00 27.08333 C 15.97 g/m*3 27.08 C 1.86667 km/h
3020 02-08-2013 20:00:00 26.03333 C 15.81 g/m*3 26.03 C 1.6 km/h
3021 02-08-2013 21:00:00 24.725 C 15.21 g/m*3 24.73 C 1.33333 km/h
3022 02-08-2013 22:00:00 23.75 C 15.03 g/m*3 23.75 C 0.13333 km/h
3023 02-08-2013 23:00:00 22.8 C 14.31 g/m*3 22.8 C 0.13333 km/h
3024 03-08-2013 00:00:00 22.19167 C 13.97 g/m*3 22.19 C 0.13333 km/h
3025 03-08-2013 01:00:00 22.25833 C 14.18 g/m*3 22.26 C 0 km/h
Sensor: Nr:Datum:Temp:Abs-Feuchte:Windchill:Wind:
Aussen-T/F 3026 03-08-2013 02:00:00 21.85 C 14.45 g/m*3 21.85 C 0 km/h
3027 03-08-2013 03:00:00 21.6 C 14.41 g/m*3 21.6 C 1.2 km/h
3028 03-08-2013 04:00:00 22.25833 C 14.82 g/m*3 22.26 C 7.24167 km/h
3029 03-08-2013 05:00:00 19.73333 C 15.88 g/m*3 19.73 C 2.80833 km/h
3030 03-08-2013 06:00:00 19.33333 C 15.84 g/m*3 19.33 C 0.93333 km/h
3031 03-08-2013 07:00:00 18.95833 C 15.61 g/m*3 18.96 C 2.95 km/h
3032 03-08-2013 08:00:00 18.78333 C 15.51 g/m*3 18.78 C 0.66667 km/h
3033 03-08-2013 09:00:00 19.21667 C 15.89 g/m*3 19.22 C 4.43333 km/h
3034 03-08-2013 10:00:00 20.43333 C 15.89 g/m*3 20.43 C 9.54167 km/h
3035 03-08-2013 11:00:00 21.93333 C 16.24 g/m*3 21.93 C 7.78333 km/h
3036 03-08-2013 12:00:00 21.38333 C 16.34 g/m*3 21.38 C 4.81667 km/h
3037 03-08-2013 13:00:00 22.50833 C 17.44 g/m*3 22.51 C 4.275 km/h
3038 03-08-2013 14:00:00 21.36667 C 16.78 g/m*3 21.37 C 1.73333 km/h
3039 03-08-2013 15:00:00 23.1 C 17.35 g/m*3 23.1 C 5.225 km/h
3040 03-08-2013 16:00:00 25.34167 C 17.54 g/m*3 25.34 C 4.825 km/h
3041 03-08-2013 17:00:00 23.66667 C 17.72 g/m*3 23.67 C 1.6 km/h
3042 03-08-2013 18:00:00 23.55833 C 17.54 g/m*3 23.56 C 2 km/h
3043 03-08-2013 19:00:00 21.325 C 16.74 g/m*3 21.33 C 2.66667 km/h
3044 03-08-2013 20:00:00 20.95 C 16.2 g/m*3 20.95 C 2.4 km/h
3045 03-08-2013 21:00:00 19.63333 C 15.07 g/m*3 19.63 C 2.66667 km/h
3046 03-08-2013 22:00:00 19.05 C 14.61 g/m*3 19.05 C 1.2 km/h
3047 03-08-2013 23:00:00 18.20833 C 13.83 g/m*3 18.21 C 0.13333 km/h
3048 04-08-2013 00:00:00 17.31667 C 13.25 g/m*3 17.32 C 0.26667 km/h
3049 04-08-2013 01:00:00 16.43333 C 12.66 g/m*3 16.43 C 0 km/h
3050 04-08-2013 02:00:00 15.85 C 12.37 g/m*3 15.85 C 0.26667 km/h
Sensor: Nr:Datum:Temp:Abs-Feuchte:Windchill:Wind:
Aussen-T/F 3051 04-08-2013 03:00:00 15.375 C 12.27 g/m*3 15.38 C 0.13333 km/h
3052 04-08-2013 04:00:00 15.125 C 12.1 g/m*3 15.13 C 0.26667 km/h
3053 04-08-2013 05:00:00 14.675 C 11.84 g/m*3 14.68 C 0 km/h
3054 04-08-2013 06:00:00 14.28333 C 11.67 g/m*3 14.28 C 0.26667 km/h
3055 04-08-2013 07:00:00 14.93333 C 12.07 g/m*3 14.93 C 3.89167 km/h
3056 04-08-2013 08:00:00 16.075 C 12.58 g/m*3 16.08 C 4.00833 km/h
3057 04-08-2013 09:00:00 17.69167 C 13.22 g/m*3 17.69 C 4.14167 km/h
3058 04-08-2013 10:00:00 19.00833 C 14.18 g/m*3 19.01 C 0.13333 km/h
3059 04-08-2013 11:00:00 21.525 C 14.95 g/m*3 21.53 C 1.86667 km/h
3060 04-08-2013 12:00:00 23.55833 C 13.47 g/m*3 23.56 C 2.8 km/h
3061 04-08-2013 13:00:00 25.16667 C 12.62 g/m*3 25.17 C 3.73333 km/h
3062 04-08-2013 14:00:00 26.9 C 12.16 g/m*3 26.9 C 6.15833 km/h
3063 04-08-2013 15:00:00 28.03333 C 11.78 g/m*3 28.03 C 7.38333 km/h
3064 04-08-2013 16:00:00 28.40833 C 11.98 g/m*3 28.41 C 6.84167 km/h
3065 04-08-2013 17:00:00 25.00833 C 14.82 g/m*3 25.01 C 1.46667 km/h
3066 04-08-2013 18:00:00 23.88333 C 14.59 g/m*3 23.88 C 1.33333 km/h
3067 04-08-2013 19:00:00 21.40833 C 14.54 g/m*3 21.41 C 0.8 km/h
3068 04-08-2013 20:00:00 20.4 C 14.17 g/m*3 20.4 C 0.93333 km/h
3069 04-08-2013 21:00:00 19.1 C 13.06 g/m*3 19.1 C 0.4 km/h
3070 04-08-2013 22:00:00 18.00833 C 12.41 g/m*3 18.01 C 0 km/h
3071 04-08-2013 23:00:00 16.925 C 11.93 g/m*3 16.93 C 0 km/h
3072 05-08-2013 00:00:00 16.45 C 11.6 g/m*3 16.45 C 0.13333 km/h
3073 05-08-2013 01:00:00 15.475 C 11.35 g/m*3 15.48 C 0.13333 km/h
3074 05-08-2013 02:00:00 14.83333 C 11.17 g/m*3 14.83 C 0 km/h
3075 05-08-2013 03:00:00 14.25 C 11.03 g/m*3 14.25 C 0.53333 km/h
Sensor: Nr:Datum:Temp:Abs-Feuchte:Windchill:Wind:
Aussen-T/F 3076 05-08-2013 04:00:00 13.825 C 10.91 g/m*3 13.83 C 0.53333 km/h
3077 05-08-2013 05:00:00 13.30833 C 10.63 g/m*3 13.31 C 0 km/h
3078 05-08-2013 06:00:00 13.00833 C 10.59 g/m*3 13.01 C 0 km/h
3079 05-08-2013 07:00:00 13.28333 C 10.85 g/m*3 13.28 C 0 km/h
3080 05-08-2013 08:00:00 14.06667 C 11.29 g/m*3 14.07 C 0 km/h
3081 05-08-2013 09:00:00 15.8 C 12.28 g/m*3 15.8 C 0 km/h
3082 05-08-2013 10:00:00 17.58333 C 13.63 g/m*3 17.58 C 0 km/h
3083 05-08-2013 11:00:00 20.38333 C 15.2 g/m*3 20.38 C 0.4 km/h
3084 05-08-2013 12:00:00 23.96667 C 15.87 g/m*3 23.97 C 4.41667 km/h
3085 05-08-2013 13:00:00 27.46667 C 14.7 g/m*3 27.47 C 6.43333 km/h
3086 05-08-2013 14:00:00 29.55 C 14.28 g/m*3 29.55 C 7.11667 km/h
3087 05-08-2013 15:00:00 29.94167 C 14.81 g/m*3 29.94 C 4.80833 km/h
3088 05-08-2013 16:00:00 29.54167 C 16.47 g/m*3 29.54 C 4.68333 km/h
3089 05-08-2013 17:00:00 29.075 C 18.39 g/m*3 29.08 C 1.33333 km/h
3090 05-08-2013 18:00:00 26.29167 C 17.96 g/m*3 26.29 C 1.2 km/h
3091 05-08-2013 19:00:00 24.15 C 17.19 g/m*3 24.15 C 2 km/h
3092 05-08-2013 20:00:00 23.475 C 16.59 g/m*3 23.48 C 2.4 km/h
3093 05-08-2013 21:00:00 21.99167 C 15.34 g/m*3 21.99 C 0.4 km/h
3094 05-08-2013 22:00:00 21.43333 C 15.03 g/m*3 21.43 C 0 km/h
3095 05-08-2013 23:00:00 21.08333 C 15.08 g/m*3 21.08 C 0.13333 km/h
3096 06-08-2013 00:00:00 20.55833 C 15 g/m*3 20.56 C 0 km/h
3097 06-08-2013 01:00:00 21.075 C 15.35 g/m*3 21.08 C 3.20833 km/h
3098 06-08-2013 02:00:00 20.03333 C 15.24 g/m*3 20.03 C 0.13333 km/h
3099 06-08-2013 03:00:00 20.19167 C 15.13 g/m*3 20.19 C 1.74167 km/h
3100 06-08-2013 04:00:00 20.05833 C 15.03 g/m*3 20.06 C 0.4 km/h
Sensor: Nr:Datum:Temp:Abs-Feuchte:Windchill:Wind:
Aussen-T/F 3101 06-08-2013 05:00:00 19.59167 C 15.1 g/m*3 19.59 C 1.06667 km/h
3102 06-08-2013 06:00:00 19.20833 C 14.63 g/m*3 19.21 C 2.26667 km/h
3103 06-08-2013 07:00:00 18.8 C 13.9 g/m*3 18.8 C 0.26667 km/h
3104 06-08-2013 08:00:00 19.14167 C 14.39 g/m*3 19.14 C 0.4 km/h
3105 06-08-2013 09:00:00 18.14167 C 14.62 g/m*3 18.14 C 0 km/h
3106 06-08-2013 10:00:00 18.66667 C 15.3 g/m*3 18.67 C 0 km/h
3107 06-08-2013 11:00:00 19.275 C 15.65 g/m*3 19.27 C 0 km/h
3108 06-08-2013 12:00:00 20.78333 C 16.43 g/m*3 20.78 C 0.8 km/h
3109 06-08-2013 13:00:00 23.4 C 16.7 g/m*3 23.4 C 1.46667 km/h
3110 06-08-2013 14:00:00 25.025 C 16.16 g/m*3 25.03 C 2.66667 km/h
3111 06-08-2013 15:00:00 22.74167 C 15.04 g/m*3 22.74 C 5.5 km/h
3112 06-08-2013 16:00:00 18.81667 C 14.15 g/m*3 18.82 C 3.75 km/h
3113 06-08-2013 17:00:00 18.55 C 15.01 g/m*3 18.55 C 0.4 km/h
3114 06-08-2013 18:00:00 21.51667 C 15.89 g/m*3 21.52 C 1.46667 km/h
3115 06-08-2013 19:00:00 22.05 C 16.51 g/m*3 22.05 C 0.66667 km/h
3116 06-08-2013 20:00:00 19.59167 C 15.59 g/m*3 19.59 C 0 km/h
3117 06-08-2013 21:00:00 18.05 C 14.55 g/m*3 18.05 C 0 km/h
3118 06-08-2013 22:00:00 17.44167 C 14.23 g/m*3 17.44 C 0 km/h
3119 06-08-2013 23:00:00 16.96667 C 13.86 g/m*3 16.97 C 0 km/h
3120 07-08-2013 00:00:00 16.53333 C 13.53 g/m*3 16.53 C 0 km/h
3121 07-08-2013 01:00:00 15.85833 C 12.99 g/m*3 15.86 C 0 km/h
3122 07-08-2013 02:00:00 15.66667 C 12.93 g/m*3 15.67 C 0 km/h
3123 07-08-2013 03:00:00 15.60833 C 12.91 g/m*3 15.61 C 0 km/h
3124 07-08-2013 04:00:00 15.675 C 12.96 g/m*3 15.68 C 0 km/h
3125 07-08-2013 05:00:00 15.625 C 12.92 g/m*3 15.63 C 0 km/h
Sensor: Nr:Datum:Temp:Abs-Feuchte:Windchill:Wind:
Aussen-T/F 3126 07-08-2013 06:00:00 15.7 C 13.03 g/m*3 15.7 C 0 km/h
3127 07-08-2013 07:00:00 16.21667 C 13.53 g/m*3 16.22 C 0.26667 km/h
3128 07-08-2013 08:00:00 16.525 C 13.73 g/m*3 16.52 C 0 km/h
3129 07-08-2013 09:00:00 17.25833 C 14.29 g/m*3 17.26 C 0 km/h
3130 07-08-2013 10:00:00 19.05833 C 15.04 g/m*3 19.06 C 3.21667 km/h
3131 07-08-2013 11:00:00 21.01667 C 15.85 g/m*3 21.02 C 5.20833 km/h
3132 07-08-2013 12:00:00 22.55 C 16.19 g/m*3 22.55 C 4.93333 km/h
3133 07-08-2013 13:00:00 23.56667 C 16.58 g/m*3 23.57 C 5.75833 km/h
3134 07-08-2013 14:00:00 25.94167 C 17.41 g/m*3 25.94 C 7.65833 km/h
3135 07-08-2013 15:00:00 24.69167 C 17.78 g/m*3 24.69 C 2.54167 km/h
3136 07-08-2013 16:00:00 23.36667 C 16.86 g/m*3 23.37 C 2.14167 km/h
3137 07-08-2013 17:00:00 20.99167 C 16.13 g/m*3 20.99 C 0.26667 km/h
3138 07-08-2013 18:00:00 19.89167 C 15.74 g/m*3 19.89 C 1.73333 km/h
3139 07-08-2013 19:00:00 19.26667 C 15.73 g/m*3 19.27 C